GFSSW_500_spd_000.txt.gz
Wind_Speed
24 25 27 27 26 23 20 15 13 11 10 7 3 1 4 2 1 4 10 13 19 22 27 28 28 17 14 19 21 12 14 18 15 13 13 15 14 9 7 6 7 9 10 13 9
19 26 28 29 30 28 26 22 17 15 12 10 7 4 2 1 1 0 7 11 12 24 27 30 28 15 14 10 14 11 7 13 12 9 17 15 6 4 5 7 6 7 8 11 13
13 15 25 30 32 33 31 29 24 19 17 14 10 8 3 1 2 3 6 12 13 22 29 33 23 21 21 10 6 12 10 7 8 7 14 16 7 8 7 3 5 6 7 7 9
17 16 15 23 31 34 36 35 30 26 22 19 13 12 8 4 4 4 6 12 12 19 28 31 27 26 19 8 8 8 9 10 12 18 16 10 15 8 5 6 7 6 6 7 8
20 20 18 17 20 31 35 37 36 30 27 24 19 15 13 10 4 3 6 8 13 21 28 36 28 28 26 15 6 10 5 8 14 16 13 8 12 9 8 8 8 5 5 6 6
21 21 21 21 20 19 32 35 37 36 32 29 25 20 18 15 12 7 6 10 15 27 31 38 29 30 26 19 17 6 9 12 10 6 5 5 1 7 7 7 5 2 5 6 6
23 23 22 23 24 22 19 32 36 38 36 34 31 26 23 18 16 11 9 10 19 22 33 37 30 29 27 22 13 19 13 12 9 7 12 6 4 5 7 7 5 3 4 7 9
22 25 26 25 24 26 25 21 34 37 38 37 36 33 28 23 20 18 14 10 15 23 28 35 36 30 29 27 22 21 23 8 11 12 10 5 7 2 2 5 6 2 4 7 8
22 22 23 27 29 27 27 27 25 36 39 39 39 38 35 29 29 25 19 18 16 25 25 29 30 30 27 26 28 28 23 13 6 1 7 2 9 7 6 4 4 2 3 6 6
22 24 25 26 27 32 31 30 31 25 38 38 36 41 40 36 36 30 24 24 21 27 29 27 27 25 23 26 27 28 17 13 3 10 9 6 7 8 10 14 15 7 6 2 4
27 26 27 29 27 29 35 34 34 30 21 37 40 42 44 42 38 34 31 27 29 28 25 26 28 23 17 17 19 21 15 5 8 10 13 11 11 6 13 16 9 7 7 5 3
28 29 30 30 31 30 34 36 36 35 25 28 40 39 46 46 44 41 39 35 33 26 26 28 29 22 17 23 27 24 20 12 3 10 21 19 15 9 11 9 3 2 4 1 4
31 30 31 30 32 34 33 33 37 37 31 26 35 41 41 48 45 46 42 37 32 30 26 25 22 28 26 31 31 25 22 20 4 16 23 22 21 18 14 6 4 9 10 11 8
34 34 33 33 32 35 35 32 37 38 31 22 26 30 40 43 48 48 46 41 39 34 28 28 31 36 33 30 32 32 22 11 14 24 33 23 23 25 19 10 6 13 19 19 7
35 34 34 32 32 34 34 33 36 36 26 20 22 35 34 39 42 45 48 47 42 36 36 29 35 35 36 30 36 30 23 16 19 22 23 25 28 19 21 15 11 15 8 11 15
38 38 34 32 30 33 35 33 34 33 19 19 18 19 30 31 42 45 49 51 44 42 42 35 35 36 33 32 39 35 27 29 23 24 27 26 23 26 27 24 17 20 18 13 11
39 42 35 31 32 31 33 35 34 31 17 16 13 9 6 21 32 42 46 53 53 51 48 43 42 39 36 38 39 42 33 35 38 33 32 25 28 26 28 29 20 23 20 16 15
39 40 36 32 35 30 35 35 35 23 15 20 20 23 21 5 13 29 40 50 53 51 49 46 46 43 41 41 36 38 36 36 40 49 43 35 37 17 13 16 17 25 19 12 12
39 40 36 39 35 31 34 37 29 18 24 29 28 26 22 14 7 11 33 43 49 53 53 49 46 42 42 39 33 33 41 34 33 39 27 28 25 17 19 21 19 18 17 15 16
39 39 39 38 32 35 34 32 26 18 33 38 35 30 29 28 25 22 14 34 41 49 48 45 43 40 35 31 28 30 23 29 39 31 31 31 24 21 14 20 16 16 17 18 23
40 37 43 36 35 37 33 30 24 22 34 47 43 38 25 29 28 32 21 15 31 41 47 41 41 39 39 38 31 28 31 27 28 26 37 29 24 21 21 23 15 16 15 22 24
40 39 38 38 36 37 34 33 29 28 31 49 49 41 31 33 31 17 30 17 16 31 43 42 41 43 43 34 30 25 34 35 35 39 32 34 28 28 24 26 17 14 19 23 28
39 37 39 40 38 36 35 36 34 31 37 52 50 44 34 32 29 16 23 39 33 22 36 36 44 41 41 37 29 24 31 35 34 37 34 34 35 30 28 25 25 22 26 25 24
40 39 45 42 38 39 41 40 38 33 39 46 54 43 39 35 30 25 31 38 40 28 15 15 47 44 44 38 33 35 31 27 28 36 31 34 31 34 31 26 26 30 32 28 25
40 42 41 44 39 39 42 41 41 38 41 40 56 50 39 39 31 32 33 35 35 36 36 21 48 44 43 32 32 37 37 31 30 32 29 23 28 37 34 25 27 33 33 31 27
42 40 41 40 43 39 40 41 45 42 44 43 53 62 38 44 40 33 36 39 36 30 36 37 30 48 47 37 23 31 40 36 25 26 27 33 31 33 30 27 29 33 39 38 34
46 46 44 41 43 42 41 40 43 47 45 47 54 66 53 44 45 42 44 39 39 36 39 41 32 50 46 38 33 35 44 42 38 40 29 37 22 25 29 33 36 39 43 44 41

GFSSW_500_spd_003.txt.gz
Wind_Speed
19 23 25 27 26 25 22 19 15 13 12 9 5 4 3 2 3 7 10 14 16 20 24 25 21 19 18 14 16 12 10 12 16 20 23 16 17 15 14 8 5 4 4 8 6
12 17 23 27 29 29 27 24 19 16 15 13 8 6 2 3 4 7 4 4 12 20 30 30 28 17 14 9 9 10 9 11 13 17 18 16 16 13 7 8 7 2 3 5 6
14 14 15 20 27 31 31 29 26 21 17 16 12 10 7 5 5 4 9 8 12 22 34 31 21 15 14 11 11 12 8 6 14 17 12 11 17 15 9 8 7 3 4 6 6
18 18 17 16 19 27 31 33 32 29 24 20 18 12 12 9 9 6 7 9 12 30 31 29 22 18 14 6 3 12 4 6 15 12 10 12 12 5 5 6 7 6 4 7 7
20 20 20 20 19 20 25 33 36 36 34 28 24 19 17 14 8 8 6 4 11 20 27 27 24 19 13 7 7 7 4 7 16 10 11 10 8 6 7 7 6 7 5 6 6
21 21 22 22 23 22 22 23 34 37 39 33 29 25 21 19 15 10 6 7 15 19 28 30 26 23 18 17 8 7 2 5 10 11 9 7 8 8 8 8 7 5 3 5 6
23 24 23 23 23 24 25 24 24 33 38 39 34 32 27 24 20 15 10 12 18 20 33 36 32 30 24 19 17 12 3 8 11 9 10 8 7 4 7 10 9 5 3 6 9
22 22 24 24 24 25 27 26 27 25 32 38 37 36 35 26 26 24 17 16 18 19 30 43 40 32 26 23 14 13 9 7 13 12 10 9 7 2 5 8 10 6 2 5 8
26 24 23 22 24 27 27 28 28 26 25 30 38 37 41 34 35 31 24 22 22 22 26 28 38 33 32 25 15 12 10 11 11 7 10 8 12 6 6 9 8 6 4 4 7
30 28 26 25 25 27 29 29 29 28 26 29 33 40 42 42 39 36 32 27 27 29 32 28 31 36 34 28 20 13 16 14 9 4 7 9 8 7 4 6 11 4 4 5 5
30 31 32 32 29 32 33 30 30 31 30 31 28 38 44 46 43 42 38 34 34 33 32 30 29 24 25 25 26 17 14 16 7 5 6 10 8 6 15 12 7 1 5 6 5
31 33 35 34 33 34 34 33 31 35 27 35 31 26 44 47 47 46 44 41 38 34 32 32 25 24 29 29 33 25 22 15 12 4 6 4 10 7 11 13 7 5 4 5 7
33 34 34 35 35 37 38 36 37 33 33 22 38 26 31 47 48 49 47 47 42 37 35 25 22 33 31 26 34 28 24 17 8 9 15 12 16 5 10 14 9 13 7 8 8
34 35 34 35 35 36 36 36 37 35 30 26 32 30 35 38 46 53 50 49 48 42 39 31 30 38 37 29 30 33 26 20 22 19 17 20 22 13 8 11 3 10 8 6 7
32 34 35 34 37 37 35 35 37 35 33 22 26 26 30 33 34 47 48 51 50 45 45 37 33 39 40 32 31 35 26 25 26 22 18 23 27 16 16 12 8 7 7 10 12
35 33 38 37 36 39 36 35 35 34 27 20 17 24 26 28 34 42 47 51 48 50 47 42 37 41 43 35 39 33 33 35 30 26 30 23 24 20 14 7 14 12 13 13 11
35 35 38 38 40 38 38 36 37 33 19 18 14 22 26 28 27 39 46 52 56 58 57 48 46 45 46 45 44 42 41 39 38 36 33 28 29 15 3 7 10 10 13 11 9
37 37 39 41 44 40 38 39 39 26 15 17 19 19 20 30 24 25 34 44 51 54 55 52 52 49 50 47 46 44 47 45 39 31 31 32 35 9 6 5 7 10 14 10 6
38 39 40 43 42 41 40 43 36 23 20 22 28 28 20 22 23 22 24 32 42 51 56 56 53 51 53 48 45 49 56 46 43 37 36 34 35 29 18 17 18 13 12 7 9
39 40 43 42 44 43 45 42 36 23 24 26 36 38 33 28 28 29 30 22 24 36 47 52 53 50 48 51 51 54 52 50 51 45 45 45 45 39 34 22 17 15 15 11 11
38 42 43 43 45 46 46 41 31 27 30 33 37 46 43 37 34 35 32 27 24 18 32 47 53 49 50 54 51 55 53 54 48 45 40 37 35 32 35 29 16 18 18 12 12
41 41 43 45 46 47 46 37 35 34 38 38 38 48 45 39 37 36 32 28 24 21 32 39 47 46 51 49 50 54 49 48 42 35 33 33 32 31 28 24 17 21 17 13 14
46 43 46 48 49 48 44 45 42 40 41 38 36 45 52 47 43 37 34 34 30 34 31 33 44 48 46 49 50 53 46 39 28 32 34 31 29 26 33 31 24 24 23 23 22
46 47 49 49 50 49 47 45 43 41 42 41 40 39 56 52 48 43 41 33 35 26 22 29 30 46 52 46 48 49 43 36 29 37 37 34 30 27 24 32 28 24 20 18 12
47 48 50 51 51 48 50 46 43 44 46 43 42 42 54 57 53 46 35 41 26 30 33 38 28 23 43 44 50 42 41 34 30 27 30 28 31 28 29 27 21 23 20 14 13
50 49 48 50 52 49 50 49 45 46 47 45 45 44 46 60 59 48 49 45 25 30 36 36 37 22 31 41 48 45 41 37 34 29 25 25 27 23 24 24 27 29 23 16 16
52 52 49 48 51 51 49 52 46 48 45 48 49 47 47 50 65 50 44 30 31 34 42 39 38 38 31 42 48 47 38 40 44 44 30 32 25 21 30 28 28 24 22 24 24

GFSSW_500_spd_006.txt.gz
Wind_Speed
12 14 18 22 25 25 22 20 18 15 13 11 7 4 5 5 3 4 5 10 9 16 22 19 17 15 19 18 10 11 16 17 19 18 17 19 17 16 15 13 11 8 8 8 8
15 14 14 16 20 24 26 24 22 20 17 14 11 8 5 6 6 8 3 2 8 20 24 24 19 18 17 14 11 12 12 11 12 13 13 17 15 14 12 10 11 8 6 5 6
15 17 18 16 17 19 23 27 26 24 21 19 15 11 10 8 8 5 3 5 12 24 26 26 23 17 15 12 12 12 10 7 6 12 13 15 14 13 12 11 12 7 6 5 6
18 17 17 19 19 18 19 22 26 28 27 23 20 17 13 12 11 7 5 6 11 25 29 30 23 18 14 16 14 12 7 7 9 11 16 16 13 12 12 10 10 6 6 6 6
23 22 20 20 20 21 21 20 20 26 29 29 26 23 18 17 12 10 8 6 11 17 28 28 23 19 16 17 13 10 6 8 10 11 12 15 14 13 12 9 8 8 5 7 8
23 23 22 22 22 22 22 22 21 21 25 31 33 30 25 23 17 15 10 10 14 18 30 28 22 23 23 17 13 11 9 8 9 10 12 15 15 13 10 10 9 6 6 6 9
23 23 24 23 23 24 24 22 23 23 23 22 32 33 30 29 23 21 15 14 18 19 31 32 31 28 21 19 17 12 10 10 11 13 16 15 13 13 11 10 10 6 6 7 9
25 25 24 24 24 24 24 23 25 23 23 25 24 32 33 32 30 28 22 19 19 23 31 38 39 34 26 19 16 15 19 11 10 14 16 16 13 10 9 8 9 8 3 6 8
27 26 28 27 24 25 25 22 24 25 24 25 27 25 34 34 36 33 31 25 23 25 28 35 35 34 32 25 17 13 13 20 13 12 14 16 14 12 5 5 6 5 4 3 6
28 30 32 30 27 28 31 28 26 27 25 26 26 28 27 36 40 37 36 33 30 30 31 30 33 32 31 25 15 9 17 20 15 9 13 13 10 8 11 6 8 2 1 1 6
31 30 31 33 32 32 33 32 30 29 27 29 29 29 30 30 40 42 41 40 37 34 30 29 30 23 22 20 20 12 14 20 17 18 13 9 4 4 8 7 10 3 4 5 4
33 34 34 35 32 33 35 36 33 32 27 32 33 28 29 36 37 43 47 45 43 38 33 32 23 28 33 30 24 17 20 24 19 14 10 9 6 1 3 8 10 5 1 4 7
31 33 34 34 34 37 34 35 35 33 29 18 33 36 28 36 26 41 48 48 47 44 39 32 25 37 38 32 28 20 20 23 16 14 13 11 13 5 2 6 7 8 6 3 3
33 32 33 34 33 35 34 34 37 36 32 24 30 31 33 36 31 34 45 51 50 48 44 37 35 43 39 36 31 27 13 20 23 21 18 17 15 10 5 6 5 8 8 3 4
35 34 32 35 36 35 35 35 37 35 34 25 29 33 31 34 31 33 40 52 54 51 51 44 40 45 42 37 33 25 19 20 23 28 29 24 24 11 14 13 2 4 11 11 8
36 35 35 35 36 38 38 36 38 39 37 29 28 32 32 30 25 35 42 47 52 53 55 51 46 49 43 38 37 27 35 31 34 37 38 25 22 13 11 6 6 9 12 11 11
43 42 34 35 39 40 40 41 39 40 35 31 28 30 31 29 24 34 42 48 54 60 59 56 52 51 51 48 47 38 39 42 42 42 42 30 29 10 11 10 5 6 11 12 14
45 44 40 36 38 40 40 42 40 37 36 28 32 30 27 27 25 33 40 44 50 56 57 59 60 55 54 53 51 42 41 46 48 43 41 37 31 9 10 11 10 11 11 13 9
43 42 42 41 41 41 43 45 39 39 33 31 31 31 29 29 28 36 42 40 45 50 56 60 60 58 57 53 51 50 48 46 47 46 45 44 40 28 18 14 14 13 13 12 13
49 48 44 41 38 44 42 38 43 43 35 31 33 35 34 35 35 37 43 42 40 41 45 53 56 59 59 56 58 58 51 50 53 52 50 49 43 34 24 21 20 18 18 20 18
55 52 48 45 42 43 43 40 47 40 37 37 38 41 38 39 41 41 44 44 40 35 38 46 53 55 60 62 58 64 62 58 55 56 52 48 47 37 32 30 26 22 24 15 20
59 56 51 49 49 47 45 47 48 43 42 43 42 43 40 46 46 45 43 45 34 32 36 40 41 54 56 58 58 59 63 58 58 58 57 52 45 38 30 27 25 26 29 23 22
65 61 55 50 51 50 50 52 52 47 44 47 48 45 43 44 50 51 46 37 31 31 32 36 47 50 52 49 57 62 63 62 60 58 61 56 47 33 26 21 27 28 31 25 23
61 56 54 48 53 55 55 55 53 49 47 48 47 44 44 44 47 53 47 38 34 33 40 38 49 53 60 56 54 62 63 65 60 61 56 53 39 30 22 25 25 33 28 25 22
55 52 47 47 53 59 59 57 54 52 50 49 49 46 44 47 43 46 52 46 37 38 37 38 41 47 47 46 47 52 55 57 58 53 54 41 36 26 24 23 22 19 23 23 24
53 50 49 47 52 55 59 59 56 54 50 49 50 47 47 49 44 46 52 46 47 41 38 35 36 32 35 40 44 51 53 53 58 54 48 39 30 24 22 24 26 23 26 24 20
47 49 51 50 54 57 59 60 57 54 52 50 50 48 49 49 49 41 53 55 50 50 38 37 39 33 30 30 40 52 51 52 48 49 44 37 22 20 22 27 27 26 25 24 20

GFSSW_500_spd_009.txt.gz
Wind_Speed
13 12 12 14 16 18 20 19 18 17 13 10 7 5 5 6 3 1 6 5 16 21 20 18 13 12 12 15 19 20 15 15 15 13 14 15 14 15 15 15 14 12 9 9 12
16 15 15 15 14 14 17 19 20 20 18 14 11 8 7 7 5 3 1 6 15 24 21 19 20 18 19 16 18 17 13 12 11 11 12 14 13 13 13 15 14 10 12 7 12
18 19 18 17 17 16 15 15 18 20 21 19 15 12 10 10 8 3 3 5 15 24 27 23 21 22 18 15 15 12 10 7 10 8 13 15 15 13 12 12 13 10 11 8 10
21 21 19 20 19 17 17 17 16 16 21 23 21 18 13 14 13 7 3 6 12 19 25 23 22 20 15 15 17 13 9 10 12 10 12 15 16 14 10 11 12 10 7 9 9
21 23 21 19 19 20 19 17 19 17 15 21 25 23 19 18 18 10 10 8 13 18 20 26 24 21 18 18 18 12 9 13 12 11 12 15 17 14 12 10 12 11 6 9 12
22 21 21 22 20 20 19 18 19 18 19 17 21 26 24 26 19 19 13 11 14 16 25 28 28 23 20 19 17 12 11 14 12 12 12 15 17 18 14 12 8 10 8 8 13
21 22 21 22 23 24 21 16 18 18 19 19 19 19 26 30 26 26 20 15 15 18 23 31 32 29 22 22 17 16 15 14 14 12 14 14 17 18 15 12 10 7 9 8 11
22 22 24 22 23 25 25 18 16 17 18 20 20 19 20 28 29 31 26 21 19 22 24 33 33 33 26 21 22 17 18 17 15 15 14 13 14 15 14 11 9 7 5 7 8
24 26 28 27 28 27 26 22 21 21 21 21 21 21 22 21 30 33 32 29 26 26 28 29 29 30 29 25 23 21 19 19 18 19 16 13 10 9 10 9 9 5 5 3 5
26 27 27 29 28 29 29 27 26 26 26 24 23 22 24 24 25 34 37 35 32 32 31 30 27 29 24 21 16 17 18 19 19 16 18 16 13 11 11 10 3 1 4 3 3
27 28 29 29 30 32 32 31 29 27 28 27 27 23 26 26 26 31 38 40 39 38 34 31 25 20 16 17 19 17 19 21 19 21 19 18 14 12 10 8 7 3 4 5 6
28 30 31 30 30 30 32 33 31 29 24 26 28 28 27 30 23 29 37 44 44 41 38 36 27 26 29 27 23 24 26 24 24 23 18 17 15 14 11 7 6 3 4 4 7
31 32 32 34 32 31 30 32 33 34 31 24 28 29 30 28 24 31 31 41 46 46 43 41 31 35 36 31 25 24 24 33 26 25 21 17 16 14 11 9 6 4 1 3 5
37 36 34 35 35 35 32 30 30 32 32 24 28 28 29 30 25 28 35 36 46 48 48 47 38 40 39 36 29 20 22 32 31 29 23 20 17 15 11 9 7 3 2 2 6
41 39 38 37 38 37 36 34 33 31 32 28 29 29 27 29 29 28 33 36 44 49 53 50 43 44 45 38 33 26 21 33 29 30 30 26 24 19 18 15 13 6 2 3 7
45 45 40 40 41 41 39 38 37 34 34 32 31 33 32 34 33 31 29 38 40 47 54 53 49 51 47 46 42 36 32 30 33 35 40 30 29 21 15 11 15 12 8 9 9
51 50 46 42 43 43 43 42 43 41 36 35 32 33 32 33 34 32 30 34 41 50 56 56 54 55 53 54 54 47 43 41 39 40 43 31 30 10 13 12 19 14 12 13 14
54 53 51 48 46 48 48 47 48 44 38 40 35 37 38 34 37 33 33 31 40 48 55 56 58 54 60 58 55 52 48 47 43 41 35 33 28 18 12 19 18 17 18 21 13
55 56 55 52 49 48 50 51 48 45 44 44 35 37 39 36 33 34 31 32 36 44 55 57 59 59 64 60 56 58 56 46 45 45 39 41 34 26 15 22 21 18 18 15 10
59 60 59 55 51 51 53 53 50 47 45 44 40 39 40 40 34 34 33 31 35 41 50 54 56 62 64 67 64 60 56 54 52 54 54 51 43 30 22 20 21 19 17 14 13
67 64 63 58 55 57 58 55 51 48 49 49 44 41 42 42 37 35 36 32 31 40 47 48 56 58 70 72 69 67 65 63 59 56 53 52 47 31 26 22 24 25 23 20 17
66 65 61 58 56 57 55 52 52 49 52 52 50 44 43 43 42 40 36 34 34 37 43 43 46 57 64 72 75 69 67 63 63 59 58 56 49 38 31 27 23 22 24 26 22
63 65 64 62 60 59 58 57 56 53 54 55 52 49 45 46 48 42 39 36 36 36 39 41 47 48 57 63 73 75 72 68 69 65 65 60 54 44 34 31 24 25 20 20 21
63 62 65 64 63 63 60 58 57 57 57 57 56 51 47 48 48 44 45 40 36 32 36 43 45 51 54 61 62 69 73 74 73 74 67 65 55 44 38 33 26 26 22 25 25
63 61 59 56 57 56 57 59 58 59 59 59 58 53 47 48 49 50 48 41 41 37 34 43 47 44 50 53 57 61 63 68 71 69 69 59 54 40 39 39 33 28 24 28 29
58 56 56 51 52 54 54 58 60 62 62 60 59 53 49 52 50 51 48 47 42 41 39 42 46 41 43 44 42 56 60 59 64 64 65 55 55 43 39 28 27 24 20 23 29
57 58 56 51 50 51 55 59 59 62 62 59 56 53 51 52 51 50 50 46 47 45 46 46 44 43 43 35 40 48 51 56 57 60 61 56 47 43 31 28 27 22 26 24 27

GFSSW_500_spd_012.txt.gz
Wind_Speed
16 16 16 15 15 14 15 14 15 14 12 10 7 5 7 3 1 2 5 10 19 22 22 23 15 14 14 19 19 17 14 5 6 9 10 13 12 13 14 16 15 11 7 10 15
15 16 16 17 17 16 14 14 14 15 16 14 12 9 9 8 3 1 3 11 18 24 22 24 18 16 17 21 17 13 12 5 7 8 11 11 12 12 13 15 14 12 10 9 14
14 16 17 17 17 18 17 15 15 14 14 17 16 14 11 12 8 5 4 11 18 22 27 23 22 17 22 20 17 12 10 7 6 8 8 10 12 13 11 12 11 9 14 12 12
17 17 17 16 16 16 17 17 16 15 14 13 19 18 16 15 14 7 7 8 13 22 18 21 20 20 20 20 18 13 8 10 10 10 11 10 12 11 10 9 11 9 6 13 11
18 19 18 18 16 16 16 17 18 16 16 13 13 19 21 21 19 11 12 11 14 22 21 24 22 23 20 21 18 15 12 12 11 10 12 11 11 10 9 8 10 11 8 9 13
19 19 18 18 17 17 16 17 17 18 17 16 14 13 20 26 21 20 15 14 14 16 26 26 24 23 24 24 21 15 14 14 13 12 12 12 12 13 10 8 8 11 10 9 13
19 19 18 18 19 20 19 19 17 16 16 16 16 14 17 20 25 25 22 17 17 20 22 29 31 29 23 23 22 17 15 16 15 14 15 14 12 13 13 12 8 8 9 8 9
18 19 19 20 21 23 23 22 18 16 16 17 17 17 19 17 20 27 27 23 22 21 24 29 35 34 28 26 22 18 16 16 17 17 15 14 8 11 12 12 10 8 7 8 9
21 21 21 21 22 22 22 22 22 20 20 20 19 19 21 20 18 23 29 30 27 26 27 28 32 33 33 27 24 22 15 17 19 19 18 15 12 10 10 10 9 8 7 6 9
23 25 25 22 24 23 24 24 24 24 25 24 22 21 19 20 20 20 26 33 33 31 32 29 29 30 29 33 26 20 19 19 18 20 18 16 13 11 9 9 9 8 8 8 7
26 26 27 24 26 26 25 25 25 26 25 25 24 22 22 21 19 22 23 30 36 36 35 33 29 25 24 25 23 19 20 18 23 23 21 18 14 12 11 9 8 7 5 7 10
30 29 30 28 27 28 28 28 27 26 23 27 27 22 23 21 21 22 24 26 33 37 39 40 32 29 32 30 25 25 25 22 23 28 25 22 20 19 16 13 11 10 6 4 7
35 35 36 35 34 31 31 30 31 29 26 26 28 28 27 26 21 23 23 26 27 37 42 41 34 36 37 34 32 31 29 26 26 28 28 26 25 21 18 16 13 11 9 6 5
41 37 37 40 39 37 36 33 34 33 32 24 28 29 26 26 25 25 22 24 27 30 39 45 44 42 42 36 34 34 30 28 29 32 31 30 21 21 18 15 13 11 9 6 7
46 46 43 42 41 41 39 38 37 36 37 33 30 28 28 28 27 26 24 23 25 30 37 44 47 43 44 40 37 31 31 35 31 34 30 31 29 23 25 19 13 11 10 8 7
50 52 50 49 50 46 44 41 41 40 42 37 33 31 30 29 30 29 28 26 26 29 35 39 47 50 46 45 43 37 34 34 33 34 38 33 33 26 21 13 18 17 17 13 9
51 52 55 55 53 52 48 46 46 47 42 40 38 36 36 35 35 34 33 32 29 28 31 38 45 49 51 50 51 47 44 37 37 39 37 34 37 35 26 20 21 22 19 17 18
53 55 55 54 53 54 54 51 52 49 44 46 43 41 39 38 38 38 36 35 32 30 33 35 44 46 55 56 54 51 50 40 38 35 34 35 39 29 24 25 22 24 24 22 23
53 55 55 55 53 54 56 57 53 52 50 50 47 46 44 46 42 40 42 38 37 32 32 36 40 45 55 58 56 58 60 44 33 33 33 30 36 33 29 27 24 21 27 25 25
60 59 61 60 60 60 63 58 57 56 55 51 50 50 47 48 47 43 41 40 38 31 30 36 39 43 52 58 57 64 54 54 46 42 40 34 29 26 29 25 23 25 22 21 18
71 68 67 70 70 69 68 66 63 64 58 54 53 52 53 48 50 46 41 44 39 38 31 33 37 33 49 57 60 62 68 64 47 46 41 38 36 29 28 31 29 24 24 23 21
72 70 68 69 70 72 70 69 70 66 63 59 57 57 56 54 49 46 46 42 44 39 36 32 34 39 41 50 57 49 61 64 58 58 47 45 36 26 30 32 31 27 23 29 27
61 65 69 70 69 67 67 70 71 67 68 62 60 59 55 57 50 50 50 47 43 38 36 31 35 30 39 34 49 58 51 57 57 53 52 47 43 30 29 31 28 24 28 23 31
57 58 64 67 67 66 67 71 69 66 65 62 61 62 59 59 54 50 52 47 43 41 40 39 34 38 34 36 38 53 66 65 53 60 57 56 40 37 37 44 31 27 23 20 21
57 58 57 59 62 64 66 67 68 70 69 63 62 62 61 58 54 51 52 52 46 44 40 41 40 36 37 35 31 38 44 61 75 71 64 50 52 48 45 41 32 32 27 22 25
53 52 54 54 54 59 60 63 68 67 69 66 63 63 61 61 56 49 54 53 49 47 45 44 41 38 34 34 36 38 39 44 50 73 78 75 68 42 46 49 42 33 33 26 27
41 47 50 49 50 51 54 58 63 66 65 63 66 68 68 64 62 59 59 55 54 51 52 48 44 43 39 27 32 39 45 46 46 55 63 72 69 65 60 50 41 35 28 26 28

GFSSW_500_spd_015.txt.gz
Wind_Speed
11 12 13 13 14 15 14 12 10 11 13 12 11 8 7 4 4 4 7 11 22 27 27 25 19 15 12 13 18 25 18 7 5 10 7 6 7 8 9 10 13 13 10 9 13
12 13 13 13 13 14 14 14 13 11 11 14 15 13 11 8 5 5 3 10 19 26 29 27 21 17 14 14 17 15 23 16 10 6 3 10 9 10 9 10 11 12 10 8 15
13 13 13 13 11 12 14 15 13 13 11 11 15 16 15 12 10 5 5 9 15 23 28 29 24 18 16 17 15 8 11 14 7 5 5 11 9 10 9 8 7 9 10 11 11
14 14 15 14 13 13 13 14 15 14 13 12 12 15 18 17 15 11 9 9 14 21 22 28 23 21 20 19 15 14 5 7 8 12 10 9 10 11 10 8 9 7 8 12 13
15 16 15 14 14 13 14 14 15 15 14 14 12 12 16 20 17 11 13 11 12 21 24 25 25 21 24 21 14 12 11 8 7 9 9 11 10 9 9 8 9 9 9 11 13
15 15 16 15 14 13 14 16 16 17 15 14 13 14 15 14 19 19 16 16 14 19 27 24 24 23 27 25 15 9 12 10 9 10 10 13 10 7 8 7 8 8 8 8 10
18 17 17 17 17 16 15 16 17 17 16 13 12 13 14 14 13 22 21 19 18 17 25 26 28 29 24 23 23 18 13 10 11 13 13 12 9 8 8 8 7 7 8 8 11
21 21 19 19 19 18 16 16 16 16 17 16 16 15 15 13 15 14 22 24 23 21 23 31 32 29 28 25 24 20 14 8 15 16 14 10 7 6 7 8 8 9 8 7 10
23 22 20 21 22 20 18 17 17 17 17 19 21 20 20 17 14 15 16 24 27 26 25 29 30 31 30 27 25 22 14 13 19 19 16 14 12 10 8 8 8 8 8 7 8
25 27 26 25 23 23 22 21 20 18 18 21 22 23 20 19 16 14 16 17 25 30 30 29 34 35 34 32 27 19 16 15 18 25 21 18 13 17 11 9 10 8 8 8 8
23 26 28 27 29 27 25 25 24 22 21 22 20 23 21 20 18 17 14 17 19 29 33 32 33 31 30 29 26 18 17 19 19 25 23 19 16 16 12 11 10 10 9 8 8
28 29 30 29 30 31 31 30 29 27 22 24 24 20 23 24 19 19 20 17 19 20 32 38 35 31 34 34 33 25 23 20 17 28 22 18 17 18 17 15 13 12 12 10 9
32 31 33 34 32 32 33 34 34 34 30 28 27 23 24 23 22 22 20 20 18 22 26 34 31 33 38 40 37 31 27 23 22 29 20 22 20 22 25 18 15 15 14 13 12
36 36 35 37 36 37 37 38 36 37 36 31 33 30 26 22 24 25 22 23 22 21 24 28 34 38 40 39 40 34 30 26 25 34 27 26 22 27 24 22 19 16 14 14 14
41 40 40 39 41 41 41 42 42 40 40 41 36 31 31 27 26 26 24 25 22 19 26 23 30 38 42 39 42 35 30 28 28 31 22 26 27 23 22 22 23 18 15 15 16
45 46 44 43 44 48 46 46 46 47 49 45 41 34 31 30 30 29 27 26 26 27 26 25 27 34 40 42 45 38 31 32 31 31 37 31 30 26 28 22 26 22 20 17 17
51 49 50 48 47 45 48 50 51 53 49 49 45 40 36 37 35 34 32 31 30 29 30 26 28 29 37 45 46 46 41 37 38 40 40 30 37 26 28 26 21 19 21 24 20
55 53 53 51 51 50 49 50 51 53 53 53 48 44 44 37 39 40 38 37 35 35 34 34 34 32 32 39 46 50 47 44 43 36 35 32 37 36 31 24 21 21 21 23 28
60 58 55 55 54 55 53 55 52 50 51 55 51 49 49 45 43 44 45 42 40 36 37 35 38 32 34 36 46 47 54 43 38 33 34 33 32 30 30 33 33 27 21 25 28
69 64 63 61 59 62 64 59 56 54 55 55 55 51 49 49 48 47 49 46 45 43 39 37 32 33 33 37 42 50 43 48 50 45 41 35 32 30 34 38 32 32 25 24 26
83 76 71 57 58 65 67 62 64 62 61 61 60 57 53 43 42 48 49 43 46 44 42 38 39 32 30 40 38 47 55 47 45 48 45 39 35 32 27 26 30 27 23 23 24
76 71 71 55 57 62 64 67 69 70 68 68 66 65 57 44 44 38 48 37 33 43 43 42 39 40 34 33 35 39 42 49 49 51 50 44 38 30 32 27 28 29 23 17 22
74 69 59 64 59 58 63 69 73 76 76 72 75 71 60 59 50 49 49 38 46 48 36 38 43 36 35 30 36 42 43 46 51 43 52 50 47 33 21 26 27 29 35 22 25
68 62 55 60 57 59 65 72 77 78 79 82 81 77 67 64 64 57 54 40 39 52 49 46 36 43 37 36 29 33 37 43 44 55 50 52 44 38 38 31 35 37 38 34 35
53 52 55 55 56 62 70 71 73 79 84 80 80 77 70 65 63 66 60 48 48 49 51 49 48 39 41 32 26 31 34 38 47 47 52 47 46 43 39 38 34 28 34 33 26
40 40 42 43 52 55 49 49 60 69 70 83 74 60 61 48 57 58 49 46 45 41 51 48 49 43 39 30 34 32 32 36 37 45 50 47 50 43 44 37 34 41 46 41 36
34 33 32 30 34 44 51 50 49 54 65 61 57 67 68 53 49 53 48 43 50 42 40 50 44 47 47 36 31 34 38 37 38 39 40 48 56 44 45 46 45 46 41 39 34

GFSSW_500_spd_018.txt.gz
Wind_Speed
9 10 11 12 12 11 11 10 8 7 8 13 14 12 9 6 5 3 8 15 22 21 21 18 15 12 12 12 9 18 14 6 15 9 17 11 8 9 9 10 9 7 7 3 7
11 11 12 12 12 11 11 10 10 9 7 7 13 15 14 10 7 4 3 10 20 21 22 21 17 13 14 17 9 5 14 12 18 13 18 7 12 11 8 6 10 13 10 8 7
12 13 12 13 13 13 13 13 12 10 9 8 8 13 17 15 9 2 7 8 12 20 22 23 21 18 16 17 12 9 8 9 5 14 13 14 14 11 9 7 7 4 9 9 7
12 13 14 12 11 12 13 14 13 12 11 9 8 9 12 18 13 9 9 7 11 18 23 21 22 20 17 18 14 12 2 8 13 9 18 13 14 9 5 7 7 6 8 9 8
14 14 14 14 14 12 12 14 15 14 13 12 9 9 9 10 19 14 12 11 11 17 20 23 23 23 18 19 12 11 7 6 11 13 10 3 18 14 8 10 7 8 7 7 9
16 17 16 16 14 13 13 15 16 15 14 13 12 9 8 8 10 19 16 15 13 15 22 22 26 23 23 24 16 8 11 11 8 9 11 13 17 16 10 12 9 8 6 7 9
21 18 18 17 17 16 15 14 13 14 14 12 12 12 9 9 8 12 18 19 17 15 21 24 29 29 24 24 21 18 16 16 10 10 15 14 21 19 11 10 9 6 4 5 8
19 20 20 19 19 18 18 17 15 14 13 13 14 13 13 12 10 10 11 21 22 20 20 27 32 27 25 23 23 17 17 14 11 14 15 7 17 15 9 6 6 6 3 5 7
20 19 18 18 21 21 20 19 18 18 16 14 15 15 17 15 12 11 12 13 24 25 23 25 31 28 31 26 26 21 17 16 16 16 16 13 29 18 10 4 5 6 5 5 7
22 21 20 20 21 21 21 21 21 20 21 21 17 16 15 16 12 12 11 13 16 27 28 26 28 30 31 31 25 17 18 16 22 18 16 21 23 28 15 10 8 6 7 7 7
23 25 26 24 24 23 25 24 23 23 23 24 21 19 16 16 13 14 13 13 15 19 30 30 31 27 27 25 22 17 15 13 28 24 18 22 27 33 2 10 13 10 8 7 8
24 26 28 28 27 27 27 28 27 27 24 28 26 20 20 18 14 17 16 14 15 15 22 33 32 26 29 29 27 23 24 23 22 26 18 20 20 23 15 16 17 14 12 11 10
30 28 30 31 28 30 31 31 32 33 30 25 30 26 26 23 17 19 18 17 14 18 19 23 24 30 32 35 31 30 30 22 19 23 25 18 18 20 26 24 20 17 14 12 12
33 33 32 36 36 36 36 34 35 36 36 29 34 30 27 27 22 23 21 20 21 17 19 19 23 33 36 36 33 32 29 25 21 27 30 28 28 23 21 25 19 20 16 15 14
40 41 40 39 40 39 37 37 37 38 41 40 37 36 33 33 29 26 24 25 22 19 23 18 21 28 35 38 34 31 27 30 26 26 32 27 31 26 29 35 25 20 17 18 17
49 46 45 47 46 50 45 45 42 42 43 39 43 39 37 34 31 34 28 28 25 28 27 22 22 25 28 36 39 34 32 30 32 30 36 28 33 26 30 34 31 33 24 19 20
53 54 55 51 50 48 48 50 50 50 44 43 42 41 40 39 38 39 32 33 32 30 29 22 23 23 25 34 36 41 35 36 37 40 39 28 36 31 28 33 35 36 23 24 23
61 61 57 54 51 52 48 50 55 49 48 47 40 43 43 42 41 40 42 39 38 36 32 32 31 28 28 28 36 39 40 45 42 41 34 32 39 36 24 38 35 6 11 26 27
65 64 62 61 57 54 54 57 59 49 48 51 46 47 47 47 42 46 47 44 41 39 38 35 37 30 30 31 35 35 43 42 40 33 35 33 32 28 34 37 36 33 25 21 22
77 76 75 71 68 56 62 64 60 55 53 53 55 48 45 39 42 38 47 48 47 44 38 36 34 36 31 32 35 39 32 41 47 46 45 38 35 36 30 39 30 33 28 26 30
82 80 68 72 64 62 63 61 55 55 60 64 64 62 59 40 39 40 42 40 48 48 44 41 40 34 31 43 37 40 44 45 38 49 50 44 41 31 29 32 37 42 34 28 35
84 81 68 71 63 61 63 56 56 55 65 71 71 67 66 62 47 45 45 44 35 38 44 45 44 46 41 33 32 38 40 43 51 48 52 48 43 23 31 31 34 41 33 35 43
79 78 60 67 77 65 56 55 59 61 69 73 74 76 71 66 66 60 47 40 40 39 40 37 46 44 46 39 35 42 41 41 45 51 46 51 52 36 37 34 17 27 19 19 24
68 64 59 56 61 63 60 55 60 66 73 76 73 76 77 75 69 68 60 52 39 43 42 43 43 49 52 49 37 37 41 40 41 46 55 49 47 48 41 42 34 32 28 37 36
53 54 53 58 53 45 49 59 63 69 77 76 85 82 84 83 78 73 66 57 47 47 50 55 57 44 46 39 31 34 34 39 42 45 49 53 43 40 50 34 31 35 26 32 40
39 43 42 43 44 44 51 46 47 64 62 76 76 77 87 87 75 82 78 67 57 46 51 55 58 53 47 39 41 35 34 38 40 42 46 45 49 42 42 51 39 38 41 32 41
25 29 34 29 33 36 41 57 45 53 59 59 70 70 78 82 88 89 87 81 75 61 46 51 60 60 60 47 35 42 46 34 34 34 35 41 49 45 48 45 49 46 33 29 35

GFSSW_500_spd_021.txt.gz
Wind_Speed
8 9 10 10 10 9 8 6 6 7 7 8 12 12 10 6 3 2 7 14 21 16 16 15 14 16 14 10 8 9 11 19 15 10 16 18 16 12 16 12 6 3 6 6 3
10 11 11 11 11 10 10 10 10 7 7 6 8 12 13 10 6 5 1 6 16 20 18 18 17 13 10 10 8 16 14 15 13 15 7 23 20 11 14 12 8 2 8 6 5
11 11 13 13 13 12 11 11 10 9 8 7 7 7 11 13 9 7 6 7 12 16 21 20 21 17 14 13 12 21 19 13 12 8 15 19 17 16 13 13 7 3 5 4 10
11 12 12 13 14 13 12 12 12 11 9 7 8 7 6 9 12 12 10 8 10 13 15 18 19 18 17 15 16 17 9 8 12 17 17 24 21 13 13 12 10 6 11 4 6
13 13 14 14 14 13 13 13 12 12 11 9 7 7 6 4 10 15 13 12 10 12 15 18 19 20 18 19 17 18 9 8 6 14 20 21 15 11 20 14 9 8 9 8 5
14 15 15 15 14 13 13 14 13 11 11 8 7 5 6 5 6 12 16 14 13 11 17 18 19 21 24 23 20 19 13 6 5 13 20 26 18 17 17 18 8 9 6 7 6
14 13 11 11 12 14 14 14 13 12 11 9 8 5 5 5 5 9 10 18 17 14 15 18 23 31 27 25 20 20 19 14 13 15 16 25 17 10 23 20 10 6 5 3 4
17 15 12 12 11 13 14 14 14 14 12 12 10 8 11 9 5 7 10 14 21 19 17 19 25 25 29 23 26 21 23 22 15 10 17 24 19 13 24 17 10 4 4 0 4
17 16 15 14 15 15 15 16 15 15 15 14 12 12 14 10 11 7 9 11 19 24 23 21 23 24 27 27 25 24 18 17 12 20 15 15 14 15 23 20 13 5 3 2 5
21 21 20 18 19 20 19 19 17 16 16 18 13 14 13 13 11 10 9 9 13 22 28 26 23 24 24 25 21 19 18 16 13 14 18 18 13 14 19 26 24 8 3 3 5
23 25 25 25 24 23 26 25 22 21 18 19 16 15 17 13 12 13 12 11 11 15 20 28 29 22 19 17 15 20 21 16 10 19 27 22 17 13 18 13 13 9 3 3 6
24 24 26 28 24 26 26 26 25 27 22 24 23 14 20 18 16 15 16 13 13 13 17 21 22 25 23 24 21 23 18 20 16 28 31 21 16 19 13 16 23 9 2 5 5
30 27 26 30 29 29 29 27 30 30 26 20 29 25 23 22 18 18 19 16 15 15 16 16 12 24 28 29 26 25 24 20 26 24 32 26 18 17 15 18 12 9 4 6 8
39 37 35 35 36 34 36 31 37 35 38 24 31 29 26 27 21 20 22 20 21 17 19 19 19 24 29 32 30 27 22 23 27 19 24 23 20 21 22 19 13 9 10 6 8
44 46 42 42 42 42 41 37 37 37 46 34 34 30 28 29 25 25 26 26 21 21 26 14 22 22 24 29 33 23 27 29 31 25 27 24 32 27 24 28 20 18 18 11 8
47 48 45 47 44 49 46 43 43 44 47 39 41 35 31 29 27 28 30 31 27 29 31 21 23 25 21 26 33 27 31 34 37 28 32 30 28 30 32 24 23 23 16 24 10
53 53 54 49 51 50 51 50 50 52 49 45 43 44 42 36 32 36 36 35 34 32 31 25 27 26 26 26 30 33 37 40 47 46 44 34 37 29 16 25 30 26 29 31 28
59 58 59 60 55 56 55 56 58 56 50 45 40 48 47 44 42 38 41 40 36 38 32 33 34 27 24 28 29 30 38 45 49 48 48 39 45 31 20 15 27 29 36 28 38
63 65 65 65 66 65 61 62 61 55 53 54 54 53 51 49 47 42 42 43 38 36 39 36 35 27 31 27 30 33 36 31 44 45 48 47 43 24 26 22 27 31 32 33 22
71 66 64 66 68 69 70 70 65 58 58 58 59 56 56 56 50 43 41 42 43 40 38 39 40 36 33 32 35 36 31 35 38 47 52 44 48 37 23 26 33 34 33 34 41
75 73 62 67 69 70 68 67 63 61 62 67 66 65 62 62 62 56 54 42 41 42 39 41 44 41 40 43 39 38 40 43 39 42 45 46 47 36 29 22 36 37 32 35 33
83 80 66 67 69 71 68 64 63 63 62 65 69 72 70 69 68 69 65 58 31 32 38 41 42 48 47 44 39 37 40 42 49 42 47 48 40 33 31 23 36 26 27 29 34
87 82 60 63 70 66 65 65 64 65 68 72 75 79 75 73 75 73 70 62 47 50 47 38 48 46 50 49 48 47 40 42 43 44 48 46 38 35 39 31 33 43 34 30 31
76 69 54 53 61 64 63 71 71 73 77 80 81 84 85 83 80 78 77 68 59 59 54 50 51 57 58 55 49 50 45 42 43 48 44 49 42 30 46 43 36 31 36 35 21
49 50 47 44 48 57 59 64 66 71 75 77 83 89 89 91 90 85 84 81 72 68 68 64 58 58 58 48 51 52 43 43 46 45 48 39 46 41 48 49 40 37 52 28 33
26 32 33 31 32 42 46 49 55 60 62 76 77 73 83 90 93 91 90 85 82 77 74 69 66 56 56 55 48 55 50 46 43 39 42 41 42 46 43 38 31 44 41 36 33
19 19 19 21 25 28 36 46 50 52 53 53 63 77 64 73 92 92 94 92 88 80 68 65 69 58 66 59 50 49 61 52 41 38 36 42 39 37 53 49 34 25 32 42 37

GFSSW_500_spd_024.txt.gz
Wind_Speed
7 8 8 8 7 5 5 7 8 7 8 6 4 10 9 7 5 5 12 19 23 21 17 14 11 10 15 10 6 6 21 16 9 10 8 12 15 14 13 2 5 2 3 6 7
9 9 8 9 8 7 6 5 5 6 6 6 6 4 10 10 9 9 2 7 16 23 20 17 16 11 18 14 10 17 17 15 16 15 22 20 13 17 17 10 3 4 6 8 9
9 8 9 9 9 9 7 6 6 6 6 6 5 5 4 11 13 10 10 10 14 21 26 24 21 14 19 19 17 15 19 20 21 20 25 25 22 12 24 11 8 6 3 6 8
10 10 9 10 10 10 8 8 7 6 5 5 5 4 6 7 14 15 13 12 13 18 24 25 22 16 12 21 11 13 20 19 16 15 22 24 24 16 14 5 5 6 7 7 7
11 12 12 13 11 11 10 10 9 8 6 5 4 3 2 8 8 15 16 15 12 14 17 23 23 20 12 20 18 13 14 18 4 3 18 21 22 22 12 16 9 9 6 5 8
12 12 12 11 10 10 9 10 10 9 6 4 3 3 3 1 7 8 16 16 16 13 17 20 16 19 23 19 21 16 12 16 5 4 18 19 16 25 14 11 11 11 7 4 8
16 15 13 13 11 11 11 11 8 8 7 7 5 4 6 3 4 6 9 18 18 17 14 17 24 28 23 22 22 25 17 18 18 14 12 20 14 17 13 19 12 11 7 6 5
20 19 18 16 14 12 11 12 11 9 8 6 5 7 8 5 7 8 7 11 20 20 19 20 25 23 28 23 25 22 18 13 18 17 13 23 14 16 14 10 17 17 11 6 5
20 20 20 17 16 16 15 16 13 12 11 9 7 10 12 8 10 9 12 11 13 22 24 22 23 24 25 28 29 24 20 17 21 9 10 19 14 18 10 10 11 12 18 9 3
23 23 22 21 20 20 22 21 19 17 14 13 8 10 13 12 9 8 12 12 14 18 25 27 24 24 23 25 17 18 14 17 19 18 18 16 15 19 14 18 16 6 8 6 2
26 25 25 27 25 24 28 26 24 23 20 18 14 12 15 14 13 10 11 14 14 14 17 23 26 24 20 17 15 22 20 17 21 20 16 15 21 10 15 10 7 9 5 3 1
32 30 28 30 29 28 30 28 27 28 23 23 22 16 21 18 15 17 13 12 14 13 17 19 15 21 24 22 20 23 25 24 24 21 19 20 23 20 12 12 7 2 6 6 5
37 36 34 34 33 32 30 30 32 33 28 17 25 22 23 27 18 16 18 15 14 18 18 16 10 20 26 26 24 25 26 22 27 26 22 19 27 29 20 17 8 4 1 6 5
40 39 39 40 41 40 39 33 36 36 37 26 31 28 27 26 20 21 18 20 21 17 21 17 19 22 24 29 29 27 21 25 31 26 25 31 38 29 23 18 8 6 2 4 6
45 44 43 40 43 45 46 44 43 41 47 34 37 33 29 30 24 24 28 25 22 21 22 13 21 22 23 21 28 21 29 30 31 32 29 31 32 23 30 20 10 14 6 5 5
51 49 48 46 44 47 47 47 47 48 54 42 40 35 31 30 28 29 29 31 31 31 28 22 25 25 21 24 27 24 34 36 36 35 46 38 36 24 32 21 10 13 12 13 8
56 56 56 53 54 49 51 51 51 52 51 47 51 45 42 42 40 39 36 35 34 33 31 26 27 26 26 26 29 29 37 41 46 51 49 39 41 27 25 26 16 16 13 15 12
59 60 61 61 59 58 56 56 56 54 54 57 54 52 47 45 44 45 43 41 37 37 34 35 33 27 25 26 27 32 36 45 51 52 47 43 49 30 19 17 10 9 15 12 16
65 64 65 68 66 64 64 64 62 60 61 59 56 56 55 53 50 50 51 47 42 39 38 38 38 28 33 28 31 31 41 36 45 47 51 45 49 39 25 24 16 16 25 21 16
66 68 66 70 70 69 70 68 67 67 69 67 63 61 61 60 58 54 54 53 48 40 38 40 42 35 35 36 39 38 32 38 42 46 52 47 50 43 35 27 24 18 21 23 22
69 66 65 69 72 75 73 71 67 64 70 71 72 69 66 64 65 62 57 56 55 47 40 43 47 38 41 49 41 40 41 42 41 41 41 38 38 39 35 31 26 28 25 24 23
79 76 69 71 70 71 71 71 72 71 69 75 77 75 73 72 71 71 65 60 60 59 59 55 48 50 50 45 45 47 43 43 45 42 40 36 34 22 36 39 32 27 26 22 25
80 73 67 69 69 69 72 75 77 78 77 76 79 81 81 80 77 77 73 68 67 66 67 62 61 57 55 55 55 57 49 47 44 43 45 45 36 23 29 43 44 36 30 25 27
63 56 50 52 60 64 67 74 79 81 82 83 82 84 85 84 82 83 82 77 73 69 72 68 68 67 63 57 55 56 54 54 51 52 47 47 40 26 28 45 46 41 40 35 36
35 32 27 27 37 49 56 63 70 74 80 85 85 86 88 90 89 89 87 84 80 76 74 73 73 75 71 65 55 56 56 55 56 53 55 42 44 33 27 46 47 39 34 31 28
24 20 16 10 22 36 40 42 51 56 65 70 79 80 87 88 90 89 92 89 85 79 73 73 77 77 78 73 66 57 60 59 56 53 53 50 45 36 34 41 52 44 42 29 36
19 15 12 9 11 23 33 40 39 33 43 52 60 71 77 82 86 89 92 98 90 83 81 76 79 79 77 73 66 52 67 65 61 57 54 55 43 36 38 35 53 59 48 37 31

GFSSW_500_spd_027.txt.gz
Wind_Speed
7 8 8 8 9 9 10 9 7 7 7 6 6 7 12 12 10 10 16 20 20 14 12 9 9 17 14 8 13 5 8 12 13 13 15 17 18 22 14 8 6 5 5 6 11
10 9 9 9 8 8 8 8 8 7 6 6 6 7 9 14 14 14 6 9 14 17 14 14 10 21 16 8 13 19 14 13 11 14 20 21 19 25 21 10 7 3 4 6 7
12 11 10 9 9 9 8 8 8 7 6 6 5 7 10 12 17 16 14 14 12 16 20 21 15 17 20 12 15 20 14 11 9 9 18 19 16 18 18 20 14 5 1 8 9
13 13 13 12 11 11 10 8 7 8 8 7 6 6 10 11 14 20 17 15 13 17 17 20 16 13 20 16 18 20 17 10 7 3 11 13 18 12 12 13 10 6 3 2 8
15 15 15 16 15 14 12 10 8 7 6 7 7 7 9 10 9 16 21 19 15 13 13 13 14 15 18 22 21 20 16 7 5 5 3 7 14 13 11 14 13 6 4 2 5
18 17 17 17 16 15 14 12 10 8 7 5 6 8 10 4 7 9 15 19 18 15 14 14 14 17 26 28 23 23 20 11 9 11 6 1 13 16 12 9 19 14 6 3 2
22 21 20 20 18 17 16 15 13 10 8 6 5 8 12 6 7 8 9 16 19 18 16 15 22 23 23 24 28 20 15 14 12 9 2 6 15 18 13 12 12 18 10 7 2
23 23 23 21 21 20 17 14 12 13 13 11 9 9 10 7 13 10 9 11 18 21 19 20 25 24 26 25 28 24 19 18 13 10 6 5 13 16 13 13 13 15 9 9 2
23 23 25 24 24 23 21 17 15 14 14 13 13 13 15 10 12 10 14 14 15 20 25 25 24 25 26 27 28 27 18 16 14 15 11 4 10 12 14 15 15 8 5 7 3
27 27 27 27 27 26 27 22 20 19 17 15 14 16 19 13 13 13 17 13 17 19 23 27 26 24 24 24 13 18 17 17 18 18 17 10 5 8 10 10 7 8 6 6 5
34 34 34 32 30 28 31 30 28 26 23 22 18 19 20 20 16 16 18 15 16 16 17 21 26 24 21 20 20 16 21 22 23 23 15 13 9 8 5 11 3 2 6 6 7
41 40 39 39 37 34 32 31 32 31 26 27 25 20 25 23 18 19 18 15 14 15 20 20 12 18 25 24 25 25 24 24 26 26 22 22 15 8 6 7 9 7 5 4 8
44 46 44 45 44 43 41 38 36 35 32 24 30 26 26 30 20 22 19 20 18 20 19 18 13 18 24 26 25 27 26 26 26 30 31 28 22 11 9 12 9 9 8 4 5
50 49 46 45 45 47 47 46 44 43 39 28 34 33 32 30 25 26 23 21 23 21 21 21 20 21 22 26 28 31 24 31 32 35 37 32 28 22 11 10 9 15 13 7 4
53 54 52 51 50 48 48 47 47 48 48 39 37 36 37 35 30 26 26 29 29 24 25 15 20 22 23 15 24 20 31 31 35 41 40 36 36 30 21 16 17 15 12 7 6
54 56 57 56 55 53 53 50 50 49 54 48 45 45 40 38 37 34 36 36 33 33 28 25 27 27 23 22 23 21 33 35 39 43 49 34 37 26 21 13 17 18 10 8 8
53 56 60 59 59 59 58 59 57 55 53 52 52 50 47 41 40 41 41 39 37 36 30 29 29 28 26 26 28 30 39 44 49 52 42 36 41 19 25 18 15 16 12 12 12
60 61 61 61 61 62 62 64 64 61 59 57 56 53 50 51 50 47 45 44 42 38 35 38 38 33 29 27 27 29 35 47 50 50 41 38 38 19 24 22 25 22 16 12 17
67 62 64 65 66 64 68 68 67 66 65 61 59 58 55 53 55 54 54 51 48 44 41 40 39 33 35 32 34 31 40 32 45 47 49 44 33 27 30 30 26 26 26 17 11
65 67 65 66 68 71 71 71 71 72 70 67 63 64 62 61 59 59 57 57 54 52 47 46 43 37 35 40 43 41 30 38 44 49 48 42 34 28 28 30 26 30 25 21 16
76 73 71 70 69 69 71 72 73 74 76 73 71 69 68 68 66 63 62 64 60 57 55 53 53 44 45 51 44 42 43 42 44 47 46 38 30 27 27 29 32 29 25 24 21
77 75 76 73 69 71 72 74 77 78 81 82 82 78 75 74 73 71 68 70 66 64 63 60 59 54 53 48 44 48 47 47 48 40 37 36 39 22 24 31 33 35 33 30 25
55 56 62 61 57 62 67 71 76 79 81 86 87 86 85 80 78 78 77 74 72 69 70 66 64 60 58 56 57 60 55 50 45 43 46 43 35 20 19 23 35 41 38 36 30
46 42 38 37 37 48 57 66 72 77 79 83 87 89 89 88 86 85 83 80 77 75 75 73 70 67 63 61 58 60 60 56 51 55 47 45 36 24 23 27 29 39 42 39 35
35 30 25 17 23 31 44 54 62 65 69 74 80 87 88 88 87 89 90 87 82 82 81 79 77 75 70 66 66 63 62 58 59 56 54 40 42 35 25 28 31 32 47 47 43
30 26 20 16 14 18 28 35 41 49 56 59 67 79 86 87 88 85 90 92 89 86 84 84 82 80 78 73 69 71 67 60 58 57 55 48 48 38 29 33 37 38 47 45 48
26 23 19 15 18 14 16 25 31 29 30 38 49 58 72 80 81 85 88 92 93 88 86 85 86 84 83 79 76 74 69 67 64 61 57 56 46 42 37 38 40 41 39 43 49

GFSSW_500_spd_030.txt.gz
Wind_Speed
10 11 11 10 10 10 10 9 9 9 9 7 8 8 13 14 12 11 17 15 12 13 10 8 9 14 12 9 14 12 14 14 16 15 19 19 17 16 15 13 8 9 10 9 13
15 14 14 13 12 11 11 10 9 9 9 10 6 9 9 14 17 16 11 9 10 10 12 11 10 15 14 12 14 10 16 13 13 14 14 20 17 15 14 16 9 7 6 8 7
18 18 17 16 15 14 13 13 11 10 10 10 10 10 10 10 17 19 15 12 11 15 17 19 14 16 19 12 15 16 17 13 13 13 13 14 19 16 15 17 14 6 2 7 9
18 18 19 19 18 18 16 15 14 11 11 12 11 12 14 11 12 18 19 17 15 15 16 15 14 13 20 16 19 17 13 15 14 15 12 9 11 18 19 20 19 10 2 2 8
22 21 21 20 21 21 20 18 16 14 12 11 12 12 16 13 9 14 19 20 18 14 11 9 13 17 20 22 21 21 17 16 10 8 11 12 9 15 20 18 20 16 8 2 4
25 25 24 23 23 22 21 19 17 16 14 13 11 11 16 13 10 8 12 20 20 18 14 11 14 23 24 27 22 25 23 17 5 9 8 15 15 13 20 17 15 15 16 8 2
24 24 25 25 25 25 24 21 20 18 16 14 12 13 17 9 11 9 11 13 20 19 17 13 20 25 26 25 27 25 19 16 9 3 10 12 14 12 15 18 15 10 8 6 1
29 28 27 26 24 26 28 24 22 20 18 17 16 16 19 8 16 13 7 10 15 21 20 20 23 26 30 28 29 26 22 15 9 7 11 13 13 15 13 16 17 8 6 4 4
33 31 30 28 26 25 27 27 24 22 19 18 18 20 22 13 15 15 14 14 13 15 23 25 22 23 30 28 31 29 22 17 16 12 8 12 15 17 16 15 15 12 7 2 6
35 34 34 33 30 30 29 30 29 26 23 20 19 21 24 20 19 19 18 16 16 19 18 20 24 23 24 26 13 24 21 20 18 15 7 13 15 19 18 14 11 7 7 3 4
40 39 39 39 36 35 35 32 33 32 27 27 23 24 24 24 22 22 22 17 17 17 14 16 20 17 19 19 20 22 24 27 20 18 10 11 17 19 17 14 11 3 4 4 4
45 44 44 45 44 41 39 39 37 37 31 30 31 26 30 29 25 23 23 20 16 14 20 17 4 11 22 24 22 25 24 26 24 23 16 15 20 14 14 12 10 9 4 6 6
49 49 48 49 49 48 46 45 44 43 39 30 32 32 33 35 28 28 26 24 21 21 19 18 12 16 21 24 24 24 24 26 24 27 23 19 20 16 14 9 11 13 12 10 11
53 52 51 51 53 52 51 50 49 49 46 40 37 39 37 37 33 30 28 28 26 21 23 21 20 20 19 22 23 24 21 29 30 31 33 29 25 22 18 15 16 17 17 14 13
56 57 56 53 53 57 57 55 52 51 51 49 44 44 42 42 36 34 30 34 29 25 29 20 19 20 19 11 22 19 26 28 32 36 35 36 31 26 26 20 21 20 20 18 14
52 54 55 58 57 56 59 60 59 57 57 54 50 46 45 42 40 39 40 37 33 37 35 30 27 28 23 23 22 23 31 34 37 41 45 32 32 27 25 17 21 25 20 19 18
59 61 59 59 58 59 58 60 62 63 59 58 57 53 49 46 44 40 42 41 39 38 35 30 30 29 27 27 26 29 37 42 47 47 36 33 37 16 18 20 23 20 18 14 14
64 65 65 63 63 62 63 64 64 65 64 64 63 60 51 51 50 46 45 44 44 44 38 36 37 32 29 25 25 28 36 43 42 38 33 39 24 11 19 22 28 30 25 25 22
70 69 66 66 66 67 68 67 68 67 68 66 65 66 63 56 52 49 52 47 44 45 43 44 43 37 37 33 32 33 35 31 41 41 41 37 23 26 21 25 30 29 22 26 24
78 77 75 72 69 69 69 71 70 72 72 71 68 68 69 63 59 57 55 55 54 50 49 49 46 41 36 41 42 40 31 38 43 44 39 34 26 19 18 20 27 27 25 26 23
67 70 72 72 71 70 70 71 72 76 76 76 74 71 70 69 64 63 62 60 58 58 57 54 53 48 46 49 42 40 42 42 43 43 39 36 24 20 15 18 28 30 24 26 31
48 52 55 57 62 61 63 67 71 72 80 81 81 79 75 73 72 68 67 67 65 63 62 59 60 55 54 49 45 45 45 46 47 38 35 34 23 18 11 16 25 30 30 30 27
42 42 42 42 44 45 48 52 63 68 73 80 84 85 82 79 76 73 72 71 70 68 67 65 64 59 57 55 56 57 52 50 47 45 46 42 25 23 13 14 24 34 37 34 34
42 36 30 29 30 26 28 40 53 62 67 75 82 85 87 86 83 80 76 76 74 74 72 69 69 66 64 58 60 59 57 56 53 54 46 46 31 23 24 19 21 28 39 42 39
36 32 25 24 25 23 18 25 39 49 54 58 70 80 83 85 86 85 81 79 78 78 77 75 73 71 69 65 63 61 61 60 59 55 53 42 39 30 25 25 26 28 30 38 40
34 30 23 21 21 21 23 22 18 29 38 43 41 59 76 78 83 83 85 85 83 81 81 80 78 76 73 71 67 65 62 62 61 59 58 48 47 39 31 28 31 32 34 32 31
31 27 24 18 18 20 21 20 19 17 22 30 49 43 56 72 79 81 85 86 87 86 86 86 84 81 79 76 74 72 64 64 65 63 58 53 46 41 35 33 35 38 38 36 33

GFSSW_500_spd_033.txt.gz
Wind_Speed
14 14 15 15 14 13 12 11 11 10 9 8 6 8 10 12 13 11 15 13 9 12 12 12 12 14 15 10 15 16 15 9 7 5 10 14 16 14 12 12 12 13 15 12 12
18 18 18 17 16 15 14 13 12 12 12 10 9 8 9 11 14 16 12 13 12 12 13 12 12 14 17 16 18 16 12 12 10 8 8 12 13 14 14 14 12 10 11 14 11
20 20 20 20 19 18 17 15 14 14 15 14 13 12 10 11 13 17 16 12 13 19 22 19 15 12 15 17 21 20 17 12 10 8 7 7 13 16 18 16 12 11 11 12 12
22 22 22 22 22 21 20 19 17 17 16 16 15 15 16 10 13 14 18 17 17 16 18 21 17 12 15 15 18 21 22 15 14 10 8 6 5 15 18 16 13 10 8 11 13
24 24 23 23 24 24 23 21 20 20 20 17 16 17 18 14 8 16 16 18 20 16 11 13 20 19 19 21 17 20 23 22 14 9 10 8 6 10 18 18 14 11 10 6 13
25 23 23 23 24 25 25 22 22 22 21 20 18 17 20 15 9 12 13 16 20 19 15 12 18 25 24 24 21 23 23 23 10 4 11 9 9 9 12 13 13 9 10 7 9
27 26 26 25 24 25 25 24 24 23 22 21 20 19 21 13 11 15 12 15 14 21 20 18 21 28 27 26 25 27 23 19 10 4 14 14 11 9 6 7 9 8 6 8 10
30 31 32 31 29 27 25 25 24 24 25 24 23 21 24 14 13 18 9 11 15 17 22 23 23 29 32 28 29 28 22 16 13 6 11 16 15 13 9 7 8 7 6 8 12
35 35 34 32 31 31 28 27 25 24 25 25 25 25 26 22 16 20 16 18 15 14 17 23 25 23 27 28 27 26 22 20 17 12 13 17 16 12 10 11 10 8 7 7 12
40 39 39 39 36 34 34 32 29 27 25 26 25 26 27 27 21 21 21 18 18 19 17 16 21 24 22 22 19 16 21 23 20 15 14 18 21 19 17 15 14 10 8 7 9
43 43 44 43 42 39 39 37 36 33 29 29 27 29 27 27 26 24 27 22 21 18 14 15 17 13 22 23 24 20 26 28 25 22 17 21 22 21 19 17 16 11 8 7 8
49 49 47 48 48 46 43 44 42 40 35 32 32 29 32 31 31 28 27 24 20 17 19 17 5 11 20 26 26 28 23 28 30 26 23 25 25 24 19 15 18 19 14 8 10
52 51 50 51 52 52 51 49 47 46 44 37 35 33 36 37 36 32 31 29 25 24 19 16 16 20 22 27 28 27 27 26 30 33 28 29 31 29 23 22 14 14 20 19 15
51 52 53 50 53 56 55 54 53 51 50 46 42 41 40 41 38 36 36 34 31 24 25 23 21 23 23 21 26 29 26 30 34 35 32 29 33 36 29 23 16 16 19 21 18
55 54 52 51 49 53 57 58 56 56 53 54 50 47 43 45 40 38 36 39 35 29 31 19 20 20 21 14 22 23 29 32 33 37 37 31 33 36 32 26 19 18 22 20 21
60 59 59 57 56 54 54 57 60 58 60 58 54 50 46 45 46 43 43 42 39 37 37 33 31 31 22 26 24 27 35 35 37 38 43 31 31 39 33 23 22 23 24 23 21
69 66 63 60 60 60 60 59 60 62 62 60 60 57 51 48 46 45 47 47 45 42 42 38 36 30 31 30 30 32 38 42 42 43 32 31 38 26 33 26 25 23 25 25 23
75 73 71 68 66 64 62 64 65 65 65 65 62 60 54 53 51 46 46 48 48 47 46 40 42 35 31 27 27 29 35 37 36 33 37 32 19 17 28 30 29 26 26 24 26
69 71 76 73 72 68 66 64 67 70 68 65 65 63 59 56 52 51 51 48 46 45 47 46 45 40 36 31 32 31 35 27 39 36 35 25 18 14 20 26 29 30 29 28 26
48 44 48 54 62 68 67 66 67 69 71 72 69 68 64 61 58 55 53 55 53 53 50 49 50 46 41 40 41 37 32 37 39 39 34 26 18 12 16 20 27 36 31 28 26
46 45 43 40 37 48 56 58 60 68 70 74 75 73 71 66 61 59 61 60 57 55 55 52 53 50 49 49 45 42 42 40 37 38 34 27 17 11 12 20 25 31 32 31 26
43 43 41 41 39 30 35 45 50 60 69 71 77 78 75 72 67 63 64 66 64 60 57 58 56 53 52 50 46 45 44 44 44 37 32 31 27 17 13 19 29 35 37 31 30
41 39 39 36 31 21 20 24 35 47 59 69 74 78 78 74 70 69 66 68 67 66 63 61 62 57 54 55 53 52 51 48 45 43 44 38 28 18 13 21 26 36 42 40 28
43 35 34 32 29 20 16 16 18 35 48 59 69 74 76 77 74 74 72 72 71 69 69 67 65 62 60 58 57 56 54 50 49 52 42 38 30 20 23 21 22 31 37 40 38
45 35 31 28 27 21 16 15 13 14 28 44 47 63 68 74 76 76 76 76 75 74 73 72 70 68 65 65 64 62 59 58 56 50 49 37 34 30 27 26 24 26 36 38 41
45 42 31 26 26 22 19 15 14 12 11 20 36 30 39 68 74 75 79 79 79 78 77 76 75 74 71 70 68 66 64 62 58 54 53 44 39 33 29 31 29 31 37 41 43
50 47 36 28 24 24 21 18 15 11 9 6 24 38 26 33 60 76 78 82 82 82 81 80 79 77 75 73 72 71 64 63 60 57 55 50 43 38 33 32 31 32 34 33 36

GFSSW_500_spd_036.txt.gz
Wind_Speed
18 18 18 18 17 16 15 14 13 11 10 10 10 8 8 10 14 16 17 13 11 11 12 11 13 16 16 15 19 18 13 10 7 7 8 7 8 11 14 14 15 15 15 14 14
18 20 20 20 20 19 18 16 16 16 13 11 11 12 8 9 13 16 15 15 13 15 14 14 14 17 18 14 20 20 17 13 11 8 8 10 9 10 13 15 16 15 18 15 12
20 21 21 21 21 20 20 19 19 18 17 15 15 14 13 10 11 14 18 15 15 20 21 20 17 15 20 17 19 19 18 16 12 9 8 10 12 12 15 16 15 16 16 18 14
22 22 22 23 22 22 22 21 22 22 19 18 18 18 16 13 11 12 16 20 17 19 24 23 20 13 13 20 21 20 17 14 13 12 11 9 9 14 16 15 16 16 18 18 18
25 24 24 23 23 23 23 23 23 23 23 20 20 20 18 18 10 13 16 18 22 20 18 24 24 19 16 20 25 20 20 17 13 12 12 10 9 11 15 17 17 16 16 17 17
25 25 25 23 21 21 23 23 25 25 23 21 21 22 21 20 14 16 13 15 20 24 21 19 25 28 25 26 23 23 24 21 17 11 11 10 9 10 11 13 13 13 13 15 18
29 28 27 27 29 27 26 25 26 26 24 23 22 22 23 20 16 17 16 16 17 24 26 24 26 29 31 28 28 24 24 26 21 11 13 13 11 10 8 7 8 9 10 13 17
33 33 33 31 29 28 27 28 27 27 26 25 25 24 24 24 21 19 21 14 16 18 28 28 27 30 33 31 29 28 25 25 25 12 17 14 11 10 8 7 8 7 7 12 16
38 38 38 37 36 34 32 30 29 29 27 26 26 26 26 28 24 22 23 20 20 16 18 28 28 26 27 31 30 28 26 27 26 15 17 17 15 15 12 10 9 7 7 11 16
42 44 45 43 41 40 38 36 34 32 32 29 28 29 27 27 29 25 26 23 23 20 19 20 27 28 25 24 25 25 28 29 28 19 17 22 19 17 16 16 15 13 12 13 17
42 44 47 48 48 45 44 42 40 39 36 35 30 31 29 28 31 30 28 28 25 22 19 16 19 18 23 24 24 26 26 28 29 27 23 22 23 22 24 19 17 15 14 14 16
44 43 44 46 50 51 50 49 47 45 41 39 38 33 32 32 33 33 32 31 26 20 22 20 10 17 24 30 26 26 23 27 32 32 26 25 25 25 25 18 21 18 17 19 18
49 48 50 50 49 49 51 52 53 50 49 43 43 39 39 37 36 35 34 31 30 31 24 19 21 23 26 30 32 27 28 28 33 35 31 28 25 30 27 25 21 21 20 19 21
56 55 54 53 54 54 53 51 53 55 55 50 48 47 45 44 41 39 37 37 35 31 27 28 28 29 28 30 32 32 29 34 37 40 35 32 30 25 31 29 26 20 18 19 20
64 64 64 61 57 58 59 56 53 53 55 59 51 51 49 50 45 44 39 43 39 35 35 26 27 24 25 18 27 26 35 36 37 39 39 39 37 34 37 37 27 21 21 20 21
80 77 72 68 66 61 60 63 60 56 59 60 56 52 49 52 53 49 46 45 42 40 40 34 33 35 27 31 26 31 38 37 38 39 46 35 37 41 39 35 29 28 24 22 24
72 74 77 78 71 69 65 62 64 65 60 61 61 58 53 52 54 53 51 51 49 45 42 40 40 36 36 36 34 34 40 42 45 47 44 34 37 26 46 36 33 30 25 25 26
57 56 55 54 57 58 62 66 64 67 71 64 60 57 52 55 52 53 52 54 54 49 46 43 44 40 38 35 32 34 37 42 46 41 39 37 35 25 32 40 37 35 28 29 28
60 61 55 50 43 40 42 52 55 70 73 68 65 62 57 54 53 56 51 52 53 53 51 48 45 43 40 37 36 33 39 32 41 42 35 29 27 27 25 39 41 35 31 28 30
54 59 53 41 36 36 34 36 47 61 66 65 62 68 66 62 56 56 57 57 55 54 58 56 52 51 45 42 42 40 31 39 42 43 38 29 25 15 17 35 41 36 31 25 29
52 58 53 39 33 33 29 30 35 48 62 65 66 70 68 63 60 60 64 62 59 60 61 59 55 55 53 49 48 48 46 42 38 35 32 27 20 15 19 28 35 33 33 26 28
49 53 55 39 33 29 30 26 26 37 53 59 66 68 68 67 63 63 65 66 65 63 57 57 58 59 54 52 52 47 44 42 41 33 31 25 18 20 20 26 36 38 36 34 31
47 45 50 46 33 29 29 24 21 24 41 51 57 67 69 68 67 70 70 68 67 66 65 63 59 58 57 57 57 55 49 49 46 38 34 30 27 23 19 23 31 41 41 39 35
46 45 47 44 38 29 24 22 20 20 22 42 48 60 66 65 68 71 73 72 71 70 66 64 64 62 58 47 53 57 56 54 50 45 40 37 33 24 18 22 33 39 44 44 43
43 43 44 43 38 32 25 21 17 17 13 15 27 25 59 63 69 69 76 75 75 73 71 69 66 66 63 64 61 59 58 55 56 47 46 39 35 33 25 24 27 38 43 45 46
43 42 40 40 39 31 24 19 16 15 13 9 19 27 23 51 68 70 76 79 79 77 76 73 72 71 67 64 64 64 61 60 58 50 48 42 38 36 33 28 30 31 37 42 47
42 39 38 40 36 33 22 18 17 13 14 12 13 35 27 30 54 71 75 74 81 80 80 77 76 74 69 66 66 68 64 59 60 55 52 46 43 36 34 28 28 27 32 37 48

GFSSW_500_spd_039.txt.gz
Wind_Speed
19 19 20 20 20 19 19 17 15 13 11 11 10 9 6 8 14 14 15 12 12 14 12 13 15 16 16 13 12 12 13 12 6 10 10 6 9 10 12 13 13 14 11 15 14
20 21 20 20 20 20 20 19 19 17 14 13 12 11 10 8 11 17 14 14 15 16 15 14 17 20 20 15 14 10 13 20 11 10 2 12 6 9 12 13 15 14 14 13 13
22 22 22 22 22 21 21 21 21 20 18 16 15 14 13 11 11 13 17 16 16 18 22 21 20 22 25 20 15 13 16 15 19 11 6 10 6 10 13 15 14 13 14 15 14
23 23 23 22 23 23 23 23 23 21 21 20 20 17 16 15 12 14 16 20 20 20 22 22 19 16 19 21 18 19 15 11 17 8 13 5 6 6 11 16 16 15 16 15 17
23 23 24 23 23 22 22 22 22 23 23 23 24 21 20 17 14 15 18 19 23 22 23 24 23 19 15 21 21 20 20 19 13 11 11 9 12 1 12 16 18 18 17 17 15
27 27 27 26 25 25 25 25 24 23 23 24 25 23 23 20 16 16 18 16 21 26 24 26 27 24 22 23 24 23 22 19 16 16 14 11 7 8 9 14 16 16 17 18 19
33 31 31 30 29 27 28 30 31 29 25 25 26 25 24 26 21 16 19 18 19 24 28 26 27 30 28 26 26 29 24 21 18 16 14 13 12 10 12 10 11 12 14 16 20
38 39 38 36 35 33 32 31 31 31 29 27 27 27 24 27 24 20 20 19 17 21 27 31 30 29 32 32 32 29 28 28 24 17 12 13 8 10 12 10 11 12 11 14 18
38 40 42 41 41 40 38 36 36 35 33 31 30 29 28 27 28 26 23 23 21 21 24 30 33 30 35 35 33 33 28 27 28 24 16 18 11 11 16 14 12 13 12 13 17
37 38 39 40 42 43 44 44 41 40 39 37 33 32 30 29 31 28 27 26 24 25 22 25 33 35 34 30 29 32 29 23 25 27 22 24 16 10 16 16 16 13 12 12 15
42 42 43 42 40 41 41 46 47 47 42 43 39 37 34 32 31 35 30 31 28 27 24 22 29 31 29 26 28 28 26 26 21 22 23 25 18 15 18 21 19 17 15 14 16
49 49 49 49 48 47 47 45 46 50 48 47 46 41 40 36 34 36 34 32 29 25 27 26 18 22 28 31 31 32 31 29 29 30 24 23 27 22 21 23 23 21 17 16 18
57 57 56 53 54 56 53 52 50 49 52 46 50 48 45 43 40 37 37 33 30 32 28 25 22 22 28 33 36 33 28 27 31 26 33 26 25 24 23 27 23 22 19 19 17
69 71 71 70 64 60 61 59 57 54 51 50 49 53 50 49 48 44 38 37 37 33 30 33 30 29 31 34 36 36 30 32 29 31 32 33 28 27 27 26 25 24 21 19 20
77 77 79 83 82 79 68 64 61 57 55 58 53 52 55 54 48 49 41 43 41 36 38 32 34 32 34 27 33 32 35 37 38 34 33 33 32 24 24 26 29 27 24 20 21
49 46 49 55 61 72 74 69 66 59 60 51 58 54 55 55 55 54 50 49 44 42 41 38 35 36 28 30 30 30 39 39 41 42 45 39 35 31 30 25 28 27 24 22 21
50 52 52 51 54 54 51 57 50 55 39 51 66 64 58 56 56 60 57 56 54 51 47 42 40 36 38 38 37 39 39 43 43 46 48 36 39 34 28 29 27 28 27 27 23
48 51 52 48 53 58 43 39 36 33 40 65 70 69 62 56 58 57 61 58 57 52 48 47 48 45 42 43 39 39 37 40 44 44 37 36 34 32 29 28 31 30 28 29 27
49 52 54 51 49 51 46 23 14 33 56 67 66 62 51 47 55 56 60 56 60 57 54 50 47 40 45 41 41 40 42 30 31 23 27 26 28 29 28 35 36 34 34 30 28
47 48 49 47 46 47 44 20 27 38 50 56 57 50 49 44 55 58 56 55 58 63 60 53 35 50 44 47 46 45 34 40 41 33 26 26 23 25 24 31 32 36 38 34 31
54 48 44 42 42 42 38 31 27 30 34 46 58 59 56 59 72 61 47 54 66 66 66 61 44 35 50 54 48 46 48 42 36 37 26 22 19 21 26 15 30 35 37 37 30
54 48 43 37 38 39 37 36 31 25 24 35 50 62 60 55 69 71 45 54 67 62 63 64 62 54 48 50 49 46 47 41 41 35 36 20 15 28 21 23 30 37 40 38 32
55 48 42 36 33 33 34 31 26 18 18 22 32 57 69 55 59 72 68 77 69 68 66 63 71 65 45 41 53 56 51 46 40 35 34 33 19 32 27 18 32 39 42 41 35
59 48 40 38 35 33 29 22 22 14 24 20 16 34 60 63 42 53 72 78 74 69 69 68 67 66 56 51 44 56 56 51 47 46 36 34 27 33 24 19 32 37 43 44 45
60 46 37 35 33 32 29 23 16 13 21 17 10 20 40 63 53 47 59 80 71 71 67 68 64 63 59 33 37 43 53 55 55 47 44 28 32 23 30 20 29 37 41 46 43
58 42 40 34 32 30 31 17 18 21 18 16 11 23 18 40 65 48 54 73 76 75 69 70 67 62 66 50 57 57 55 54 52 52 45 40 28 34 34 26 31 39 43 42 43
53 39 43 34 28 28 32 21 19 19 15 14 14 25 28 21 50 69 55 63 77 78 74 75 70 67 68 69 70 67 62 57 49 47 49 48 40 28 32 39 31 32 37 43 44

GFSSW_500_spd_042.txt.gz
Wind_Speed
20 20 20 20 20 19 19 18 16 14 12 11 11 10 7 8 11 11 13 10 13 12 12 13 13 13 11 9 12 10 7 8 7 11 5 13 8 4 6 10 12 11 11 10 11
21 22 22 22 22 22 21 20 19 17 16 15 13 12 11 9 9 15 12 14 14 16 14 13 15 14 14 14 13 14 13 13 18 7 6 16 10 8 9 11 10 12 11 9 11
21 21 22 22 22 22 23 23 21 19 19 18 17 15 14 13 10 11 15 17 16 17 19 18 18 16 17 18 13 13 10 12 4 11 4 4 11 10 8 11 8 10 9 9 9
23 23 22 22 23 22 22 23 23 22 21 21 20 18 17 15 12 17 13 18 20 19 20 21 18 16 15 17 15 14 10 9 12 10 15 21 4 4 8 7 9 11 11 10 11
26 26 26 26 25 25 25 25 23 21 22 23 23 20 20 17 19 15 19 18 19 22 21 22 20 17 16 19 20 16 15 17 4 2 16 6 8 7 6 11 8 12 13 13 12
32 32 31 30 29 30 30 28 26 26 26 26 26 22 22 18 19 17 19 19 19 21 26 25 23 22 24 21 22 18 19 20 4 15 12 8 9 4 16 3 9 12 13 14 15
33 34 34 35 35 34 33 34 33 30 28 29 29 26 22 26 21 19 22 21 20 21 24 27 28 29 25 24 20 22 27 21 15 16 14 9 9 13 7 8 10 9 11 13 15
28 30 31 33 36 37 38 39 37 36 35 32 30 29 21 30 23 22 23 20 21 22 24 30 32 29 31 28 27 26 31 29 24 18 16 8 6 17 16 13 15 11 10 12 14
32 33 34 34 33 34 37 39 42 41 40 38 36 33 26 29 25 28 24 23 24 23 24 27 34 32 34 34 32 32 29 28 18 22 15 8 11 14 21 22 15 13 9 11 14
40 41 42 43 42 40 38 37 39 43 44 44 41 38 35 31 32 28 28 27 26 26 27 27 29 37 37 35 28 29 31 24 19 22 20 16 10 15 15 24 22 16 11 11 13
46 48 48 48 46 47 47 46 43 42 42 46 47 42 40 35 35 33 32 32 31 31 28 28 32 30 32 32 30 27 28 27 20 24 28 22 17 22 15 18 23 22 15 13 13
53 53 51 53 54 53 51 50 52 50 42 42 45 45 45 43 40 38 38 36 34 31 31 34 26 22 29 36 35 32 27 23 21 24 22 24 26 16 15 15 22 29 26 14 11
59 62 65 65 64 63 61 60 57 54 54 42 46 45 44 51 43 43 43 37 34 35 33 30 23 28 27 35 37 33 32 28 23 25 28 19 26 25 26 15 21 27 22 16 10
64 63 61 62 68 67 69 69 66 64 58 55 53 52 47 50 52 46 47 43 41 38 32 34 32 32 29 30 36 39 29 32 30 30 30 25 26 25 24 38 29 30 25 22 12
48 41 31 30 30 32 42 52 63 67 55 39 58 54 54 52 47 49 48 50 47 37 41 37 35 36 34 28 33 36 35 36 38 31 29 33 32 29 25 24 30 32 22 24 17
35 28 38 38 40 38 44 44 44 45 33 20 51 55 61 54 51 53 52 52 46 43 45 39 38 40 32 31 32 25 34 32 36 33 45 40 31 29 32 27 25 32 23 16 25
35 37 39 47 48 46 43 43 43 39 22 23 47 60 63 64 54 55 58 59 58 57 54 45 45 40 37 35 35 35 37 38 40 48 49 40 42 39 26 25 25 28 26 24 24
43 40 44 49 48 45 44 43 40 30 23 40 54 54 56 58 56 44 57 61 57 59 52 49 49 45 43 43 37 40 40 45 47 45 38 38 40 35 34 30 25 25 26 23 28
46 47 48 49 44 44 40 37 28 33 27 30 57 45 42 41 52 47 52 60 61 59 59 53 50 40 44 43 44 43 45 35 32 28 27 29 29 23 27 39 34 31 30 30 31
47 52 53 56 48 41 35 33 26 33 30 33 56 52 43 42 56 50 47 50 49 60 59 57 33 46 39 43 43 45 34 39 40 33 30 23 25 22 23 33 39 34 33 33 34
48 55 61 57 47 37 32 24 30 33 32 35 36 63 50 51 59 58 51 51 48 39 52 61 49 35 35 45 49 47 44 41 37 36 28 20 19 17 22 20 33 33 42 38 34
49 56 63 50 32 25 17 34 34 32 33 35 26 39 65 51 57 61 59 60 59 58 57 57 63 50 39 39 42 49 48 43 43 40 33 24 14 23 27 27 24 28 34 33 39
53 58 56 37 31 31 31 31 27 29 30 23 22 23 54 61 51 58 59 64 66 65 63 60 71 60 45 39 41 49 51 50 38 34 36 33 19 26 25 23 23 26 37 34 36
56 56 36 36 36 34 31 23 23 19 22 15 17 26 37 67 57 49 56 45 64 69 71 70 71 70 61 51 38 49 46 46 47 41 36 32 24 26 23 30 30 25 34 39 38
50 43 35 41 37 35 27 25 28 23 24 16 20 18 16 57 68 46 45 51 56 72 73 72 68 71 60 41 29 41 43 46 49 40 39 26 33 32 33 30 38 29 32 32 34
39 37 34 35 36 32 25 19 30 24 24 20 25 21 18 29 54 55 40 39 49 64 74 74 67 69 68 53 44 45 40 41 43 45 32 30 22 35 35 27 26 35 36 37 44
37 36 36 39 40 33 26 26 26 22 19 14 17 25 24 30 33 54 43 31 47 58 69 70 68 73 74 60 51 41 47 39 39 38 39 39 30 27 33 33 29 31 40 38 38

GFSSW_500_spd_045.txt.gz
Wind_Speed
17 18 18 18 18 18 19 18 16 14 14 16 13 11 8 7 8 11 12 9 12 10 11 12 13 14 12 11 12 12 4 6 6 16 9 3 5 2 3 7 4 4 6 5 5
18 17 18 19 19 19 19 18 19 17 16 15 16 14 12 8 9 11 12 13 14 12 13 14 15 15 14 14 12 12 10 11 10 4 11 13 5 7 2 3 4 4 5 5 5
21 21 21 20 20 20 20 19 18 19 18 17 16 16 15 13 10 12 11 14 16 16 16 16 15 16 15 14 12 12 4 10 9 7 6 9 3 1 7 1 4 4 4 3 4
25 24 24 24 24 23 22 21 21 21 21 18 16 16 17 15 12 16 13 15 18 18 17 18 15 16 16 17 16 14 14 9 15 8 12 7 10 6 9 6 0 2 3 5 6
28 29 29 29 29 28 28 27 25 24 23 23 20 16 16 14 23 16 20 18 17 19 20 21 19 18 16 18 20 19 13 5 11 12 12 8 8 13 6 9 5 1 3 6 7
26 27 28 29 30 31 32 33 31 29 28 27 26 23 17 14 23 16 21 21 19 18 23 23 20 21 24 21 18 18 15 9 8 15 5 4 10 9 6 7 8 6 7 6 8
24 24 24 24 25 27 30 32 34 34 34 32 31 27 18 23 21 19 22 23 21 20 21 26 28 28 28 24 21 23 19 15 18 9 4 13 11 12 7 8 12 9 7 8 7
27 28 29 29 29 29 28 27 31 34 36 38 37 32 22 30 23 20 23 27 23 24 24 27 32 31 32 29 29 26 25 27 18 25 11 12 8 11 9 1 9 7 5 4 7
34 35 36 38 38 38 38 37 35 34 34 37 39 39 31 32 28 28 25 27 26 27 27 29 32 32 36 35 34 31 28 27 26 18 13 15 15 14 16 12 8 5 4 3 3
40 40 41 42 43 43 44 43 42 41 39 39 37 38 40 36 37 32 29 29 30 31 30 29 32 35 38 38 32 30 31 26 27 24 23 20 10 11 16 16 7 15 5 7 5
45 47 49 48 48 46 46 47 49 48 48 46 43 36 37 38 40 38 34 33 33 35 31 31 36 31 27 32 31 31 32 27 25 27 18 17 13 16 19 26 15 24 2 8 11
51 52 52 55 56 56 55 54 53 51 47 52 50 45 42 41 43 40 41 40 37 31 35 40 32 24 26 31 35 35 33 26 21 23 21 25 17 19 27 23 25 31 9 5 9
54 56 57 58 59 61 61 63 65 63 58 55 51 52 47 49 39 42 45 43 42 35 38 37 22 31 31 33 37 38 33 23 26 20 28 29 18 27 31 29 33 30 17 3 7
54 55 53 43 45 38 35 38 44 56 47 53 59 53 57 55 50 42 45 47 49 44 38 36 34 37 35 33 32 34 31 26 29 27 35 36 33 31 27 32 30 33 17 7 7
52 45 35 37 28 30 30 32 29 32 30 29 47 50 57 58 52 44 47 50 52 49 44 37 37 40 39 32 30 29 34 32 34 36 24 30 24 18 22 28 28 26 22 18 13
46 34 32 36 34 37 37 35 33 33 28 24 44 44 49 62 61 53 55 55 48 52 50 45 39 42 37 32 35 29 37 40 43 43 45 38 30 29 24 29 27 23 25 17 10
32 28 32 36 38 42 43 40 39 36 31 20 31 42 43 52 63 63 58 56 59 58 59 52 47 43 42 39 38 34 38 41 51 56 52 41 40 29 33 28 25 25 31 19 12
27 31 36 42 46 46 50 46 40 35 35 30 26 36 40 46 58 66 69 62 57 58 56 55 52 51 47 45 42 37 36 41 49 54 44 49 51 45 37 33 26 29 31 23 20
32 37 42 48 53 57 61 47 34 35 40 31 31 32 39 44 50 64 68 68 63 56 61 59 56 45 46 44 43 39 45 40 41 43 52 52 45 43 34 34 33 33 32 33 21
34 41 46 52 59 52 40 37 25 33 41 29 32 35 32 44 46 57 58 66 66 57 54 57 54 47 41 41 44 45 34 41 41 41 43 39 35 30 33 39 41 34 39 20 28
37 46 50 49 37 35 36 37 32 37 38 33 32 35 39 42 44 47 49 52 66 60 56 58 56 54 38 46 49 48 44 40 37 39 34 27 24 13 10 11 18 39 30 25 31
42 48 49 37 31 37 42 33 32 40 42 38 29 33 39 46 50 53 58 54 61 60 63 58 64 58 57 49 43 44 47 40 43 38 36 27 23 17 15 23 19 21 40 31 28
45 37 38 36 38 38 37 29 26 30 26 21 25 32 33 34 47 60 57 54 58 60 67 63 68 61 57 54 51 42 46 47 40 36 40 31 27 21 18 18 23 18 24 40 36
39 39 40 44 45 44 43 29 23 25 26 24 24 24 26 26 21 67 61 56 53 57 71 72 73 72 62 60 52 47 39 44 47 43 37 37 27 16 16 16 18 18 19 26 42
39 42 45 51 40 42 46 39 23 23 19 29 26 27 22 25 28 29 72 46 47 57 65 72 76 76 66 61 58 45 45 39 47 46 40 36 33 19 13 16 24 21 19 26 36
40 43 43 45 44 40 44 38 25 22 25 21 23 22 22 29 26 41 71 39 44 54 64 72 72 78 70 61 49 43 40 40 38 46 40 33 35 25 23 22 25 27 28 25 36
41 41 45 42 40 40 41 37 29 26 17 18 17 16 24 20 25 25 56 42 34 53 63 72 70 76 70 60 53 46 41 34 26 36 45 38 36 25 26 29 31 27 34 37 36

GFSSW_500_spd_048.txt.gz
Wind_Speed
14 14 15 16 15 15 15 14 13 12 13 15 12 10 8 6 7 11 14 11 13 12 13 14 16 16 12 13 13 15 3 3 5 15 10 11 10 6 4 7 4 3 1 1 2
17 17 18 18 18 17 17 17 15 13 13 13 15 12 11 8 9 8 13 14 15 15 14 15 16 15 15 13 12 14 12 6 13 7 13 10 5 9 3 4 4 1 0 2 3
22 21 21 21 21 21 20 19 19 17 15 14 12 14 12 11 12 13 12 14 17 19 18 18 16 16 15 11 11 15 14 8 15 10 12 8 9 5 8 5 2 2 2 6 7
23 24 24 25 26 25 25 24 23 22 21 17 16 12 13 12 16 17 13 15 18 20 19 19 17 15 14 13 17 17 15 10 13 3 6 9 12 9 11 8 1 3 3 5 8
23 23 24 25 26 26 26 27 27 26 25 24 20 16 13 11 25 16 19 18 16 20 24 23 21 21 15 18 18 18 19 12 18 12 9 8 3 17 5 10 6 2 4 4 6
21 21 22 22 22 22 24 26 28 28 28 29 27 21 15 19 25 16 21 20 20 20 24 25 23 23 25 23 18 21 21 21 22 8 8 7 7 11 5 5 10 8 4 4 5
21 22 23 23 24 24 24 25 25 26 28 30 31 28 19 29 25 18 21 23 21 22 22 26 32 31 29 28 26 27 27 25 22 13 10 8 9 8 7 5 8 8 5 4 1
29 31 31 32 32 32 31 31 30 30 29 28 29 30 24 33 27 23 25 26 27 25 26 28 33 34 35 30 32 31 28 24 26 21 13 19 9 7 8 1 3 5 4 4 1
36 37 39 40 40 39 38 38 35 35 36 34 31 28 27 34 36 31 27 30 31 30 31 33 35 33 40 36 37 35 27 23 23 22 23 19 15 10 11 4 2 6 3 3 1
40 42 45 46 47 47 47 46 45 43 44 41 38 35 32 31 36 36 32 34 32 36 36 34 36 36 39 42 37 32 30 28 22 21 21 18 14 15 9 10 2 1 2 1 1
44 46 47 47 48 47 48 49 48 45 50 47 45 40 39 39 36 41 40 40 39 39 35 37 40 35 27 32 33 37 35 32 23 23 18 14 16 13 9 7 2 3 1 7 5
51 49 51 52 51 51 52 52 54 54 53 50 51 48 49 45 42 43 44 45 44 38 38 45 39 25 31 34 35 41 38 32 26 28 24 22 22 18 15 7 6 6 14 6 4
48 53 55 55 55 57 58 57 56 58 56 59 57 52 48 51 48 48 47 45 48 44 44 43 31 34 34 34 35 40 40 31 27 29 30 29 30 29 26 24 14 3 7 7 7
57 54 60 45 48 41 46 43 45 41 46 53 51 52 51 55 57 60 57 52 52 50 48 46 37 41 40 37 34 37 31 34 28 38 39 38 32 40 34 28 21 9 5 3 11
56 53 52 47 33 27 27 28 29 28 34 40 37 38 50 52 62 63 64 63 55 55 56 49 42 43 44 34 34 27 35 40 31 43 41 40 31 29 35 36 14 10 1 2 8
53 51 46 39 31 29 31 32 29 31 35 37 32 31 33 44 60 64 67 68 62 58 59 54 49 48 43 38 39 33 38 44 39 48 52 42 39 33 43 27 16 11 6 3 4
49 49 43 30 32 37 38 42 42 45 42 39 34 37 34 40 48 50 65 69 68 66 65 63 58 54 47 44 45 41 42 51 52 60 58 46 43 38 37 28 21 8 6 7 4
46 49 36 29 34 40 48 46 40 36 34 39 41 37 37 33 46 43 56 59 68 69 69 68 64 59 54 51 44 43 47 53 59 59 55 40 51 36 32 24 15 15 12 16 13
43 35 30 33 42 46 37 27 30 40 41 28 28 40 43 42 33 46 53 42 53 70 73 69 67 58 55 49 48 42 49 44 54 56 52 50 48 38 42 36 35 33 35 35 20
33 32 36 34 34 33 30 36 42 42 34 30 38 38 40 48 41 41 56 51 44 64 72 72 74 65 55 48 49 47 41 41 48 53 59 52 48 44 38 33 33 34 30 24 26
30 30 34 37 39 40 38 38 37 36 33 33 31 35 37 45 44 42 48 59 55 55 64 71 77 68 54 58 53 53 50 45 40 47 50 49 45 38 33 29 30 36 34 27 24
29 30 36 38 38 35 32 32 35 31 29 26 29 38 45 38 42 45 45 61 52 56 51 67 77 73 63 55 53 49 52 45 44 48 45 40 31 35 25 35 44 43 42 36 27
27 29 39 41 41 32 31 31 33 32 30 27 30 29 28 31 37 43 47 47 70 57 54 50 72 71 67 58 60 52 51 49 45 37 40 35 27 42 42 38 34 30 50 42 32
29 33 37 43 43 39 32 28 27 31 28 28 26 27 26 32 38 43 45 52 66 51 58 61 67 72 73 65 55 57 54 54 50 45 39 36 41 38 31 30 31 33 31 38 30
30 31 41 47 38 39 35 29 24 24 26 28 25 31 28 28 31 39 42 57 65 44 62 61 61 70 74 71 62 62 54 54 55 46 44 33 41 35 24 21 23 23 19 37 38
31 34 37 44 44 41 33 28 27 26 26 21 25 23 23 22 28 31 33 37 73 46 32 59 61 71 72 68 63 60 57 50 45 45 40 32 42 25 25 22 24 29 20 26 33
30 34 39 45 44 42 33 28 25 27 23 19 17 18 19 17 22 18 34 32 75 44 30 59 66 70 72 66 63 57 53 49 43 32 38 37 40 31 28 28 30 32 22 21 24

GFSSW_500_spd_051.txt.gz
Wind_Speed
14 15 15 15 14 14 14 14 13 13 13 11 9 10 9 9 10 14 17 13 13 11 14 14 15 13 13 13 14 11 7 6 11 4 11 13 12 5 1 7 11 8 4 4 11
19 19 19 18 18 17 16 16 15 14 14 13 10 10 11 12 14 13 16 16 16 16 15 17 17 14 15 14 16 16 14 3 13 21 10 16 7 7 4 6 7 7 7 6 10
21 21 21 22 22 22 22 21 19 17 17 15 12 11 11 14 18 16 16 16 18 22 19 18 15 14 12 10 17 18 14 11 12 14 11 7 8 9 7 6 8 9 11 13 11
19 20 21 21 22 23 23 23 24 23 21 19 16 13 12 13 21 20 17 17 17 22 21 21 15 13 10 13 18 17 16 13 14 18 16 12 13 10 12 7 8 9 10 15 12
18 18 18 18 19 20 21 22 24 25 25 25 22 18 15 17 23 18 19 20 20 19 24 24 22 19 15 19 18 18 19 13 14 17 19 14 10 12 10 13 12 7 6 14 14
18 17 17 17 19 19 20 21 22 22 24 25 26 23 21 25 25 19 20 22 23 22 22 24 23 26 27 24 18 23 23 20 12 16 15 17 15 12 10 10 14 10 6 11 16
24 25 25 25 27 27 27 27 26 25 24 23 23 23 24 33 28 24 26 23 24 26 24 26 31 31 29 26 29 29 27 23 17 20 13 15 15 8 10 10 9 7 9 9 11
27 29 30 31 31 32 32 33 33 31 30 27 26 23 24 30 34 34 29 28 27 29 30 32 34 34 35 33 32 32 30 22 23 26 14 15 14 11 14 11 7 5 8 9 11
32 33 35 36 38 39 39 40 42 41 38 35 32 30 30 30 31 34 34 34 33 33 34 37 36 34 38 39 37 38 29 24 27 32 24 21 15 12 13 9 7 8 6 5 6
37 39 40 41 41 41 42 43 45 45 46 46 42 39 39 37 34 34 34 41 38 38 40 39 37 36 39 42 38 33 29 28 28 28 30 26 19 17 17 14 9 9 6 4 2
40 43 43 42 39 40 44 45 42 45 44 46 47 48 46 43 43 43 38 43 46 45 41 39 40 37 28 30 34 37 35 31 29 31 27 26 28 20 19 18 12 8 8 4 3
42 43 46 47 49 51 52 55 53 49 47 46 46 49 50 49 51 50 48 46 46 48 45 45 40 28 34 36 35 39 40 33 29 31 26 29 28 23 21 14 16 9 9 6 2
47 48 49 51 53 55 56 57 60 62 57 57 54 50 49 52 55 56 55 54 50 48 51 49 33 35 40 39 38 40 40 35 27 34 32 32 29 36 28 25 23 18 13 8 6
51 51 53 51 52 52 53 51 50 50 53 50 52 52 51 50 54 56 56 59 59 53 52 56 43 46 44 42 39 40 31 34 35 37 40 37 39 39 31 25 19 21 14 13 5
55 51 50 54 51 48 38 32 30 32 43 46 44 46 46 48 46 47 56 59 64 63 59 55 52 52 46 40 39 27 32 38 40 39 42 43 43 39 34 26 20 24 16 12 9
56 49 46 45 44 34 28 28 30 34 42 45 40 37 33 38 42 39 49 57 65 70 65 61 57 58 48 40 44 36 37 41 45 45 53 45 49 41 39 24 21 23 19 15 12
54 42 40 39 30 31 31 31 39 44 41 36 35 37 41 37 41 39 39 52 63 70 70 67 65 63 57 50 48 46 46 47 52 58 60 45 53 42 37 26 29 22 21 18 13
45 39 38 27 30 23 24 31 34 31 31 31 35 35 34 37 41 45 43 49 57 71 73 74 71 67 62 58 53 53 51 56 58 59 58 47 58 46 39 34 30 26 26 21 16
40 37 27 32 26 29 34 39 37 41 43 45 41 43 44 39 39 39 44 47 49 65 75 77 76 70 69 62 55 53 57 50 53 57 56 53 53 38 42 37 35 32 38 30 20
35 28 32 26 29 35 39 38 35 36 38 42 44 42 39 42 42 39 47 52 50 55 72 79 79 70 70 63 57 53 51 51 55 58 61 55 55 41 42 40 38 33 41 34 23
33 27 32 28 33 39 41 40 37 38 39 40 39 39 38 40 43 42 51 54 55 58 56 71 81 67 64 66 60 58 57 56 49 55 57 49 49 37 38 39 35 26 23 27 21
29 29 30 29 35 38 42 43 40 38 39 39 34 31 31 35 40 48 47 55 52 57 64 59 79 70 67 64 61 60 60 57 56 56 58 51 47 41 43 39 37 30 24 22 26
23 30 30 32 37 39 41 40 40 36 37 33 30 28 32 35 36 33 34 42 53 53 59 55 64 72 59 58 65 65 62 58 54 50 53 50 37 46 41 47 44 36 34 32 27
23 30 30 36 40 43 40 39 35 34 32 30 27 28 32 33 31 30 27 33 43 55 47 62 47 63 66 67 69 67 62 61 60 54 49 52 37 39 43 38 38 43 44 41 36
27 27 34 39 40 42 43 39 35 29 26 26 26 27 27 29 28 32 31 34 40 46 48 61 47 52 71 69 66 67 62 60 63 56 54 39 34 29 39 41 42 39 41 46 44
27 31 34 38 42 42 39 39 32 26 25 27 30 22 27 24 26 29 31 30 39 43 53 57 56 55 61 68 62 65 61 62 61 57 50 36 35 35 39 45 45 41 44 36 29
28 30 32 38 38 38 38 36 30 25 23 26 25 19 18 17 20 22 22 19 31 45 54 46 52 57 55 68 63 64 67 63 60 58 50 41 40 48 43 41 37 37 34 27 25

GFSSW_500_spd_054.txt.gz
Wind_Speed
15 15 14 14 13 14 14 13 14 12 10 8 8 9 10 12 13 13 16 13 15 11 11 12 12 11 12 12 12 10 4 4 10 11 8 13 14 11 4 8 10 13 11 7 16
19 19 19 19 19 18 17 17 16 16 14 12 10 10 11 14 17 13 15 17 18 17 15 16 15 13 13 12 14 14 14 4 12 13 15 12 10 10 8 10 8 10 14 14 11
20 20 20 19 19 20 19 20 20 20 19 16 15 13 14 14 18 18 15 15 19 20 18 13 15 11 11 11 13 16 15 9 12 15 10 13 9 11 9 9 10 12 15 21 11
17 17 17 18 18 18 18 19 19 20 21 21 20 17 17 18 19 16 17 17 19 20 21 17 13 13 13 14 16 18 15 14 14 15 12 17 13 10 11 7 8 15 16 20 15
16 17 17 17 16 15 16 15 15 15 18 20 21 22 23 24 20 18 20 20 22 20 23 23 22 18 16 18 18 17 19 18 16 17 13 13 15 12 13 15 13 15 15 16 19
19 19 19 20 20 20 20 20 19 19 18 18 18 19 24 29 27 23 21 20 23 24 22 24 27 28 28 23 20 23 24 20 19 21 18 21 16 13 13 14 16 15 18 19 19
22 22 21 23 25 26 27 26 26 25 23 23 23 22 22 24 30 28 27 26 23 27 27 27 32 33 30 26 28 27 23 21 18 16 18 18 12 15 11 13 12 14 15 17 18
27 28 28 28 30 31 32 32 33 32 29 28 27 28 28 28 28 28 31 30 29 29 31 31 32 34 35 32 32 29 28 22 22 19 19 15 19 18 15 12 12 11 12 13 15
31 33 34 33 33 34 36 38 37 38 37 36 35 34 34 33 34 32 30 33 36 34 34 35 35 34 36 37 36 38 27 24 25 24 22 20 22 15 17 12 8 10 12 11 10
31 33 35 35 34 36 38 38 37 37 36 35 37 39 41 41 41 40 37 36 37 41 41 37 35 35 35 38 39 36 26 27 26 24 23 20 23 21 18 12 10 11 12 11 10
30 33 35 36 37 34 34 36 37 36 37 38 36 36 43 44 46 46 43 44 41 41 44 42 38 30 26 30 31 34 33 32 27 26 25 25 24 20 19 17 13 16 14 10 9
35 38 40 42 42 41 42 43 45 43 44 44 43 38 40 46 50 50 49 49 50 45 44 47 41 28 37 35 34 35 37 36 33 33 33 31 33 27 23 21 20 20 16 14 10
40 43 45 47 49 48 51 49 49 51 51 52 49 47 46 45 48 54 53 53 53 53 50 46 39 41 39 40 40 39 37 37 32 38 36 34 34 40 34 31 29 25 23 19 14
45 47 47 49 49 49 52 51 48 48 49 49 48 45 44 44 46 49 54 54 56 55 55 54 45 49 45 42 42 42 34 34 38 41 41 38 36 34 36 34 29 28 21 21 16
48 47 48 47 46 41 42 41 37 34 43 45 41 38 35 38 44 45 46 50 55 57 60 58 52 53 52 43 43 33 36 39 41 46 43 45 45 41 38 37 25 24 22 24 21
50 49 48 44 38 34 25 26 25 25 30 34 34 34 30 33 35 35 37 45 50 56 60 62 58 56 56 50 47 38 43 43 47 49 56 47 50 46 41 29 26 28 23 21 19
50 46 37 33 33 24 24 18 20 24 32 35 34 32 31 31 35 40 38 36 44 52 58 64 64 61 61 57 53 49 48 49 51 58 59 49 53 44 39 37 33 28 23 19 19
45 36 32 32 23 27 21 23 26 32 35 30 30 35 39 41 40 38 40 44 44 47 51 61 68 64 66 62 58 55 54 56 57 57 55 52 62 48 34 37 38 34 29 29 27
33 33 31 29 23 22 21 26 32 37 36 33 31 33 37 41 46 46 45 45 47 50 50 54 64 67 69 66 64 61 59 54 55 55 55 58 57 44 37 42 37 37 38 33 32
32 31 28 21 24 23 26 33 38 40 42 37 34 36 38 38 40 41 47 47 47 52 55 52 56 66 70 68 64 64 58 56 60 59 59 60 55 50 40 40 41 38 40 37 34
26 22 20 22 22 23 30 36 39 42 43 39 37 38 38 39 41 42 45 47 49 47 56 56 54 59 68 70 65 65 66 62 56 58 58 58 52 47 39 42 42 38 37 37 35
16 17 21 24 25 29 34 39 40 40 38 37 34 37 40 41 43 45 47 47 48 47 50 58 58 56 62 65 63 69 64 66 65 63 61 59 53 46 43 40 43 35 41 44 38
18 23 23 24 27 29 34 36 38 38 34 34 37 38 39 41 42 41 42 44 45 44 48 58 62 55 52 59 64 67 67 68 67 65 64 57 52 50 44 41 44 41 43 42 38
21 25 26 26 29 33 34 36 36 38 33 31 32 36 34 33 34 37 41 45 43 44 46 54 63 60 50 55 67 65 71 66 71 67 63 62 47 43 43 43 45 47 49 44 43
23 25 26 29 34 33 36 39 40 36 33 30 29 31 29 31 33 32 34 36 35 37 36 51 59 64 52 50 62 69 70 71 70 66 65 59 50 41 43 44 49 50 53 51 42
25 26 26 28 32 35 36 34 34 33 26 25 23 26 30 23 25 28 28 29 32 34 32 36 53 60 53 48 58 66 68 70 70 67 65 54 45 41 41 50 50 55 50 47 49
24 21 26 27 29 32 35 30 29 30 21 23 22 23 24 22 21 18 24 26 24 27 29 34 38 49 48 48 59 65 69 71 70 70 64 54 39 40 41 46 49 53 55 55 48

GFSSW_500_spd_057.txt.gz
Wind_Speed
17 16 16 16 15 15 15 14 12 11 10 9 8 8 10 12 13 10 16 16 15 15 9 10 13 12 12 9 9 11 9 8 15 12 10 14 13 15 7 10 13 15 15 14 17
19 18 18 19 18 18 18 18 18 16 14 12 11 11 10 11 13 11 14 17 18 16 14 15 15 14 13 10 11 13 10 5 11 18 13 14 10 13 8 11 12 14 15 17 16
18 18 18 18 18 18 19 19 19 19 18 18 15 15 14 13 13 13 15 16 17 19 16 10 16 14 11 12 12 15 15 10 8 13 11 14 14 13 12 12 11 13 16 19 15
15 15 15 15 15 15 16 16 17 19 18 17 18 19 19 18 16 14 14 17 19 16 20 18 12 14 14 14 16 18 16 15 9 12 9 14 15 17 15 11 10 13 17 17 20
14 14 15 15 14 14 15 14 14 15 15 15 15 17 20 22 20 18 17 17 21 18 20 23 21 20 19 19 19 19 19 19 16 14 11 14 12 12 13 14 14 15 16 19 23
17 17 17 18 18 18 19 19 19 18 19 18 18 18 17 20 21 23 21 19 18 22 21 23 28 28 27 25 23 25 20 20 20 18 14 10 13 13 13 15 15 15 17 19 20
21 20 20 22 22 22 22 24 24 23 23 23 21 22 21 22 22 21 24 25 24 23 22 24 28 31 28 27 27 27 23 20 22 19 20 17 17 13 9 12 12 14 18 20 19
24 24 23 25 26 27 27 28 29 29 28 27 27 27 25 25 25 25 22 24 28 28 26 26 28 29 32 29 30 28 26 23 22 21 22 18 19 18 17 13 11 15 18 21 22
26 28 26 25 25 26 28 29 30 31 32 32 32 31 32 31 30 30 29 28 28 31 32 32 28 30 30 32 34 33 24 23 25 22 23 20 19 19 17 12 12 13 16 18 17
29 30 28 28 28 29 31 31 31 31 30 31 34 33 33 33 32 34 34 34 34 34 35 37 32 28 29 30 34 32 25 25 24 26 24 22 20 21 21 20 16 16 17 16 16
31 33 33 33 33 34 34 34 34 34 30 29 31 36 34 33 36 34 36 39 40 39 38 36 37 27 23 29 30 32 32 32 29 29 27 26 28 27 24 21 18 17 16 17 18
33 35 36 37 36 37 38 40 39 38 38 36 35 36 39 40 36 37 39 41 42 42 44 43 36 32 35 34 34 34 34 37 35 34 32 30 29 30 26 23 23 21 20 16 17
33 35 36 37 39 39 40 40 40 40 40 41 40 40 41 42 42 40 42 43 44 47 47 47 40 38 41 39 37 37 34 37 37 40 38 35 37 36 29 28 24 21 22 25 22
36 37 38 40 41 42 42 42 41 43 41 40 36 34 38 44 45 43 44 44 47 47 51 53 48 47 46 45 41 41 33 34 39 42 42 41 42 42 38 29 28 26 23 20 20
41 43 43 43 44 43 42 41 37 40 37 34 28 24 28 37 46 43 46 46 47 50 54 54 53 52 53 45 46 40 39 43 43 46 47 48 48 44 41 41 36 31 27 25 23
43 43 41 42 40 36 35 34 29 29 28 23 24 21 24 24 29 37 42 44 46 52 53 58 58 58 59 50 51 43 47 49 48 50 60 52 52 46 45 32 33 32 29 28 27
45 45 39 31 31 28 26 23 25 25 21 22 24 28 29 29 32 31 31 34 38 45 52 56 60 62 63 59 55 53 54 54 53 59 60 52 59 49 45 35 35 30 29 29 27
42 41 37 28 26 22 21 21 21 19 23 26 30 32 32 32 34 36 37 38 38 41 45 50 54 65 65 66 59 58 58 60 61 57 55 55 67 54 43 40 41 36 34 33 31
35 31 23 20 18 16 17 22 22 24 29 33 36 37 36 36 39 40 42 44 45 41 43 48 48 55 63 67 64 62 64 57 61 58 56 61 61 50 48 49 46 42 41 33 30
16 14 11 13 13 18 19 21 25 30 36 40 41 43 44 43 44 46 46 47 48 49 48 47 49 50 53 62 66 63 59 63 64 64 62 64 58 51 46 50 48 49 43 37 32
16 13 12 13 15 19 24 28 32 36 39 41 42 43 44 43 44 47 52 52 48 45 51 55 50 51 51 53 62 67 66 66 65 63 64 65 62 45 46 43 47 51 46 41 34
19 19 19 20 22 24 26 28 30 34 36 38 39 42 40 40 41 45 47 47 47 44 45 48 55 49 52 51 52 66 68 65 70 68 65 66 66 42 43 44 44 53 49 46 40
19 20 22 19 20 24 27 30 34 35 38 39 40 38 37 37 39 42 43 42 42 43 43 45 52 51 47 50 48 57 68 69 70 72 71 66 64 47 43 43 44 48 50 49 45
19 20 19 17 20 21 25 30 33 33 35 38 34 31 28 28 30 33 36 38 39 37 39 43 47 53 50 50 57 53 62 67 71 73 72 70 61 48 47 44 46 52 52 52 52
21 17 19 22 23 27 31 35 38 37 37 40 28 24 24 26 29 32 36 39 37 37 35 37 42 47 53 51 54 54 61 70 75 74 74 68 64 50 48 47 46 54 57 56 55
17 17 22 23 27 30 33 36 41 36 33 22 22 25 26 26 27 31 29 27 29 27 28 31 37 43 48 48 52 52 55 67 72 74 75 70 65 52 45 46 47 55 61 59 52
15 19 23 27 32 36 41 45 43 33 24 18 16 17 13 14 18 21 22 24 25 27 29 29 36 40 42 46 49 53 51 61 72 74 73 68 62 54 48 41 49 55 61 63 57

GFSSW_500_spd_060.txt.gz
Wind_Speed
18 18 18 18 18 18 17 15 14 12 9 9 7 7 8 11 11 11 17 14 14 13 10 13 14 14 12 10 9 11 11 9 10 10 12 16 14 13 14 10 11 12 13 16 18
19 19 19 18 18 19 18 18 18 17 15 13 12 10 10 10 11 10 12 17 18 14 13 15 17 18 14 13 13 14 13 9 11 16 13 15 13 13 14 8 10 14 17 18 20
18 18 18 17 17 19 18 19 19 18 17 17 18 17 14 13 11 9 13 15 16 19 15 13 14 18 16 15 15 16 15 9 4 13 15 11 13 12 14 9 12 14 16 18 20
15 16 15 14 14 15 16 16 17 16 15 16 16 19 20 18 16 12 10 14 16 15 19 17 14 17 15 16 18 18 18 16 8 10 16 12 14 11 11 9 11 14 15 18 19
13 13 14 14 15 14 16 15 15 15 14 13 14 15 18 20 20 18 15 14 15 16 17 22 21 20 21 21 21 19 19 20 15 13 10 14 12 11 14 13 13 14 17 18 17
15 15 16 16 17 17 17 18 18 18 17 16 17 16 17 18 19 19 20 19 17 16 18 20 26 25 24 26 25 24 20 20 18 16 14 10 13 13 11 14 14 15 16 18 19
20 19 19 19 20 20 21 21 20 22 22 21 20 19 19 19 19 19 19 21 23 20 18 21 23 27 25 26 25 26 22 19 20 20 19 13 12 11 10 13 14 15 16 19 19
23 22 23 23 24 24 24 24 24 24 24 25 24 24 23 23 22 21 21 22 21 24 24 21 22 24 28 26 26 25 22 19 21 21 21 19 15 13 11 11 13 14 17 21 23
26 25 24 25 24 24 25 25 26 26 26 26 26 27 28 28 27 26 25 26 25 23 24 27 24 21 25 26 31 28 21 21 21 22 23 23 22 17 16 15 15 15 17 22 20
31 31 29 28 28 29 28 28 28 28 29 28 28 28 29 28 29 30 29 30 30 29 28 26 27 25 23 26 26 29 26 25 24 23 23 27 24 19 17 18 15 17 17 19 18
32 33 32 31 30 30 30 31 32 33 32 32 30 30 30 30 30 30 31 29 32 33 33 31 27 23 25 25 30 29 32 30 29 29 28 27 25 24 23 22 17 18 18 20 22
34 34 33 32 32 32 32 31 33 33 33 35 36 36 36 34 33 35 36 36 36 35 37 37 32 28 31 34 32 30 30 33 34 35 33 31 29 29 26 24 23 23 22 21 20
32 34 35 34 33 33 34 35 35 35 36 37 37 38 39 40 39 38 38 41 40 41 40 38 38 38 36 34 37 35 33 36 37 40 37 37 35 36 32 29 25 23 21 18 22
37 36 37 38 38 39 39 37 36 36 36 37 37 37 38 41 42 41 42 42 44 44 44 45 43 44 42 41 40 40 35 37 40 44 40 40 36 38 36 34 30 28 22 19 20
37 37 37 37 38 38 38 38 37 38 33 35 34 34 36 39 41 42 42 43 43 45 49 48 47 47 46 46 45 43 41 42 43 47 47 48 48 34 38 40 35 31 23 20 21
40 39 40 40 40 40 35 30 30 32 34 28 25 25 30 34 37 41 42 44 43 44 48 50 52 53 52 53 51 48 47 47 47 49 57 53 50 46 37 44 35 34 27 25 24
36 35 36 37 36 33 28 22 24 25 25 24 24 25 26 27 29 31 34 38 40 40 43 47 53 55 58 58 58 55 52 53 54 56 58 53 58 53 44 39 42 36 32 29 31
24 26 26 24 20 18 16 15 19 19 21 22 23 25 27 28 31 32 33 34 35 33 37 41 46 53 57 62 62 61 59 60 62 56 55 54 61 58 55 51 45 42 39 38 39
15 15 13 10 6 5 7 12 16 19 20 23 26 31 34 34 36 36 37 39 38 40 41 41 39 51 56 60 63 62 64 57 51 38 58 49 57 58 57 53 47 42 45 43 37
11 12 12 11 11 11 11 15 18 21 24 27 31 36 40 43 41 43 44 44 45 46 46 49 44 43 51 58 60 61 59 64 64 48 63 53 56 56 58 49 47 47 47 42 40
13 14 14 15 14 12 13 14 17 18 22 26 31 37 41 45 48 46 48 50 47 49 52 52 52 50 46 51 52 52 64 59 60 61 60 55 44 56 55 47 48 48 48 44 43
17 17 16 16 11 13 16 17 20 22 24 28 31 35 40 42 45 48 50 51 52 52 54 59 59 56 55 51 54 55 49 63 51 64 69 44 40 36 57 49 49 51 51 45 46
16 17 14 12 14 16 19 22 24 27 32 36 39 41 41 38 42 45 45 48 50 51 54 56 57 59 57 56 52 52 52 56 53 49 56 65 60 48 55 48 47 52 56 51 50
16 12 12 13 16 19 23 27 31 36 41 44 43 39 32 26 27 31 32 37 36 39 42 45 50 57 56 42 52 57 56 61 61 68 62 50 45 58 54 45 46 51 58 62 62
12 12 15 19 24 28 30 32 35 40 30 25 22 21 17 18 21 24 26 28 29 31 30 34 41 50 55 54 58 63 60 61 61 72 70 51 48 45 59 50 46 49 58 62 63
13 16 20 25 26 30 31 30 25 16 23 26 20 21 21 20 19 18 20 23 25 28 27 26 34 42 48 50 55 59 62 63 62 68 76 72 62 42 59 59 51 49 55 61 64
18 21 25 27 29 31 29 21 13 26 28 28 25 24 24 23 21 21 22 24 26 25 26 29 29 36 42 42 51 61 59 58 58 59 68 77 71 58 65 55 50 47 53 60 65

GFSSW_500_spd_066.txt.gz
Wind_Speed
21 21 21 20 20 19 17 17 16 15 13 13 12 11 11 9 13 14 16 15 15 11 19 16 16 14 11 10 9 12 10 8 7 2 4 5 5 9 5 7 4 4 5 8 9
22 22 22 22 21 21 20 19 18 18 17 16 15 14 12 11 10 14 15 18 16 16 14 20 20 18 14 12 11 12 10 8 9 2 9 6 8 8 10 9 6 5 7 8 11
21 21 22 22 21 20 21 21 20 21 20 19 17 18 17 14 12 13 15 18 20 17 17 15 18 19 18 15 13 12 15 14 9 10 8 10 10 13 11 10 5 9 8 10 12
19 19 19 19 19 18 18 19 19 20 19 19 19 19 19 19 13 16 15 15 18 22 19 17 17 15 19 17 17 17 17 17 5 7 10 18 8 14 10 19 11 8 8 10 11
20 20 20 19 19 18 17 17 18 17 18 18 17 16 18 20 17 21 18 16 15 20 21 23 20 19 18 21 19 17 18 17 13 6 6 12 14 13 4 3 3 6 9 10 11
23 23 24 23 22 21 20 18 18 19 19 18 18 17 16 18 18 18 21 20 17 16 20 19 22 21 20 21 22 21 21 20 18 14 12 7 8 10 9 5 10 7 10 11 10
28 26 26 26 26 26 25 24 23 23 21 21 21 20 20 14 18 18 18 20 22 20 17 22 22 23 23 19 18 21 22 21 20 19 17 13 12 14 18 14 8 8 8 11 11
32 30 28 27 26 25 26 26 27 26 26 26 25 24 24 22 20 19 18 18 19 22 22 20 22 23 24 24 22 18 19 20 20 20 20 17 15 17 18 12 11 7 8 10 11
36 37 34 33 32 30 28 28 29 29 28 28 29 28 26 26 25 23 22 21 20 20 22 24 21 21 24 25 25 19 16 16 18 19 21 22 24 23 24 18 7 5 5 6 10
36 35 35 36 37 36 33 33 32 31 30 29 29 29 29 28 27 27 27 26 25 23 23 21 23 25 23 24 19 23 22 18 17 16 21 24 26 31 25 7 10 10 7 5 7
35 35 34 32 32 33 34 34 33 33 32 33 31 31 29 28 28 27 28 29 31 29 27 24 24 22 23 21 22 26 26 19 19 16 23 24 28 31 24 19 25 17 11 7 9
33 33 32 32 31 31 32 33 32 32 32 33 34 33 32 32 31 29 28 29 31 33 33 31 27 23 24 27 26 27 29 28 19 15 31 29 29 29 24 24 30 17 12 10 11
32 32 32 31 31 30 29 30 32 33 31 32 32 34 32 33 35 33 32 32 31 32 34 35 33 32 30 28 31 31 28 27 29 18 28 23 35 21 27 32 33 14 18 14 9
28 28 31 32 31 30 29 30 31 31 32 37 33 35 31 34 35 35 36 37 36 33 34 35 38 38 38 35 33 33 32 29 33 32 27 23 29 39 27 33 21 24 21 13 11
28 26 24 24 29 31 31 31 30 30 22 37 38 35 35 33 38 36 38 39 39 39 39 36 39 41 41 42 41 38 35 36 34 38 38 35 31 30 33 32 21 27 20 14 14
22 22 22 25 26 28 29 29 29 26 20 32 36 33 32 32 37 40 36 39 41 43 44 44 43 44 45 44 44 44 43 39 41 41 46 41 38 27 37 31 27 29 21 17 17
5 8 10 11 17 22 21 23 19 9 20 33 34 28 28 32 33 32 34 37 38 40 42 42 42 46 48 50 48 48 49 45 45 46 43 37 43 43 25 25 33 29 26 21 21
10 7 7 9 11 11 4 5 9 4 13 25 19 24 17 29 27 30 29 28 33 36 36 42 30 39 43 47 49 49 50 49 48 47 42 38 44 40 33 24 30 36 36 43 24
11 4 5 5 6 4 6 11 9 15 4 6 9 11 15 24 21 31 27 28 21 42 42 40 35 15 24 40 48 45 43 46 45 33 46 31 30 38 35 38 33 28 38 38 39
10 3 5 6 6 1 1 5 3 7 7 12 12 15 16 9 21 25 27 30 33 45 39 34 41 37 28 27 43 42 48 32 41 43 46 32 30 22 28 33 37 44 51 41 37
8 6 5 4 4 1 2 3 5 4 10 11 14 17 21 25 30 31 29 32 42 42 41 37 41 40 44 45 39 43 53 49 36 35 52 45 33 25 18 27 26 47 53 53 54
10 6 5 5 4 4 5 7 10 12 13 18 20 22 25 28 30 35 39 30 43 43 45 46 45 47 44 49 42 29 44 44 42 43 42 45 41 26 18 23 34 34 34 39 53
9 8 8 8 8 8 8 9 13 15 18 19 15 14 9 12 15 20 26 36 47 51 51 51 46 50 47 48 49 52 49 46 50 44 43 37 38 33 20 23 25 33 31 35 42
5 5 7 8 9 10 12 12 14 16 16 12 9 10 12 15 21 25 28 32 28 32 42 50 53 48 50 37 40 45 37 45 48 37 43 50 35 43 16 21 29 33 25 31 32
6 7 7 8 9 10 11 13 13 16 16 14 15 16 17 24 28 28 29 33 35 33 33 35 43 51 54 52 46 54 54 54 51 56 47 51 45 49 33 39 38 40 35 37 44
9 8 8 9 11 11 12 13 14 16 18 20 21 23 27 29 31 25 27 31 36 32 33 30 33 36 52 57 58 61 62 64 59 58 58 47 49 60 46 42 39 45 49 43 37
13 13 11 13 13 12 13 14 16 17 20 22 25 30 32 32 25 19 18 30 23 28 31 33 32 28 27 38 39 64 61 63 61 59 58 59 63 64 55 50 43 47 49 55 49

GFSSW_500_spd_069.txt.gz
Wind_Speed
20 20 20 19 18 18 18 17 17 16 14 13 12 11 10 11 14 16 16 17 15 17 19 15 15 14 12 10 10 11 10 7 5 10 9 4 3 7 5 8 4 5 3 4 4
20 21 21 21 20 20 20 19 19 18 16 16 15 14 13 11 12 16 17 18 17 16 17 20 20 18 15 12 12 14 14 6 4 1 4 6 7 5 2 3 5 5 4 5 3
20 20 20 20 20 20 20 20 20 20 19 18 17 17 16 14 11 18 16 18 19 18 17 17 21 19 17 15 13 13 15 10 5 12 5 5 19 20 11 8 6 6 6 5 5
22 22 21 20 19 19 19 19 20 19 20 19 18 19 19 17 16 18 14 17 19 21 19 18 16 19 19 18 17 16 17 16 7 8 8 10 19 20 10 9 8 6 7 4 5
24 25 24 23 21 20 19 19 19 19 19 18 18 18 19 20 18 21 18 16 18 22 25 21 19 19 19 21 20 16 16 12 11 3 7 9 5 8 4 2 9 8 7 6 4
30 28 28 27 26 24 22 21 21 20 19 19 18 17 17 17 17 21 22 20 17 19 22 23 23 21 22 20 21 22 21 17 17 9 10 9 10 9 12 15 8 8 8 5 4
35 34 33 31 29 28 28 26 25 24 23 22 20 20 18 14 20 20 20 22 22 19 19 23 25 25 24 20 22 25 23 20 18 15 15 11 12 9 13 16 8 6 8 4 4
35 37 34 36 33 30 29 28 29 28 28 27 25 23 22 21 20 20 18 20 22 23 22 22 23 24 26 24 19 18 20 17 16 16 14 12 15 9 13 7 6 6 5 4 4
33 34 34 33 37 35 33 31 29 29 29 30 29 29 26 25 24 23 22 21 21 22 24 25 23 22 25 25 23 17 13 15 15 15 17 16 16 13 19 23 6 4 3 3 6
36 34 32 31 33 35 39 37 35 32 31 30 30 30 29 27 28 28 26 25 24 24 23 23 24 24 23 23 19 22 18 16 12 14 16 20 18 23 16 27 10 9 6 4 5
32 31 31 30 29 30 33 37 39 36 34 34 31 33 31 29 30 29 29 30 30 29 26 24 24 23 23 20 23 25 30 28 23 6 6 18 22 17 19 18 16 18 9 8 8
30 31 29 30 28 28 30 32 33 34 34 33 33 33 32 32 31 30 29 30 32 33 31 30 24 22 24 27 25 27 27 28 24 13 10 22 26 23 22 24 22 23 9 14 9
27 30 28 28 29 27 28 29 29 31 32 31 31 33 33 32 34 33 31 30 30 31 35 35 30 30 29 27 30 29 28 25 28 23 22 21 30 30 28 25 27 28 25 19 14
25 25 26 24 25 29 28 28 27 29 29 34 31 33 29 31 33 36 31 33 32 30 32 35 35 36 34 32 31 32 30 27 27 33 32 25 27 29 25 24 21 12 16 18 17
19 19 22 23 22 22 25 26 26 25 25 30 32 31 29 32 35 35 34 34 34 34 34 33 36 39 39 38 36 33 34 35 35 35 39 36 33 29 24 24 23 22 25 22 17
11 8 9 13 18 20 20 21 21 16 19 23 24 25 26 29 33 35 32 34 34 35 37 37 38 40 40 41 42 41 38 37 39 40 41 35 39 36 31 20 17 16 18 18 19
13 10 8 12 8 7 16 15 12 3 11 20 27 24 24 23 28 27 30 32 35 36 38 38 36 37 41 44 43 43 45 42 43 41 36 32 39 35 32 27 20 15 24 28 25
13 8 7 8 10 10 11 22 16 21 18 18 18 10 12 21 24 25 26 27 27 33 38 39 38 35 33 38 43 46 44 46 46 40 36 35 38 28 31 32 28 25 23 25 30
10 5 5 5 6 5 18 22 9 21 15 3 6 9 8 12 13 20 18 18 27 35 40 41 40 40 39 43 45 39 43 43 44 45 46 41 35 26 10 14 28 32 36 30 32
8 4 4 4 1 7 15 7 5 7 14 11 11 11 13 10 14 18 19 23 30 37 39 38 34 35 42 47 49 49 40 40 44 48 49 46 42 29 8 14 15 26 33 33 35
9 5 2 1 2 3 2 1 5 6 8 9 8 12 16 19 21 21 17 22 24 29 34 35 38 36 36 38 38 35 40 42 45 50 50 46 47 29 7 9 18 29 26 27 30
7 2 3 2 1 2 2 4 5 7 10 12 15 16 18 20 23 25 28 29 28 27 34 31 33 35 39 42 43 47 49 47 50 49 52 48 53 29 19 9 26 31 26 26 25
4 3 2 3 5 4 7 7 11 11 10 11 12 12 14 15 18 18 15 21 28 33 37 40 41 42 40 42 45 49 51 48 49 55 56 52 54 39 31 24 20 20 26 28 27
10 8 4 7 9 10 12 13 12 11 10 10 9 9 10 10 12 13 15 19 28 30 31 31 34 42 47 46 50 56 54 53 49 54 59 57 58 43 43 33 25 15 33 35 26
12 13 12 12 11 13 14 13 11 11 11 13 13 13 16 18 20 22 24 27 25 26 29 33 36 40 38 48 48 54 62 59 58 57 59 59 63 47 50 44 37 28 29 34 32
16 14 13 14 12 14 14 13 13 13 16 16 19 19 25 28 30 30 29 27 22 26 31 38 41 46 48 44 43 58 58 62 64 61 63 63 63 51 59 58 46 40 36 39 31
15 14 15 11 17 16 16 15 15 16 17 18 18 18 21 22 26 25 24 20 21 27 36 41 32 38 40 40 43 48 59 60 62 64 62 62 62 56 63 67 57 52 50 48 38

GFSSW_500_spd_072.txt.gz
Wind_Speed
20 21 21 20 20 18 18 17 17 16 15 14 13 12 11 13 16 18 21 23 21 18 17 17 18 17 15 13 12 12 11 7 5 8 8 9 7 14 10 11 8 4 2 3 5
21 21 21 21 22 22 21 21 20 18 18 17 17 15 13 13 16 19 20 21 21 21 21 20 20 17 17 14 13 14 13 12 4 1 3 8 5 7 12 10 9 9 4 3 6
25 24 23 22 21 22 23 23 23 21 20 20 19 19 17 15 17 17 19 22 21 22 19 23 21 19 18 15 13 14 15 14 7 2 3 8 15 17 13 15 9 8 4 3 8
28 27 27 25 23 22 22 23 23 23 22 22 21 21 20 19 20 18 17 21 23 22 22 20 18 21 18 17 17 16 16 18 9 3 2 5 17 22 19 11 13 8 5 4 9
33 33 30 28 27 25 23 23 23 23 23 22 21 22 23 22 22 21 19 18 21 25 25 22 19 19 19 21 19 20 19 19 18 8 6 2 5 1 7 8 11 8 4 4 8
32 34 35 33 30 29 27 25 25 23 23 22 22 21 22 22 23 25 24 20 19 21 23 23 24 25 24 24 21 24 21 20 20 14 7 4 3 10 2 9 13 10 7 4 5
35 34 34 35 34 33 31 29 28 27 25 24 22 21 20 24 23 25 25 24 23 20 20 27 29 24 23 21 25 28 23 19 19 13 13 5 6 3 7 13 12 9 6 5 5
40 40 37 34 33 35 35 33 32 31 29 27 25 24 25 24 24 25 23 22 24 24 24 24 27 29 27 25 23 21 20 17 17 9 13 11 6 4 10 25 14 11 10 9 10
30 31 34 36 34 33 35 36 34 32 31 31 29 28 27 25 26 26 24 24 24 25 28 28 24 24 25 26 21 16 11 13 12 11 10 12 7 6 8 5 9 9 8 9 9
28 27 29 31 32 32 33 35 37 34 32 30 31 30 30 27 29 29 27 25 25 26 26 26 25 24 21 20 19 21 19 19 20 10 7 13 13 12 10 1 6 9 7 5 10
28 27 27 28 28 30 30 33 34 38 36 34 32 31 29 28 30 31 31 30 29 28 25 26 25 23 22 20 23 25 26 19 17 17 17 14 14 13 10 8 6 11 11 8 11
30 30 28 28 27 28 28 29 33 32 37 38 36 34 30 32 31 32 32 34 33 31 31 28 23 23 25 26 24 27 28 24 22 22 23 16 9 11 16 16 8 12 19 16 12
27 31 30 28 29 26 27 27 29 29 30 33 37 37 35 33 33 33 33 34 34 35 33 32 29 29 29 30 30 28 27 26 29 28 24 22 18 15 20 16 10 10 13 26 13
24 21 24 26 25 23 23 25 24 28 27 28 31 33 31 32 34 33 34 33 32 34 35 36 35 34 32 29 31 32 27 28 30 33 28 25 21 17 20 17 10 10 20 16 21
19 14 12 14 18 20 20 21 24 24 26 27 28 31 30 31 33 33 34 35 35 36 35 36 36 37 36 33 32 31 32 29 31 36 34 32 31 24 23 18 11 8 11 14 15
17 14 10 10 7 15 18 14 20 20 24 22 21 25 27 31 32 31 31 33 34 34 34 34 34 35 37 39 39 37 35 36 36 37 37 34 33 31 24 19 11 8 9 20 17
15 13 10 10 10 5 14 16 19 20 21 21 21 23 24 25 30 28 31 32 33 35 37 36 35 32 35 37 39 40 39 37 37 37 35 36 38 30 20 21 18 12 13 19 16
12 10 7 7 8 7 15 22 27 26 23 23 16 12 16 21 23 24 24 27 34 35 38 37 35 38 38 36 36 41 43 41 39 35 38 36 42 34 26 24 23 18 24 15 22
13 8 7 6 7 4 15 19 20 25 17 3 10 14 17 20 19 20 24 27 29 33 36 36 35 37 37 41 41 37 36 38 42 42 45 38 33 24 33 30 19 24 27 25 19
13 10 9 6 4 2 12 15 5 15 16 15 10 10 17 20 21 24 27 30 31 31 34 33 33 35 36 40 42 42 40 39 40 42 41 39 35 21 23 27 25 25 12 10 12
12 8 8 6 2 5 2 7 12 10 16 15 15 14 15 16 18 15 8 15 23 26 29 29 25 27 31 36 38 42 44 47 46 46 45 42 31 27 27 27 29 29 31 26 17
9 5 5 4 3 3 5 5 5 6 8 11 11 14 17 19 21 16 14 12 14 15 17 19 22 28 32 33 36 40 41 47 51 49 50 47 36 37 35 29 35 35 35 29 27
8 9 9 10 8 5 6 6 9 7 9 10 11 13 17 20 23 23 18 19 19 18 19 22 25 26 34 40 39 41 41 42 45 51 52 52 43 44 45 38 36 34 31 34 30
11 10 9 11 11 11 10 12 12 9 8 6 5 4 6 9 14 16 14 12 11 12 15 17 20 22 31 38 47 48 46 47 50 50 50 55 53 48 52 50 44 36 37 33 33
12 12 12 12 13 12 10 11 12 9 10 8 8 8 11 15 16 16 16 20 20 20 19 19 18 22 27 32 36 47 52 53 54 54 55 53 57 53 52 56 48 42 28 33 36
14 12 11 9 13 13 15 14 14 13 12 13 12 14 13 16 22 25 28 29 28 25 24 19 19 25 30 37 43 45 44 54 60 60 62 58 56 51 57 59 55 47 33 33 36
20 14 12 9 8 10 13 15 13 13 13 14 15 16 16 18 19 22 24 29 29 27 24 25 24 25 31 39 48 51 48 53 55 67 69 65 60 54 59 60 61 55 44 38 42

GFSSW_500_spd_075.txt.gz
Wind_Speed
20 22 24 24 25 24 23 21 20 19 18 17 15 14 16 20 22 23 26 24 21 19 17 16 17 17 15 13 12 11 10 2 5 3 4 9 14 16 15 13 12 9 6 4 9
24 23 24 24 26 27 27 26 24 22 21 20 19 18 17 18 23 23 23 27 26 22 20 20 18 17 16 14 14 14 13 13 4 2 6 12 12 24 14 14 13 11 5 5 6
30 30 29 27 26 27 28 28 28 26 25 23 22 22 21 20 20 22 26 24 26 26 25 22 16 17 14 14 15 15 16 14 11 7 3 6 9 10 14 14 12 13 7 7 8
35 35 34 34 31 28 29 29 29 29 27 27 25 25 24 24 23 21 23 27 27 26 24 21 21 19 16 18 17 17 19 16 14 7 8 2 7 10 8 15 16 13 12 8 9
37 38 36 34 35 33 30 30 30 29 28 28 27 28 27 27 26 24 24 23 27 29 26 25 22 23 21 23 20 22 18 15 15 12 10 2 9 5 14 14 18 13 12 13 10
40 42 41 38 35 34 33 31 30 30 28 26 27 28 29 29 29 29 26 24 23 27 28 26 29 27 28 26 23 25 18 13 12 15 11 3 8 3 8 9 20 14 13 15 15
32 32 35 39 40 38 36 33 32 31 29 26 26 27 29 29 28 30 29 26 25 24 28 33 29 27 24 23 30 23 17 15 15 15 16 5 4 5 7 10 16 15 11 14 13
30 32 33 31 33 38 38 36 34 32 32 29 27 27 28 27 27 29 28 29 29 27 29 27 30 27 27 24 23 19 17 18 15 14 16 11 7 7 7 16 15 9 6 10 15
27 29 28 28 28 30 34 36 36 36 33 32 31 29 28 29 28 29 27 28 29 32 31 28 25 28 29 27 23 18 15 18 18 19 21 17 10 5 2 8 16 7 7 9 14
27 28 27 28 28 28 29 32 36 37 36 33 34 33 30 30 30 29 28 28 29 30 32 29 25 23 24 24 23 21 19 18 22 23 24 20 17 10 6 10 1 10 5 7 13
28 28 30 33 31 28 26 29 32 36 37 36 33 33 31 30 30 32 30 29 30 30 28 28 29 24 22 22 23 24 23 21 21 24 21 22 18 17 12 12 10 13 10 8 8
33 30 29 32 34 31 27 26 29 31 35 39 37 34 32 33 32 33 33 31 31 30 29 29 24 25 27 25 26 27 25 25 24 23 21 22 25 21 19 13 8 7 17 12 7
32 29 26 25 28 30 26 24 24 27 30 34 37 38 37 35 33 33 32 33 33 33 32 29 25 29 29 31 29 27 22 28 29 29 24 23 18 16 20 14 9 8 8 18 14
24 23 21 18 16 21 24 23 24 25 27 29 30 34 37 38 35 34 33 33 33 33 33 32 32 31 29 28 28 27 23 30 34 32 30 26 22 16 17 15 9 5 3 9 24
21 20 18 13 11 14 19 22 23 24 24 26 28 29 33 36 36 35 36 35 36 35 34 33 34 32 32 29 27 26 29 30 37 36 33 31 28 19 9 7 7 7 6 7 32
18 18 16 12 12 8 15 20 21 22 23 24 24 26 30 32 34 34 35 36 37 37 35 34 33 34 33 34 32 31 31 33 34 39 36 33 30 22 14 12 7 7 11 9 33
17 16 13 10 8 11 11 20 20 24 26 26 28 24 26 29 31 32 33 34 36 36 36 36 36 34 33 34 35 35 33 31 34 37 34 34 31 19 19 22 20 14 8 10 29
17 16 10 9 10 11 6 19 22 25 28 26 27 28 27 27 28 31 34 35 35 36 37 36 36 36 34 33 34 36 38 36 34 35 38 36 34 25 25 24 24 21 19 16 26
16 15 12 10 9 8 5 13 20 23 20 18 20 23 26 26 25 26 28 30 32 34 35 35 36 37 38 36 33 34 37 38 38 40 40 38 37 32 34 31 29 26 24 23 16
13 12 12 11 7 0 10 7 10 12 18 17 18 19 19 23 25 26 28 29 31 33 35 34 34 35 37 39 37 36 36 37 38 40 40 35 37 41 39 40 39 34 29 28 24
14 12 12 8 7 1 1 3 8 12 14 18 12 11 13 15 19 21 24 26 27 28 29 28 29 31 34 38 39 39 39 39 38 39 40 36 38 41 42 40 38 35 31 31 29
12 10 11 9 4 2 7 8 8 11 10 14 14 14 14 14 15 14 14 15 17 22 24 23 23 28 32 36 38 39 40 39 41 42 41 39 40 43 42 39 38 37 36 33 31
11 12 9 7 5 3 5 7 4 8 12 12 13 14 14 16 16 15 13 13 12 14 16 19 24 32 34 36 39 39 40 41 40 41 44 43 44 42 43 42 39 39 38 35 31
9 8 9 9 8 8 8 8 7 6 5 9 12 13 16 21 19 18 16 14 11 13 13 16 19 27 37 40 39 39 38 39 40 40 43 45 45 47 43 42 45 44 43 41 35
14 10 9 10 10 9 9 8 9 8 6 7 8 9 11 13 15 14 14 15 15 17 15 16 16 18 24 31 40 42 40 41 43 43 43 45 45 51 46 44 45 47 45 45 40
20 13 10 8 8 7 6 7 9 11 10 10 8 9 10 12 17 19 20 19 20 19 19 18 20 20 22 23 26 29 37 45 50 52 51 51 52 54 51 46 46 50 47 47 46
20 14 13 11 7 7 6 7 7 8 10 11 11 11 13 14 15 18 23 27 27 27 27 29 26 24 25 26 27 29 30 34 39 43 54 61 56 58 61 53 50 50 54 50 43

GFSSW_500_spd_078.txt.gz
Wind_Speed
24 24 26 26 25 25 27 27 25 22 21 20 18 17 20 23 23 24 24 20 20 18 15 15 14 13 11 11 11 10 7 2 5 4 5 6 12 15 18 16 14 15 9 9 18
27 26 28 28 30 31 28 28 29 27 25 24 22 20 20 22 25 24 25 26 22 20 17 18 17 16 13 13 13 14 9 9 2 3 3 11 15 10 17 19 15 16 13 10 15
32 29 29 30 30 32 34 30 30 30 29 27 26 26 23 23 24 27 26 27 27 24 20 18 17 15 14 15 16 17 17 10 5 4 4 5 10 12 24 23 16 12 12 16 14
31 30 31 37 37 35 33 33 31 31 30 30 30 29 28 27 26 24 28 29 26 27 25 21 19 17 16 18 16 18 16 11 8 1 4 2 7 13 10 25 18 13 11 15 18
32 29 32 36 40 39 38 33 31 31 31 31 31 31 31 31 29 27 26 28 29 27 26 25 24 24 22 23 20 20 13 10 8 7 7 11 10 6 6 23 15 16 12 8 14
30 29 29 30 31 35 35 39 33 29 30 30 30 32 32 32 31 31 28 26 28 31 29 29 30 29 30 26 24 20 14 11 9 5 5 8 9 8 7 15 16 10 12 11 14
27 26 27 28 30 33 32 34 37 34 29 30 29 30 31 30 31 31 32 28 27 29 33 34 31 28 25 25 28 20 17 13 12 12 12 12 7 2 5 8 20 13 9 11 13
26 25 26 26 28 31 31 29 34 37 34 29 30 29 29 30 31 30 31 33 31 29 28 31 31 29 31 22 23 20 19 18 15 12 10 11 9 7 3 7 20 15 8 7 12
26 26 27 27 29 30 29 27 30 35 36 33 31 30 28 30 30 29 30 32 34 32 30 27 28 30 29 26 23 18 20 21 18 17 13 15 14 10 4 11 15 16 10 10 9
27 25 26 26 27 30 32 31 27 32 34 36 34 33 32 30 28 28 28 29 32 33 31 27 26 26 26 26 24 22 22 20 19 21 17 18 17 11 5 8 23 11 11 9 14
29 25 25 27 30 31 35 33 29 30 34 35 36 35 33 32 29 28 27 28 29 29 30 30 27 21 23 26 27 26 26 24 21 22 21 21 22 17 10 8 13 15 12 10 13
32 30 24 24 27 28 30 31 29 26 30 33 35 35 34 33 32 32 29 27 28 28 27 26 26 29 27 26 26 27 29 26 27 23 20 23 20 17 14 11 14 19 15 10 12
30 24 23 22 21 18 19 25 27 27 29 30 32 36 35 35 35 33 32 29 29 29 26 25 26 28 30 29 27 27 28 30 29 26 22 17 18 16 13 14 14 16 14 15 13
25 21 19 19 18 18 16 23 27 27 27 28 29 32 37 36 35 34 33 31 29 29 28 27 29 29 28 29 28 24 25 29 32 28 26 21 17 15 16 16 15 18 15 16 17
21 19 17 17 15 17 11 19 23 25 25 25 27 29 34 36 34 35 34 33 31 30 28 29 30 30 29 26 24 27 29 30 31 30 27 24 19 14 10 9 14 16 16 16 16
19 18 17 13 12 13 9 14 19 24 27 25 27 28 30 32 33 35 36 36 34 31 30 30 31 31 29 31 27 29 30 30 31 32 28 26 22 17 17 26 23 20 14 11 12
18 17 17 13 11 11 10 13 17 24 26 26 26 30 31 30 31 33 34 36 36 34 33 33 32 31 31 32 32 31 30 31 34 36 30 30 23 23 26 24 20 16 14 15 14
16 14 12 10 11 10 6 11 18 23 24 25 26 27 30 31 31 32 33 34 36 36 33 35 35 33 32 33 32 33 33 32 34 34 35 35 31 27 24 25 24 20 15 9 13
15 13 12 7 9 12 1 7 12 19 22 23 23 24 24 27 28 34 34 33 34 35 34 34 35 35 34 34 33 34 34 34 36 37 34 36 37 31 29 28 28 25 22 18 18
13 12 10 7 8 8 4 6 4 8 19 18 18 19 23 26 25 25 28 32 34 33 34 34 35 36 37 35 34 35 36 36 36 37 38 37 36 37 32 32 32 29 25 24 18
12 9 9 8 3 3 1 3 2 3 10 15 16 16 17 20 22 24 23 23 25 29 31 32 33 36 37 38 36 36 36 37 38 38 39 39 38 37 34 33 34 34 30 27 25
13 11 9 6 3 2 5 5 8 8 9 18 16 13 14 17 20 20 20 24 22 21 22 22 28 31 33 35 36 36 37 37 38 37 39 40 39 39 36 34 34 34 31 33 32
17 11 8 6 3 3 3 2 6 10 7 9 17 17 15 16 16 17 20 18 17 17 21 24 25 29 33 35 36 37 37 36 37 37 39 39 40 38 37 35 35 35 33 31 30
21 11 8 6 5 5 4 2 1 3 7 10 13 15 17 17 16 17 18 19 20 20 22 26 30 33 35 37 36 37 37 37 35 37 38 41 40 39 37 33 35 35 38 38 36
22 13 10 7 6 6 7 8 5 3 3 8 10 13 16 18 18 17 17 18 21 22 24 28 30 33 36 36 38 38 37 38 37 36 38 41 40 40 40 37 34 38 37 41 40
20 18 15 11 6 5 4 5 6 6 8 8 9 12 13 15 15 15 15 15 21 27 27 24 21 20 23 30 35 39 40 39 39 38 38 39 41 40 41 42 40 38 46 49 47
17 19 17 17 14 9 7 6 5 5 6 8 11 12 13 15 15 16 16 17 18 21 23 23 21 20 20 22 28 31 34 36 38 40 41 42 44 46 45 46 45 44 46 53 52

GFSSW_500_spd_081.txt.gz
Wind_Speed
20 17 16 17 18 21 23 23 23 24 24 22 21 18 20 23 22 24 23 20 18 16 17 15 13 12 12 11 13 6 4 3 4 3 2 15 5 14 21 16 16 14 10 12 17
22 20 19 18 20 24 26 26 25 25 26 26 25 23 21 22 26 25 26 25 21 20 19 20 19 16 14 12 8 8 4 5 2 1 7 6 14 14 20 22 19 16 12 7 16
25 26 21 19 21 22 30 32 32 27 26 28 29 27 26 25 24 28 27 27 24 22 20 18 17 16 16 15 15 11 11 3 5 3 2 8 6 4 11 21 18 16 17 13 16
28 27 25 22 21 24 28 33 34 33 29 27 30 31 30 29 27 26 28 27 27 25 21 20 20 18 18 17 16 14 11 7 7 2 2 4 11 8 10 25 20 17 9 15 16
29 27 23 21 20 22 25 28 30 32 34 30 29 32 33 31 30 28 27 28 28 28 27 26 25 24 23 21 19 14 10 5 3 5 2 6 10 5 6 28 19 15 12 4 14
29 25 20 20 19 21 24 24 27 28 31 34 30 30 33 33 31 32 29 27 30 30 30 30 29 27 26 24 22 16 13 8 7 6 5 1 10 7 7 27 21 17 15 11 12
24 21 19 19 20 21 23 25 26 25 32 32 33 30 31 32 31 32 33 30 27 31 33 32 31 28 27 26 22 20 17 12 9 7 6 4 0 3 6 18 18 16 11 14 12
22 20 20 20 21 22 24 26 25 26 29 32 33 33 30 31 32 31 33 34 31 30 32 32 30 30 28 25 25 21 19 18 12 10 8 7 5 2 2 7 16 13 12 14 15
20 17 16 17 19 20 25 29 28 27 28 33 35 34 32 30 30 30 31 33 34 32 29 30 33 30 29 26 22 20 22 20 17 14 12 11 9 6 2 5 14 14 13 15 14
18 17 17 18 19 22 27 31 32 30 28 34 37 36 34 32 29 28 28 30 32 32 31 29 29 30 29 29 27 22 21 21 20 18 15 13 10 6 6 3 19 18 14 12 14
21 21 18 19 20 26 32 38 36 34 31 33 37 38 35 33 30 28 28 28 28 29 31 29 27 23 28 29 31 29 25 22 23 20 19 14 13 10 6 6 16 19 11 12 14
25 22 20 20 20 22 26 30 33 34 32 32 36 38 36 33 32 29 28 27 27 27 27 30 27 29 31 32 31 31 29 27 25 22 20 17 13 12 8 6 5 14 13 6 9
25 22 20 20 20 17 17 19 26 31 30 30 34 36 36 34 33 32 29 29 28 27 25 25 29 32 30 29 29 29 30 30 29 25 21 20 16 15 12 10 10 17 17 16 13
23 21 20 20 18 16 15 14 18 25 28 28 30 33 35 33 33 33 32 30 29 28 27 29 30 29 31 29 28 27 28 31 31 29 24 21 20 18 18 18 16 19 18 17 14
20 19 18 16 13 14 13 11 14 19 25 27 28 30 33 34 33 34 32 30 30 29 27 28 28 28 27 27 29 27 28 30 31 29 27 23 20 22 23 23 24 25 23 15 21
19 18 17 13 12 11 11 8 12 18 25 27 29 30 31 31 34 33 32 31 31 31 31 30 30 30 30 29 29 32 30 29 29 28 28 27 24 24 25 26 29 26 23 26 24
19 15 15 12 11 12 9 4 12 20 22 24 26 30 30 31 32 33 32 32 31 31 32 32 32 32 32 33 32 31 32 32 31 30 28 26 29 28 24 24 27 25 22 19 19
19 15 13 11 8 10 6 3 13 18 20 23 25 28 30 30 31 32 34 32 31 31 32 32 33 33 34 33 32 32 31 33 35 30 26 24 29 30 27 24 24 22 18 19 16
16 14 10 7 6 10 5 3 8 13 17 20 23 24 28 30 28 30 31 32 31 31 34 35 35 35 35 34 34 34 34 34 33 29 28 32 30 29 29 27 28 26 21 16 13
15 9 9 7 5 8 4 7 3 7 14 17 18 19 20 25 28 28 28 31 31 30 31 35 35 37 36 35 36 35 35 37 34 34 35 35 32 32 29 29 27 26 25 20 14
17 7 6 6 5 4 4 8 6 5 8 15 17 17 19 19 19 27 27 27 27 30 31 32 34 36 36 38 37 37 38 37 37 37 37 35 33 29 29 30 30 29 29 24 22
21 11 4 4 4 4 4 2 1 1 7 8 10 13 14 13 14 15 21 20 24 17 24 29 32 34 35 36 37 37 38 38 38 39 38 36 33 32 30 29 31 32 32 29 26
22 13 7 4 3 1 1 3 4 5 7 15 17 16 14 17 19 17 17 20 24 27 20 22 27 30 34 35 36 36 37 38 37 39 39 38 37 33 32 32 32 31 31 32 32
22 18 13 7 6 5 5 4 2 2 5 10 12 16 18 18 17 18 20 18 16 14 20 29 26 29 33 35 35 36 37 38 38 39 38 40 37 35 35 34 34 35 35 35 34
22 22 19 13 4 5 5 6 6 5 4 5 9 15 18 18 19 18 17 18 19 24 23 26 34 34 34 36 38 38 37 38 39 40 41 41 41 40 39 38 37 38 38 37 38
19 20 20 21 12 6 4 5 5 8 9 8 8 9 11 13 14 15 17 21 24 27 28 27 28 32 36 34 31 32 36 36 36 37 39 40 41 41 42 41 40 40 39 41 41
16 18 15 22 20 15 12 7 1 4 8 11 12 12 13 14 14 14 13 14 18 27 32 32 29 27 28 31 34 35 35 36 36 35 36 38 38 39 40 40 41 42 43 44 45

GFSSW_500_spd_084.txt.gz
Wind_Speed
19 17 17 13 13 13 15 16 19 19 19 17 18 18 17 21 20 21 24 21 21 19 18 17 15 16 13 11 9 9 7 6 5 3 1 11 11 15 19 16 17 18 11 12 17
21 19 17 16 15 14 15 17 21 21 23 22 20 21 20 21 24 22 25 23 21 22 22 21 21 18 16 13 13 9 8 5 3 1 9 1 5 9 22 21 20 16 11 9 17
27 25 20 16 17 15 16 18 21 25 25 25 24 23 24 24 24 27 25 27 24 23 24 24 22 20 19 16 11 10 7 5 6 3 4 10 11 6 7 23 21 18 15 10 17
29 27 25 20 18 16 18 18 21 25 27 28 26 27 26 26 28 25 28 27 28 25 23 23 21 20 20 17 17 13 10 8 6 3 2 2 6 5 10 25 22 15 15 14 19
28 25 22 22 20 18 19 19 20 21 24 27 28 29 29 29 28 28 27 30 29 30 27 28 27 25 23 20 17 14 10 6 5 5 3 3 6 3 13 26 21 17 11 13 18
25 21 21 22 21 19 20 21 21 21 21 25 27 29 31 31 30 31 30 28 32 32 33 30 30 30 27 24 20 15 12 9 6 6 6 2 4 2 17 27 23 20 16 8 17
23 22 20 20 21 20 20 23 23 22 21 24 27 29 31 31 30 31 34 31 31 34 34 33 31 29 28 26 21 17 15 11 9 7 5 3 3 4 9 25 24 17 17 13 15
19 18 19 18 20 23 22 24 25 23 22 24 28 30 31 32 32 32 33 35 33 31 34 33 32 30 31 23 21 19 17 15 12 10 7 5 2 3 5 25 21 17 17 16 15
18 16 16 17 19 21 25 25 27 28 26 27 29 32 33 32 31 32 32 35 36 32 30 33 32 32 29 27 24 21 20 19 16 14 10 8 5 3 1 5 22 19 19 19 15
17 15 15 16 19 21 25 28 31 32 32 32 33 35 36 34 31 32 31 32 33 33 31 30 34 31 31 30 26 23 23 22 20 18 14 12 8 4 3 9 14 16 16 15 16
17 15 13 16 21 25 28 32 35 35 35 37 36 37 37 35 33 32 31 31 31 33 34 31 30 33 30 31 38 29 25 26 24 20 17 14 10 9 5 6 16 21 18 16 18
19 15 12 13 17 19 21 26 32 32 34 38 39 37 39 37 34 32 32 32 31 30 32 33 30 32 36 36 30 29 29 26 24 21 20 18 13 10 7 6 12 22 19 17 15
20 17 14 14 15 16 18 18 20 21 26 35 39 37 38 38 35 34 33 33 32 30 30 31 34 35 33 35 32 32 30 30 27 22 20 21 16 15 11 14 18 20 21 17 16
20 19 17 16 16 16 16 16 16 16 21 30 32 34 36 38 36 36 36 36 33 33 32 34 35 35 34 31 32 32 36 32 29 24 18 22 16 18 16 22 20 21 19 22 19
20 19 17 16 17 16 15 13 14 15 17 27 31 34 34 35 37 35 36 35 35 34 33 35 34 35 34 32 30 33 34 34 33 29 24 23 17 25 23 23 25 21 18 16 15
21 19 17 14 15 14 13 12 11 16 22 26 30 31 32 33 35 35 34 36 36 35 36 37 37 35 33 36 35 31 32 31 29 29 29 25 23 28 30 27 27 22 20 16 14
20 20 14 13 14 13 11 8 10 19 20 26 32 30 29 32 34 33 35 35 35 33 36 35 38 36 35 35 37 35 32 30 29 30 21 29 31 27 32 30 26 22 21 19 18
21 19 13 13 11 9 4 5 10 19 21 23 29 32 30 30 30 31 32 34 35 34 33 36 38 38 38 38 35 34 34 27 27 26 24 29 36 34 31 29 29 26 25 19 15
20 18 11 11 8 5 2 3 5 14 19 21 24 28 30 30 30 32 34 35 35 35 32 29 38 38 36 36 35 35 36 32 24 23 20 29 43 34 33 31 25 24 24 20 17
18 16 8 9 5 6 4 3 3 5 14 21 19 21 29 29 28 30 31 33 33 33 34 34 36 36 37 38 39 38 36 35 32 27 26 32 31 39 36 33 29 25 25 19 19
20 14 8 5 5 3 3 5 3 7 13 20 20 17 17 24 28 26 28 29 30 32 34 33 33 35 35 39 42 40 38 37 30 30 26 28 34 35 30 31 30 28 27 24 22
20 15 7 3 3 1 1 1 1 4 4 4 18 18 17 12 10 26 31 28 28 29 32 34 35 34 37 34 36 39 41 42 39 37 33 27 37 31 31 31 31 29 28 28 26
21 18 12 3 4 3 0 0 2 4 4 5 4 14 15 11 11 9 9 16 32 30 31 33 35 34 34 35 36 38 40 40 40 38 31 29 35 32 31 30 30 31 32 32 33
19 21 18 9 4 4 4 3 1 2 5 9 13 13 15 15 15 15 14 13 12 21 35 36 35 35 25 31 37 38 39 40 41 39 27 34 39 38 35 35 34 32 33 35 38
17 20 20 16 9 2 5 5 5 3 2 5 11 14 16 18 17 16 17 18 17 16 18 31 34 35 38 41 41 39 39 41 45 46 42 39 44 41 38 38 38 37 38 39 40
16 15 22 21 16 13 5 4 5 6 7 7 6 10 15 17 18 18 19 20 22 21 22 23 28 37 36 39 39 42 42 43 44 43 46 49 44 41 41 41 42 43 43 43 43
11 12 15 21 20 15 14 9 2 6 8 9 11 10 10 11 12 14 15 19 24 26 28 28 25 25 32 34 33 34 38 41 43 44 46 44 48 44 44 44 43 43 44 45 46

GFSSW_500_spd_087.txt.gz
Wind_Speed
21 20 20 20 19 18 18 17 15 18 18 17 17 16 15 16 16 16 25 23 23 22 21 19 17 16 14 13 10 7 6 7 9 4 6 12 14 18 15 15 10 11 9 8 12
27 27 25 23 23 22 21 19 18 19 21 20 19 20 19 18 18 18 21 26 24 23 22 21 21 19 16 14 12 11 7 7 5 3 4 4 6 5 17 16 14 13 8 10 12
31 31 30 28 26 25 26 25 23 22 21 24 23 22 23 22 21 18 22 26 25 26 24 24 23 21 18 16 16 13 8 5 5 2 5 8 4 10 13 19 20 17 12 11 12
34 33 32 30 28 28 28 28 27 27 27 26 26 25 24 26 26 22 24 26 29 27 27 25 24 22 20 18 16 14 10 6 4 3 3 2 2 2 19 23 23 18 15 14 14
34 30 27 26 27 27 30 30 30 30 28 28 27 26 27 28 27 26 25 28 28 30 27 27 26 25 23 20 17 13 12 7 5 7 4 2 3 1 13 23 22 17 15 15 16
28 27 25 23 26 28 30 30 30 30 29 28 27 26 27 32 27 29 28 27 31 33 32 29 29 30 29 24 22 18 13 10 8 7 5 3 3 2 14 24 22 16 14 14 17
26 23 22 23 25 27 30 30 28 29 29 29 27 27 27 25 28 29 31 30 30 35 35 32 32 29 29 25 21 17 15 12 10 8 5 4 3 2 14 27 22 19 16 12 18
22 20 19 21 24 25 26 27 28 28 29 29 29 29 29 28 30 29 31 32 32 31 36 36 31 32 29 27 22 20 16 14 12 9 7 6 2 5 18 26 24 22 18 14 16
21 21 21 21 22 24 26 28 29 29 30 31 31 31 32 30 31 30 29 33 34 33 32 35 34 31 31 25 23 22 15 19 15 12 10 9 7 3 3 29 27 21 19 18 14
20 20 21 21 22 24 26 29 30 31 32 34 34 32 29 32 31 30 30 32 34 34 32 35 36 34 33 32 26 21 18 20 17 16 12 11 11 7 3 8 23 21 21 18 17
18 17 19 20 22 24 27 32 33 33 35 37 36 37 32 35 32 31 31 32 34 34 35 33 38 37 33 29 23 18 18 21 21 21 12 9 15 9 6 9 25 28 24 19 18
17 14 16 17 20 26 29 33 34 33 36 37 36 40 34 35 35 33 32 32 33 33 35 37 34 36 36 35 37 28 24 16 20 22 16 21 17 15 9 10 17 21 20 21 18
20 15 13 14 17 21 24 27 28 27 26 28 35 37 38 37 36 35 33 33 32 33 34 35 34 36 40 40 34 31 26 28 22 21 18 19 19 15 16 14 15 18 24 24 20
20 18 15 15 14 15 14 16 19 20 19 25 27 35 38 37 39 38 38 36 35 34 35 35 41 40 39 38 33 31 26 29 18 21 17 15 16 19 18 17 17 20 18 23 22
21 19 17 15 12 11 11 10 12 15 7 24 23 38 34 34 39 39 39 38 38 37 37 38 43 41 38 34 34 24 32 29 29 19 16 18 30 26 27 21 19 23 17 22 19
22 20 19 17 13 11 9 8 9 9 12 20 21 27 32 35 39 38 38 40 39 37 37 29 41 39 38 35 32 32 34 38 28 23 24 19 20 21 22 23 24 21 22 17 15
23 20 18 16 12 10 10 8 7 9 18 18 21 30 27 27 29 38 38 36 36 38 37 42 41 40 42 39 39 39 34 28 28 27 22 20 24 39 19 26 26 28 20 16 12
23 21 18 13 12 11 7 2 6 12 21 24 25 21 21 22 25 33 33 32 33 23 23 35 37 44 44 36 38 37 31 25 22 25 23 17 31 43 37 27 31 26 19 20 16
23 18 14 11 10 7 4 5 5 22 20 9 21 22 20 19 21 24 28 23 35 39 31 23 23 43 44 45 44 39 36 23 18 18 22 30 43 41 42 30 30 28 25 23 18
20 16 9 7 6 5 5 7 10 12 9 18 11 34 19 20 22 23 27 34 39 34 36 27 32 38 42 41 39 40 34 31 27 24 27 32 34 38 39 31 33 31 28 23 21
18 16 11 4 3 1 9 7 6 13 13 22 7 22 26 20 22 23 25 39 32 36 42 31 25 36 40 43 40 38 40 35 29 20 31 20 23 44 37 34 33 30 25 23 24
18 15 10 2 2 2 4 7 7 8 6 16 19 8 24 30 21 29 30 38 35 34 37 37 32 23 30 42 43 46 32 36 30 30 26 25 36 41 26 31 35 34 30 27 26
16 17 10 1 1 5 2 3 7 6 3 3 2 23 16 7 24 22 31 36 35 37 40 38 29 22 31 36 40 41 42 42 29 24 29 30 34 25 30 34 34 35 35 33 31
14 19 15 7 3 5 4 3 3 4 4 5 4 8 14 13 8 3 9 12 26 36 41 39 30 24 21 20 28 38 44 45 45 32 20 30 38 30 35 32 36 35 37 37 35
12 16 20 12 8 2 5 5 5 4 2 3 7 6 9 12 11 12 10 10 10 14 36 34 38 37 37 39 37 38 41 43 44 39 25 33 41 48 41 37 34 35 37 39 39
8 10 16 19 14 11 3 6 6 6 7 5 4 10 13 17 17 15 14 15 18 15 15 25 38 37 40 41 44 42 42 41 45 48 39 31 41 50 47 42 38 37 39 39 40
4 5 8 12 15 16 14 7 2 6 7 9 9 8 9 14 17 16 20 19 17 22 22 21 22 35 35 41 42 45 46 43 44 46 43 37 55 46 41 44 43 40 40 41 43

GFSSW_500_spd_090.txt.gz
Wind_Speed
28 28 26 26 25 24 23 22 23 21 19 19 18 16 14 13 12 12 21 26 24 24 22 19 17 15 14 12 10 5 1 5 5 3 6 8 12 11 10 17 13 7 9 7 9
33 33 33 30 29 28 28 28 27 26 22 22 21 20 19 17 14 16 18 27 26 23 22 21 19 18 17 14 10 5 5 6 5 1 3 1 4 11 15 17 9 8 6 9 7
37 36 34 35 33 31 31 32 32 31 28 26 24 24 22 21 19 18 21 25 26 25 25 23 22 21 19 16 13 5 7 4 3 2 4 6 6 5 4 12 12 11 8 8 8
29 32 33 30 31 29 31 33 35 34 33 29 27 27 26 25 23 22 24 24 28 26 25 24 23 21 20 19 18 16 9 6 4 3 1 3 5 6 6 11 16 13 10 11 10
28 28 30 29 27 27 28 31 34 36 36 33 31 29 28 27 25 27 25 26 27 28 27 26 24 23 21 21 20 17 14 8 7 4 2 2 5 5 3 18 17 16 12 11 12
29 28 26 27 26 27 29 32 33 36 37 35 34 33 31 30 20 28 26 27 29 32 28 28 26 25 24 24 22 17 15 7 9 7 4 3 5 3 7 18 19 14 12 11 13
27 26 24 24 24 25 28 30 32 35 35 36 34 33 32 35 25 29 29 29 32 33 33 28 29 29 26 22 18 2 11 10 9 8 5 3 3 3 9 20 21 15 12 11 13
26 23 22 22 23 25 25 26 27 29 31 32 32 33 34 31 31 32 32 32 32 35 36 34 31 29 30 26 22 17 16 15 13 11 6 5 1 4 8 24 22 17 15 11 12
26 23 23 22 22 23 23 23 25 26 29 30 28 32 34 29 34 33 33 33 34 34 36 36 33 29 28 25 23 23 19 17 11 11 11 8 6 2 2 23 23 20 17 14 11
24 22 21 22 22 22 23 22 23 26 28 28 29 31 31 31 34 32 32 33 35 36 34 34 34 33 31 30 26 20 15 20 20 20 15 13 9 7 2 16 25 19 21 17 15
19 19 19 19 19 22 23 24 25 25 27 30 31 32 33 30 31 31 31 32 35 35 34 32 36 38 31 29 23 19 13 18 20 22 19 18 14 12 9 12 26 24 20 18 18
19 17 17 18 18 19 22 24 27 27 30 30 29 34 38 33 31 33 32 33 34 32 35 37 35 34 34 31 28 25 21 29 26 19 31 24 25 17 12 13 12 26 25 20 19
19 17 16 16 17 18 20 25 26 30 29 30 30 35 34 31 33 35 33 31 31 32 35 37 31 33 36 34 34 36 28 25 28 28 15 17 13 19 13 12 10 14 29 22 22
20 18 15 13 15 16 17 20 23 25 24 32 26 27 35 32 35 36 36 34 34 33 34 36 35 34 38 38 40 33 28 31 29 12 11 16 19 9 13 16 15 15 17 21 19
22 21 19 16 14 11 9 10 12 14 3 27 25 28 28 31 29 36 38 38 36 33 35 35 39 39 38 40 36 36 18 21 23 11 17 23 26 23 26 25 21 18 17 19 24
23 24 23 18 12 6 5 4 5 9 10 8 16 14 16 25 27 35 39 38 36 34 35 37 38 34 43 39 38 38 33 30 20 19 27 28 25 31 35 28 21 20 16 15 21
23 24 24 17 10 4 2 3 6 13 18 13 10 15 13 25 25 32 37 38 39 35 34 35 26 33 44 38 35 44 41 29 29 28 23 18 15 36 32 23 27 18 20 23 22
22 22 19 15 7 3 1 7 11 14 20 6 13 15 20 19 21 25 34 34 34 29 23 36 27 37 40 38 33 42 41 31 31 24 19 15 31 43 44 6 27 17 23 25 27
21 18 15 11 6 5 4 9 11 12 15 12 16 19 29 27 24 22 29 30 26 25 33 22 24 26 30 39 37 36 45 33 19 21 17 30 38 43 43 27 23 21 25 21 8
16 15 11 9 6 6 9 7 12 11 15 16 15 22 32 24 16 20 20 31 32 38 37 33 28 31 37 45 44 36 35 38 34 26 24 32 38 46 41 30 26 27 27 22 24
16 17 13 5 5 16 10 9 13 15 10 16 23 29 28 32 23 39 37 35 30 44 31 29 27 27 38 43 44 40 39 42 27 21 24 20 29 33 49 33 33 33 30 29 27
14 17 12 6 3 3 22 9 10 11 15 20 20 37 31 21 31 28 28 29 38 34 42 35 24 22 22 36 42 38 34 42 37 38 31 35 39 42 42 32 26 31 31 30 30
12 15 12 6 9 7 10 8 6 6 6 10 12 19 33 22 33 19 9 25 40 38 47 43 29 8 16 33 41 48 44 42 32 31 29 30 32 40 18 24 20 29 35 34 33
10 10 12 7 3 6 8 9 5 6 5 2 3 15 21 26 20 12 8 23 30 40 44 42 35 22 24 21 25 40 42 45 42 34 21 37 34 35 23 18 23 27 36 38 37
6 10 13 11 6 1 9 8 7 5 3 3 3 12 17 9 8 10 23 23 32 42 43 47 36 31 29 29 28 26 39 42 49 50 28 21 34 36 26 25 24 23 34 38 40
2 6 10 12 15 9 1 8 9 6 6 3 1 5 12 13 19 13 12 10 17 40 39 46 46 41 38 27 35 33 29 41 46 51 21 34 25 41 47 32 31 28 30 38 41
5 3 5 6 7 9 11 4 5 9 8 8 7 5 6 8 11 10 10 14 16 13 19 43 39 46 44 35 36 41 43 44 44 47 27 39 35 39 47 38 40 41 35 36 42

GFSSW_500_spd_093.txt.gz
Wind_Speed
31 31 31 31 31 30 29 28 26 25 23 22 19 18 16 14 13 12 23 28 27 24 23 18 15 14 13 11 9 3 3 2 6 4 15 12 5 3 7 6 7 7 11 7 10
35 36 37 35 34 32 33 31 30 29 29 27 24 23 20 18 18 18 19 31 28 26 24 21 18 16 15 13 10 4 6 6 5 7 8 6 11 4 12 10 10 4 5 8 7
34 33 33 34 36 34 33 33 33 33 32 31 29 26 24 22 21 22 21 27 30 27 26 25 20 19 18 16 16 14 12 14 8 6 7 6 7 6 7 19 15 10 5 9 5
35 33 29 28 29 29 30 31 32 34 35 34 33 31 28 27 24 22 24 25 30 29 24 23 21 21 20 20 21 1 15 10 7 3 2 4 6 3 1 19 14 8 5 8 7
29 29 30 26 25 26 28 30 30 31 35 36 36 34 32 30 27 26 26 25 28 28 25 25 23 22 23 22 19 10 4 1 7 6 2 2 6 5 3 9 12 9 6 6 9
28 27 26 24 22 22 24 27 32 31 33 36 36 36 32 32 26 29 27 28 29 31 30 27 25 25 26 25 20 11 11 12 8 5 2 1 5 3 4 10 10 10 7 6 11
27 27 27 24 22 21 23 24 27 28 31 34 35 34 33 34 26 32 31 30 31 33 31 30 28 29 27 26 24 21 9 15 11 7 5 3 3 4 5 14 14 12 9 7 12
26 26 27 25 21 19 20 23 25 25 26 30 31 31 34 35 28 34 35 34 32 34 35 34 33 32 29 27 25 11 25 16 13 8 4 4 2 2 5 13 15 12 9 8 12
26 26 25 22 21 20 18 18 21 22 22 25 27 27 30 28 28 37 34 37 35 35 36 36 35 32 31 28 27 26 16 13 12 11 10 9 6 3 3 15 20 16 13 10 13
26 25 21 20 19 18 17 18 18 20 20 23 26 28 29 31 31 35 34 36 37 36 38 39 37 30 30 29 24 17 16 17 14 21 17 12 10 5 3 9 19 19 15 12 12
23 21 19 19 19 19 17 16 17 18 21 23 24 28 28 28 30 32 34 35 37 39 38 37 37 36 28 24 22 19 14 16 27 30 21 13 13 11 7 5 21 22 14 14 13
22 20 18 18 19 19 19 18 18 19 22 21 24 28 29 26 29 30 31 34 36 36 37 36 36 34 31 28 26 25 20 24 23 27 29 27 21 17 11 10 13 18 19 14 13
20 19 17 17 16 17 18 19 21 21 18 20 22 27 29 25 27 28 30 32 35 32 36 38 31 34 35 33 32 30 30 30 24 30 29 18 15 20 17 14 17 19 26 24 17
22 20 19 16 16 15 16 20 19 24 17 17 18 21 30 25 29 31 30 32 33 33 34 36 34 36 34 36 35 33 32 27 29 23 27 27 16 25 22 15 14 16 11 21 19
21 22 22 21 15 12 13 19 14 17 15 14 15 16 19 18 26 32 30 33 34 33 36 35 38 40 37 35 36 33 29 20 24 18 20 22 23 12 10 17 17 14 15 20 17
20 20 22 20 15 9 5 8 7 8 10 5 9 3 9 15 24 29 29 33 34 33 34 34 35 39 37 34 38 34 22 26 28 23 32 18 22 3 18 21 21 24 20 20 19
21 21 17 16 12 5 6 9 13 18 16 16 3 2 2 12 19 26 32 35 35 35 38 34 38 36 38 36 40 46 35 31 33 28 27 18 20 21 19 18 23 24 27 22 21
19 17 18 13 8 1 10 8 12 13 17 15 14 8 4 19 17 15 25 30 33 33 34 37 39 39 39 44 40 49 38 29 23 18 14 11 25 27 23 23 27 28 27 22 19
14 19 17 13 6 3 5 3 6 12 22 19 27 17 15 17 25 29 14 23 29 27 28 28 29 26 36 37 35 47 48 39 19 16 19 20 26 28 19 25 26 28 14 20 15
12 15 13 13 7 4 8 5 6 1 5 14 17 21 19 33 30 25 25 14 26 33 34 30 32 29 24 27 39 50 52 41 35 23 24 25 29 33 29 25 25 25 24 7 13
12 12 11 9 13 7 5 7 9 12 10 10 22 23 28 27 34 32 29 36 37 37 35 34 37 28 21 29 40 44 49 48 38 35 31 29 28 30 34 32 28 26 25 21 18
9 9 8 5 10 13 17 12 13 12 11 9 32 30 24 31 30 37 31 29 43 40 32 42 30 36 31 25 29 41 42 48 43 33 35 31 29 27 30 23 21 25 27 24 24
7 9 9 5 6 6 14 9 7 9 14 12 2 24 24 33 22 19 27 35 42 45 25 37 35 32 31 29 34 40 38 47 48 40 36 35 34 38 31 33 23 31 25 25 26
3 4 7 3 2 5 5 8 2 5 6 7 3 23 27 27 12 19 18 23 41 36 34 41 33 27 30 24 30 40 46 43 48 48 38 32 35 40 29 27 28 38 36 29 31
2 3 7 8 6 6 9 9 8 3 2 3 3 13 26 35 22 18 7 3 18 31 35 42 34 28 28 26 28 34 41 40 44 44 43 36 31 30 21 20 25 29 33 28 31
6 2 6 5 7 10 7 7 7 6 3 2 4 2 23 21 23 22 23 14 16 25 35 41 44 44 33 26 28 30 34 47 47 38 53 41 23 21 25 22 22 23 27 26 29
10 5 2 0 4 9 10 13 7 5 6 3 5 2 8 7 11 13 14 20 15 24 30 39 49 34 31 34 30 28 35 39 51 43 58 55 47 29 22 19 26 25 22 20 22

GFSSW_500_spd_096.txt.gz
Wind_Speed
26 31 34 35 35 33 31 30 30 29 27 25 22 20 19 18 17 16 21 28 31 26 23 20 16 13 13 13 10 3 4 3 12 16 11 8 7 6 14 12 7 11 12 13 10
26 29 32 33 33 34 35 33 33 32 32 30 28 25 21 20 21 21 18 28 30 28 25 22 19 17 17 15 11 15 13 12 10 10 5 14 12 4 9 9 10 12 13 14 7
26 28 28 29 30 29 29 30 34 34 34 34 31 29 26 24 23 22 22 29 31 31 26 27 20 18 18 17 15 15 5 15 16 12 9 8 9 9 6 8 11 14 13 14 9
26 26 26 25 26 26 27 28 29 34 35 35 35 32 30 26 26 24 25 28 32 33 27 22 20 19 20 21 18 10 19 15 13 11 6 5 8 5 3 13 9 10 11 15 15
26 26 26 25 24 24 25 27 30 32 34 36 36 35 33 29 29 27 27 27 31 32 27 22 21 21 24 22 21 17 5 12 11 11 5 5 5 3 2 14 13 12 10 13 14
27 26 25 25 22 21 22 25 29 28 35 35 36 36 33 32 29 29 29 29 30 31 29 24 25 28 25 24 25 20 4 5 11 7 4 4 5 4 8 11 12 13 11 14 16
27 25 25 23 24 22 21 22 26 26 29 36 36 36 35 34 29 31 32 31 31 32 28 29 31 29 28 25 26 20 14 12 8 6 3 3 9 7 7 11 12 10 10 11 12
26 24 24 23 23 21 20 21 22 23 24 27 32 34 37 32 28 34 35 34 35 34 32 35 34 35 29 25 25 20 12 11 15 10 8 4 4 3 3 10 9 9 7 10 16
25 22 22 22 21 20 17 19 19 17 18 22 25 29 34 29 28 34 34 37 37 38 37 36 35 35 31 26 23 21 20 12 21 11 8 5 5 4 1 9 15 11 7 6 14
25 22 21 18 17 17 16 14 17 16 15 18 24 29 32 33 32 36 36 36 38 40 41 40 36 35 32 28 23 24 13 19 17 14 10 8 4 5 3 11 13 15 11 7 9
23 21 20 20 19 16 14 12 13 16 17 15 21 27 31 31 32 36 36 37 39 41 41 42 38 33 28 23 23 22 24 23 18 16 20 12 10 8 4 6 16 19 13 9 7
22 21 20 18 19 19 15 13 11 13 14 18 21 24 27 27 29 35 36 37 38 39 39 42 39 29 29 27 25 25 28 24 21 25 15 15 16 12 10 9 13 19 15 12 8
21 18 17 18 18 17 17 14 13 10 14 17 24 24 25 28 27 31 34 34 34 38 41 40 29 37 35 33 31 28 30 30 26 18 23 17 25 21 17 16 17 22 23 16 13
20 19 17 17 16 14 16 16 15 13 9 14 17 24 22 28 30 31 32 34 35 37 40 37 37 37 39 38 34 31 30 31 25 21 21 22 24 16 17 21 16 15 19 18 12
19 18 18 15 13 11 13 17 18 17 13 13 13 19 21 25 30 30 31 32 34 33 38 33 39 38 39 39 37 30 29 27 23 17 19 13 20 20 21 25 18 15 18 15 18
18 18 17 15 14 8 8 15 17 14 13 12 15 12 14 24 31 35 33 33 33 35 38 38 35 37 34 40 38 34 33 31 24 24 21 13 9 10 18 24 17 16 14 17 17
16 16 14 17 15 13 5 3 7 10 11 12 15 18 19 22 27 32 36 36 36 35 34 35 40 39 38 40 41 45 36 34 29 26 20 17 20 15 19 13 19 18 19 18 22
14 13 16 13 12 9 2 3 9 10 10 12 9 14 14 21 20 26 32 33 31 28 32 35 38 38 38 41 42 48 40 37 35 21 14 20 22 17 17 13 19 10 14 21 18
14 15 14 13 9 7 4 7 7 13 16 21 14 16 18 27 27 22 29 23 22 21 29 34 36 33 37 43 45 49 42 39 35 23 19 29 24 21 20 17 8 8 11 18 27
12 15 15 16 10 8 3 6 5 5 10 25 24 22 21 26 29 28 25 27 30 31 32 35 36 35 33 36 38 50 46 40 35 33 26 25 19 20 20 17 15 9 11 15 29
9 14 14 7 1 1 6 7 2 5 12 12 34 31 27 30 28 27 25 29 36 36 36 36 33 34 35 38 37 44 49 45 39 35 24 19 26 26 24 23 20 14 14 12 9
8 12 11 7 6 5 3 0 7 7 12 13 27 26 29 28 28 31 29 30 36 40 37 36 33 37 37 32 31 40 44 49 43 38 32 25 30 28 29 27 26 21 21 19 16
6 9 10 12 11 8 9 1 3 10 16 2 7 20 23 24 28 27 37 35 36 39 40 39 35 39 37 36 34 34 39 48 48 46 38 41 44 34 31 28 33 29 30 24 21
4 4 6 11 10 8 10 3 4 9 10 11 4 8 14 15 22 29 24 34 35 40 39 36 37 35 39 39 36 38 39 44 49 49 48 42 46 42 37 35 25 27 24 23 21
3 4 4 5 9 11 10 9 2 5 5 8 10 3 9 15 7 8 12 24 28 40 40 36 35 33 39 39 37 35 37 46 47 51 51 48 43 41 39 39 35 24 18 24 22
7 2 4 4 5 9 13 9 3 4 2 3 5 2 8 8 16 13 12 11 22 31 41 40 31 38 39 40 41 38 36 45 45 45 55 53 52 39 36 35 25 26 26 18 23
13 8 6 4 6 6 11 12 10 1 5 4 1 4 3 7 14 24 19 15 14 18 41 36 36 29 39 40 35 30 32 42 48 45 46 50 55 53 32 25 19 18 23 24 24

GFSSW_500_spd_099.txt.gz
Wind_Speed
23 24 28 30 32 32 32 34 34 32 30 27 26 23 21 21 21 20 19 20 27 28 24 21 17 14 11 13 9 8 2 15 19 20 19 16 11 11 13 8 6 6 10 17 13
24 25 24 28 30 31 31 29 32 34 34 31 28 27 25 22 22 23 17 23 27 29 26 25 19 15 13 15 14 10 9 7 14 14 10 14 12 19 14 10 8 7 8 16 16
27 25 23 24 25 26 27 28 26 27 32 35 33 29 29 25 24 23 22 25 29 31 29 24 19 15 15 16 17 10 3 18 11 16 14 12 13 12 12 16 13 14 9 12 12
29 27 25 24 24 24 25 24 25 26 28 34 36 33 31 29 27 25 24 24 30 31 29 21 19 17 17 18 15 13 9 11 13 13 14 10 12 11 9 24 16 15 14 15 13
33 30 27 24 24 23 22 22 23 26 28 32 36 36 33 30 29 27 25 25 30 31 28 22 22 21 20 21 15 8 16 17 14 8 8 10 6 7 10 8 15 14 15 15 15
35 32 29 25 25 24 22 20 22 25 29 31 36 36 34 33 31 28 28 27 28 32 28 24 26 26 24 23 21 18 11 3 13 8 6 9 7 7 13 12 19 15 17 16 15
38 33 28 24 23 22 22 21 22 25 30 31 33 37 35 35 33 29 30 28 28 32 28 29 31 29 25 25 23 20 14 14 7 8 6 9 9 11 10 16 20 16 19 18 15
37 33 28 24 22 21 20 20 21 23 27 29 32 36 36 33 33 32 32 33 33 32 33 36 35 31 30 26 24 19 18 12 12 12 8 9 7 7 10 16 18 15 16 20 18
35 31 26 22 22 19 20 17 19 22 23 24 30 34 35 34 36 36 35 36 35 37 37 37 35 33 30 27 24 19 21 20 12 9 8 8 8 7 9 13 18 15 14 19 17
33 29 25 22 20 19 17 17 16 20 21 23 26 33 35 36 39 39 37 38 38 39 40 38 35 36 30 27 23 22 23 20 15 14 13 9 9 7 7 7 13 14 13 16 21
30 26 24 22 20 19 19 17 15 17 19 22 25 30 33 32 38 41 40 39 40 41 41 38 36 33 25 24 26 22 22 27 17 19 22 11 6 8 5 11 11 16 13 13 17
31 24 21 20 20 19 18 16 12 13 18 23 26 27 29 30 36 41 40 40 39 39 40 42 36 29 26 25 26 25 28 24 22 15 12 14 9 12 8 10 12 11 15 11 12
28 26 21 18 19 19 18 14 11 12 17 23 25 26 28 29 33 36 38 39 39 39 41 38 34 33 32 32 29 27 28 28 25 27 15 21 10 17 12 8 14 14 20 17 14
27 24 21 19 18 20 18 16 10 10 14 20 24 25 25 28 31 37 38 39 39 40 40 37 38 40 38 35 34 29 25 27 28 26 24 21 20 18 23 15 17 17 20 20 17
24 24 20 20 16 18 17 16 10 5 11 19 25 25 26 29 31 32 35 37 37 38 40 36 40 40 40 36 36 29 31 33 30 28 27 21 15 17 15 14 21 22 19 27 21
22 20 18 16 15 12 11 12 7 5 13 18 21 23 26 32 34 35 35 37 38 39 37 37 41 42 40 37 36 37 41 37 32 29 28 16 13 7 14 20 21 25 22 21 19
19 17 18 17 15 8 5 8 6 5 9 17 18 21 27 30 32 36 39 40 41 40 35 37 41 40 41 42 42 45 43 38 36 31 23 21 19 14 10 15 16 19 19 20 17
15 14 16 16 15 9 3 7 7 6 6 11 12 13 21 29 31 34 36 40 41 38 36 37 39 37 41 41 41 44 45 42 41 33 26 28 22 18 16 17 20 32 21 21 22
12 11 16 15 11 5 3 6 6 7 9 11 12 19 19 24 28 31 28 36 36 37 38 36 35 35 38 41 40 44 46 43 36 34 28 32 21 20 20 16 12 23 26 16 22
10 12 15 13 7 4 1 6 9 7 10 17 19 17 20 25 28 31 29 34 39 42 39 38 36 36 38 40 41 43 46 43 44 40 37 26 23 24 20 20 17 15 11 26 19
7 12 12 9 5 4 2 6 6 8 12 14 20 23 21 26 29 27 30 30 36 41 37 39 37 37 35 38 40 42 46 49 43 44 38 34 33 27 27 24 19 14 10 9 13
6 10 11 6 1 4 3 5 5 5 12 14 20 27 26 23 27 30 23 30 35 38 36 38 36 38 39 38 37 41 44 49 48 43 43 38 32 31 28 23 19 17 14 16 9
8 9 7 4 5 6 1 11 3 4 10 1 14 17 28 28 27 23 25 29 32 33 33 35 35 36 42 39 37 40 44 48 45 45 45 41 35 30 31 27 23 21 21 21 19
8 6 4 7 11 9 4 7 3 1 7 7 5 10 22 26 27 30 32 29 27 36 35 35 33 36 38 39 40 39 44 47 52 49 51 45 44 29 22 22 19 21 26 28 29
7 4 3 11 14 11 6 7 5 1 5 9 8 3 9 11 17 24 28 32 33 33 36 36 36 36 39 39 40 38 39 42 44 51 51 51 47 44 35 36 33 29 34 35 32
10 6 1 6 9 10 11 9 2 4 2 6 8 5 7 14 10 15 11 19 23 34 34 37 37 40 34 43 43 37 40 40 42 43 46 52 47 50 43 36 32 34 30 32 24
13 11 6 2 2 3 7 12 13 6 4 1 5 7 4 8 9 10 8 10 9 13 34 36 35 35 35 38 32 36 40 38 36 43 45 48 48 49 43 37 28 25 25 26 29

GFSSW_500_spd_102.txt.gz
Wind_Speed
23 21 21 23 23 26 30 32 31 31 31 30 27 24 23 22 22 22 22 17 18 21 24 20 16 15 13 10 9 12 6 8 6 27 15 17 16 13 11 14 12 8 9 17 16
25 25 22 21 22 22 25 29 31 30 29 32 30 28 25 23 24 23 19 19 18 21 25 23 19 16 15 13 12 10 6 9 16 10 18 18 19 15 13 14 17 10 10 15 18
30 30 27 22 21 23 25 25 27 27 26 29 31 30 29 26 25 24 22 21 20 22 28 22 18 15 15 15 14 8 8 8 17 11 22 12 10 12 12 13 17 19 10 14 15
36 35 31 27 23 21 23 25 24 24 25 27 30 32 31 30 27 26 23 22 20 22 27 20 19 17 17 15 11 8 9 9 24 18 13 13 10 17 12 11 17 18 19 16 14
38 37 33 30 26 23 23 24 23 22 25 26 28 32 32 32 30 27 25 23 21 23 27 23 22 21 20 19 11 7 4 15 14 10 10 11 11 2 10 14 16 17 18 19 15
43 39 33 29 27 24 23 23 22 22 22 26 28 30 33 35 32 29 26 26 25 24 28 26 26 24 22 20 14 11 14 18 15 11 7 11 7 2 9 17 16 18 17 18 17
47 39 34 29 26 23 22 22 22 23 24 26 29 30 32 36 34 32 29 28 27 25 30 32 29 27 26 22 17 15 17 9 8 10 7 9 10 15 10 16 16 17 17 16 19
47 39 34 30 26 23 21 21 21 22 24 27 29 29 33 32 35 35 33 32 30 27 31 36 33 31 30 25 21 18 14 10 3 16 11 17 10 14 16 20 18 16 18 17 17
44 37 32 29 27 26 24 20 20 20 22 25 26 28 32 33 36 39 37 36 34 33 31 36 36 34 31 29 24 19 16 14 10 8 13 12 12 11 12 20 19 17 20 18 17
41 35 30 27 27 25 23 20 19 19 21 22 24 27 31 35 37 41 40 39 37 35 33 34 37 34 30 29 26 21 18 18 18 15 13 13 12 13 16 19 22 18 21 20 20
39 33 28 27 25 23 23 21 16 19 20 22 24 28 29 34 37 39 42 42 40 38 36 33 34 31 27 29 29 24 19 18 22 14 20 15 17 15 12 19 26 21 17 23 17
38 31 26 26 24 21 19 20 18 17 19 22 25 27 28 29 35 38 41 43 42 40 39 37 30 28 31 30 28 23 23 22 26 20 13 22 18 18 13 17 17 21 17 17 16
36 30 26 24 21 20 19 19 17 14 17 20 21 22 25 29 32 36 39 41 40 42 39 35 32 33 31 32 28 26 23 21 18 22 17 18 14 16 17 16 22 25 20 18 20
31 25 24 21 20 20 17 16 14 12 16 18 20 21 26 31 33 34 36 37 39 39 38 35 38 37 34 34 31 27 25 23 26 24 24 26 19 13 15 19 20 17 24 19 17
26 22 19 17 18 18 16 13 9 11 14 17 20 23 26 31 34 35 36 36 37 38 38 38 40 41 38 33 31 29 31 26 26 26 25 20 17 19 18 12 16 6 25 22 21
22 19 13 16 16 19 13 9 7 10 10 13 15 19 24 30 34 36 37 37 37 38 35 37 40 42 40 36 34 35 35 27 25 27 22 21 17 18 15 18 11 9 17 22 20
19 15 12 15 17 14 10 7 7 7 8 10 10 13 23 27 33 35 36 38 39 40 39 39 42 42 40 42 44 42 41 37 33 33 26 23 23 20 16 14 20 18 19 16 25
17 12 11 14 18 13 6 5 7 5 4 8 9 12 16 22 28 34 33 37 41 41 38 39 41 42 43 43 43 43 42 41 39 34 24 28 29 23 19 13 10 11 18 19 25
14 9 12 18 16 9 4 5 6 6 7 6 7 9 12 17 20 26 32 36 41 42 39 40 39 39 40 40 41 43 45 39 39 35 31 32 25 25 24 17 13 16 15 24 22
10 9 15 15 11 4 1 2 4 2 5 8 9 10 13 16 17 23 31 35 37 38 36 38 36 37 38 40 42 43 41 43 44 42 38 35 30 25 22 12 14 12 17 17 20
7 10 14 16 13 6 1 3 4 6 8 9 12 15 16 18 20 21 29 32 34 38 38 40 38 38 38 40 40 41 44 43 43 45 43 35 28 24 22 15 16 15 19 21 26
5 12 12 11 7 6 1 3 4 5 12 15 14 18 23 22 22 22 26 31 30 34 38 39 37 40 40 41 39 40 41 43 44 45 46 44 38 32 22 19 19 22 19 19 20
2 7 9 10 6 4 2 6 4 5 6 6 7 16 20 23 23 23 24 29 29 30 35 37 36 38 41 41 40 40 42 43 42 41 44 42 40 37 30 27 24 26 21 20 15
4 2 5 7 7 8 7 4 5 4 5 4 2 4 14 23 26 23 23 28 26 26 27 33 35 31 39 40 42 43 41 43 43 44 44 43 40 33 31 27 26 24 24 16 16
7 3 3 2 8 12 11 5 4 4 5 6 5 2 7 16 21 25 23 24 21 23 29 29 33 30 38 40 41 40 40 41 42 44 45 43 42 33 32 27 27 27 18 15 19
10 7 3 1 5 9 11 11 8 6 6 4 8 3 2 8 16 26 25 24 25 24 23 27 30 32 34 40 44 42 39 37 38 42 44 46 43 38 36 37 28 25 27 27 27
13 10 6 3 3 5 7 8 11 11 4 4 4 6 1 9 11 12 20 18 18 18 22 26 25 32 35 37 40 40 39 38 36 35 39 44 44 40 39 41 39 31 30 31 25

GFSSW_500_spd_105.txt.gz
Wind_Speed
23 24 22 21 20 20 20 22 22 24 24 26 27 25 24 22 19 19 20 15 15 13 17 20 21 18 14 11 12 6 7 11 5 28 20 19 18 14 17 18 16 13 14 20 21
28 28 27 25 22 20 19 20 23 24 24 24 26 27 26 24 23 22 17 17 16 12 18 23 23 18 15 12 12 6 6 6 6 30 28 22 21 18 19 20 19 18 9 15 22
33 33 34 30 25 21 19 19 22 24 22 23 25 27 28 27 26 23 21 18 16 14 20 23 21 16 13 14 12 6 8 9 11 18 27 19 19 17 15 19 18 23 12 12 19
39 39 38 32 29 25 21 19 21 23 22 20 24 27 29 29 28 25 24 20 15 15 19 23 20 18 17 17 12 6 7 17 16 26 18 19 17 17 13 17 19 22 21 18 18
45 44 40 33 27 25 24 23 21 22 22 21 22 26 29 31 30 28 25 21 16 16 21 26 24 23 21 16 11 7 3 6 22 15 15 18 19 20 15 17 18 18 21 19 17
49 45 41 35 29 25 24 24 23 22 22 21 23 26 29 32 32 30 27 24 22 18 22 28 28 26 23 18 11 7 8 6 12 15 14 12 16 16 19 19 21 19 22 22 20
48 45 42 37 32 27 25 23 23 22 21 23 24 26 29 31 32 32 30 28 26 22 24 30 31 27 25 21 16 16 11 14 20 14 10 10 13 9 19 23 23 21 23 21 20
46 45 44 39 33 28 25 23 22 22 23 23 26 28 29 29 31 35 34 32 29 25 25 27 33 31 28 22 19 16 22 15 10 14 11 13 7 8 17 24 24 22 22 23 20
47 44 41 36 31 26 24 24 23 22 21 22 25 28 27 28 32 36 37 36 34 31 26 27 33 35 30 25 23 16 14 14 10 15 14 12 16 10 7 24 21 23 22 21 21
46 43 38 33 29 25 23 24 23 22 21 21 24 26 28 30 33 36 38 38 37 35 31 30 33 36 31 27 22 18 16 16 7 9 11 12 14 18 12 16 20 19 22 23 22
44 39 34 30 25 23 21 22 22 20 21 21 23 25 25 29 32 34 37 39 39 37 34 31 31 31 29 28 26 22 20 18 16 16 15 14 17 16 23 19 18 16 20 21 20
39 33 30 25 22 20 19 21 21 17 18 18 20 21 25 27 30 33 36 38 40 39 37 34 28 32 37 32 27 24 22 22 19 19 17 22 21 21 21 19 23 18 17 22 21
34 31 25 21 19 17 18 18 16 12 14 14 16 18 23 27 29 31 34 38 38 40 38 34 32 35 37 36 28 23 23 24 23 27 18 18 23 23 17 21 26 26 22 22 23
30 25 20 18 15 16 16 16 15 9 10 11 14 18 23 28 30 31 34 36 35 38 39 40 38 36 34 36 32 25 25 25 24 19 24 21 21 27 24 19 24 29 23 21 23
25 20 19 16 14 14 15 13 11 5 5 9 11 17 23 28 31 32 34 35 36 34 39 39 40 39 36 33 32 30 26 27 24 22 20 22 19 20 7 17 19 17 24 20 19
23 19 17 12 14 14 14 11 7 5 5 6 9 16 20 25 29 32 33 35 36 34 36 40 40 42 38 36 34 35 33 29 24 25 21 21 14 17 11 6 3 5 19 26 20
20 17 12 11 16 16 12 7 4 4 4 6 8 12 17 20 26 29 33 35 36 36 38 40 42 41 40 39 39 37 36 34 31 28 19 21 18 15 10 6 10 11 12 23 21
19 13 11 13 17 13 7 3 2 2 4 6 6 8 11 14 20 26 30 35 36 37 37 39 42 42 42 42 42 40 38 38 36 29 20 22 19 16 13 10 9 11 13 9 20
15 10 11 15 11 8 3 1 2 3 2 5 7 7 7 10 13 20 26 31 36 37 38 39 39 41 41 41 42 42 42 37 34 31 30 29 24 20 19 15 12 12 14 11 14
9 7 13 11 12 9 3 3 4 5 4 5 6 7 7 9 11 14 20 26 32 36 35 38 38 40 39 42 43 43 38 39 38 35 35 35 30 25 18 17 17 17 18 21 22
5 6 9 10 13 9 4 2 3 5 4 3 5 9 11 10 11 11 17 21 26 29 34 35 38 38 37 40 42 43 44 43 40 39 35 33 29 23 19 15 14 12 12 25 19
4 7 7 10 11 11 6 0 0 2 5 5 6 9 12 16 15 13 12 22 22 27 32 35 37 38 38 38 40 42 41 40 41 40 41 37 32 25 20 18 17 13 12 25 24
4 5 5 9 8 10 9 7 3 6 9 13 9 9 17 18 22 20 16 20 21 23 28 33 35 37 38 41 40 41 42 41 39 40 40 37 34 28 24 18 16 14 16 19 25
5 3 3 7 9 10 11 8 5 3 6 11 8 7 9 20 24 24 20 17 20 23 24 32 35 35 38 38 40 40 40 39 38 39 38 38 36 32 34 31 28 23 21 24 28
9 4 3 2 5 10 13 13 5 3 4 7 9 6 8 15 22 26 23 18 19 19 23 24 31 32 35 39 40 40 39 38 38 39 37 35 35 34 32 28 26 27 25 24 26
12 8 5 2 1 5 8 10 11 6 3 3 7 9 6 8 14 23 27 25 20 18 18 25 25 29 32 37 39 40 39 39 39 38 37 35 35 35 31 28 25 25 25 27 20
6 15 10 6 3 0 3 5 7 9 4 2 4 7 5 5 9 12 19 25 21 18 19 16 20 26 32 32 38 40 40 40 40 39 37 35 34 36 32 29 30 26 29 34 27

GFSSW_500_spd_111.txt.gz
Wind_Speed
23 24 26 26 24 21 21 16 13 14 16 17 19 22 24 23 23 21 16 11 14 13 13 13 17 17 17 14 11 7 6 7 9 12 17 18 16 15 15 14 14 15 14 14 15
26 27 28 28 25 23 22 23 19 14 15 18 20 22 25 26 26 25 18 16 14 15 15 15 17 17 17 15 13 10 9 10 11 11 26 21 20 19 19 16 15 15 14 13 14
29 30 30 30 29 28 27 24 25 20 16 17 20 23 24 27 29 26 22 20 17 17 16 15 16 17 17 15 14 11 10 11 11 8 30 24 22 21 20 20 19 17 15 13 15
32 33 33 34 34 32 30 30 28 26 20 19 21 24 25 27 34 24 23 23 20 17 17 16 17 18 19 17 16 11 12 12 10 13 28 26 24 22 22 19 19 18 18 16 17
33 34 36 36 35 34 33 31 30 28 24 22 23 25 27 28 32 30 27 26 21 19 18 18 20 21 20 19 17 13 12 10 9 21 29 28 22 22 20 18 19 18 17 16 16
37 38 40 39 39 38 37 36 33 30 26 25 27 28 29 32 25 32 31 28 25 23 22 21 23 24 23 19 17 15 13 10 12 17 32 28 25 21 21 19 20 21 17 17 18
39 41 41 41 41 41 39 38 34 31 28 30 32 33 33 34 30 32 34 31 30 27 25 23 24 26 26 22 16 12 11 11 13 28 34 28 25 23 22 21 22 21 20 19 17
41 43 43 43 41 41 40 37 34 32 30 33 34 34 37 30 33 34 36 34 32 30 28 25 25 28 25 24 20 15 10 11 11 28 24 27 29 21 21 23 23 23 21 19 18
42 44 43 43 40 40 37 35 32 29 28 29 30 32 35 33 35 35 36 35 34 32 29 25 27 28 27 23 21 18 19 12 14 20 22 15 26 25 26 26 26 25 22 20 19
44 43 41 39 37 37 33 28 25 23 22 22 24 27 31 34 33 34 36 36 35 33 31 32 31 30 27 26 17 19 20 19 18 21 23 21 19 27 26 27 29 27 24 22 22
44 42 39 36 33 31 25 22 20 19 18 18 19 21 22 28 32 33 34 35 35 35 34 33 34 32 26 24 25 26 22 18 24 18 16 18 24 30 27 33 32 30 27 24 23
41 39 36 32 28 25 21 18 17 16 14 13 16 18 21 26 30 31 32 33 34 34 35 36 36 31 27 29 31 21 21 16 17 18 21 20 21 16 31 26 34 32 30 26 25
38 36 32 26 23 21 18 14 15 14 13 13 12 14 20 24 27 30 31 33 33 35 35 33 32 34 36 37 28 20 21 9 25 18 16 10 12 18 15 32 38 32 30 29 25
36 33 27 23 20 17 12 11 12 14 7 4 7 10 16 22 25 30 31 32 33 36 37 35 27 36 42 34 26 24 28 22 23 32 18 14 13 30 19 28 30 32 29 28 26
35 30 24 23 16 11 10 13 11 6 3 10 4 7 14 18 21 26 29 31 32 34 38 35 30 39 36 30 33 40 28 15 9 16 20 9 21 3 19 32 32 28 24 28 27
33 27 22 17 11 11 11 8 7 8 4 7 2 3 8 12 18 26 27 30 35 35 35 23 40 37 31 31 36 39 27 28 21 15 16 23 11 12 11 26 18 27 27 26 31
31 24 19 11 10 11 9 5 10 9 9 1 1 10 11 5 12 18 23 27 26 31 35 40 38 37 34 30 43 36 28 22 19 15 12 7 16 21 21 15 8 9 29 29 25
28 21 14 8 11 10 7 0 4 3 3 4 5 16 12 8 8 13 19 21 27 25 15 31 31 37 37 34 31 34 31 16 19 12 16 18 8 14 8 30 1 1 9 24 27
25 17 9 7 10 9 4 9 3 3 3 6 10 8 7 10 10 12 11 13 20 28 15 18 20 27 38 39 32 29 36 29 17 19 9 6 12 14 8 7 7 9 7 4 9
21 12 5 6 9 10 7 4 2 1 4 12 2 9 5 7 7 11 13 20 20 33 37 20 20 25 31 41 41 34 24 31 27 14 12 15 18 14 18 19 19 13 13 11 10
17 7 4 4 6 7 3 4 3 2 1 3 8 12 4 2 12 16 8 21 29 26 33 29 23 18 28 37 37 38 36 29 25 26 22 9 19 19 23 22 18 13 12 14 17
12 3 1 2 3 7 3 3 2 3 3 5 4 8 8 10 7 7 11 16 21 22 27 30 19 21 20 23 34 27 28 31 26 25 30 21 21 21 16 24 15 16 17 16 16
9 3 3 4 3 0 2 2 2 4 4 4 4 6 5 4 10 14 15 18 23 20 21 27 30 18 15 16 24 30 27 27 24 25 22 20 26 30 16 19 20 20 18 16 15
8 4 2 1 3 6 4 3 2 2 4 5 5 6 7 8 9 7 15 16 16 19 24 29 25 26 27 32 26 23 34 24 26 26 23 21 25 29 26 18 23 25 22 19 15
6 7 5 3 5 5 5 5 4 2 1 2 2 3 6 6 7 7 15 8 16 16 19 23 29 31 16 30 33 8 21 26 28 29 24 20 20 22 31 30 29 30 28 27 22
11 8 9 8 7 7 6 5 3 2 2 1 2 4 4 6 7 16 10 13 15 16 17 16 20 30 35 16 27 24 18 18 25 25 28 26 18 40 20 35 38 31 30 27 24
12 12 9 11 11 9 12 8 6 3 1 2 2 5 7 5 9 8 12 14 18 18 15 16 14 20 26 24 19 17 21 28 26 23 22 26 35 28 55 19 35 38 33 31 28

GFSSW_500_spd_114.txt.gz
Wind_Speed
21 23 23 23 24 24 22 20 20 18 15 12 14 16 19 21 21 19 16 14 14 15 14 13 14 15 16 14 11 8 6 6 8 11 15 13 9 11 9 6 8 8 7 5 8
24 25 24 25 27 26 25 23 21 20 21 18 14 15 18 21 22 22 18 19 17 16 16 16 16 16 17 16 14 11 10 7 10 13 16 23 12 19 16 14 12 10 7 6 7
25 25 26 28 28 27 26 24 23 22 20 17 16 15 17 20 23 22 22 23 21 18 17 17 17 17 16 17 17 15 11 11 10 11 10 20 20 20 17 14 12 10 8 7 8
26 28 30 31 33 33 34 32 28 27 25 22 19 19 20 22 25 20 24 27 24 20 18 18 17 18 17 17 17 16 14 12 11 12 17 27 23 19 18 16 13 10 9 9 8
28 30 33 35 38 38 37 34 31 28 25 22 22 22 24 26 25 25 26 28 26 22 21 19 19 20 19 19 17 14 12 11 10 11 12 25 27 21 19 17 14 12 11 10 8
30 32 35 38 41 42 41 38 35 33 30 27 25 27 29 31 27 26 30 31 29 27 23 22 21 23 21 18 21 18 18 12 11 7 16 26 21 22 22 18 16 15 12 11 11
32 33 37 40 42 44 41 36 35 35 31 29 29 33 35 39 29 32 32 33 33 31 27 26 25 24 23 22 18 15 12 11 11 11 10 25 21 22 22 19 18 17 15 13 11
34 37 39 42 44 41 38 37 36 35 34 30 29 34 39 38 32 35 34 36 35 34 32 29 26 26 26 20 16 13 13 14 18 21 30 27 24 22 23 21 20 20 18 15 12
35 38 42 44 41 37 36 35 33 31 28 26 25 27 34 33 35 38 36 36 37 36 34 31 28 28 26 27 20 18 12 14 12 17 35 34 30 27 24 23 23 22 20 18 14
36 39 42 39 36 34 32 29 27 25 24 23 22 23 27 29 33 33 34 36 37 37 36 31 31 29 28 28 21 19 17 19 20 12 27 30 33 33 26 23 24 24 22 19 16
37 40 38 34 33 29 26 26 27 23 24 23 19 22 21 22 25 33 32 34 37 37 35 31 35 33 26 23 19 18 21 28 15 12 15 24 24 32 27 28 26 27 24 22 20
37 37 34 32 29 26 26 24 22 23 21 16 17 16 17 18 24 30 31 33 35 34 34 34 36 31 24 20 31 25 28 29 17 20 22 25 31 26 34 33 27 31 27 25 22
35 33 31 30 26 25 21 17 17 17 18 9 11 12 12 16 23 27 29 32 32 34 35 33 31 30 29 30 24 4 30 24 25 23 14 15 25 35 36 34 36 32 29 28 22
32 30 29 26 24 18 14 15 16 13 6 11 10 7 5 10 16 26 28 30 31 33 34 32 26 28 30 32 16 13 28 23 35 8 12 14 12 21 17 39 31 41 34 32 28
30 29 26 24 19 15 14 14 11 6 12 11 15 6 2 11 10 19 28 30 32 30 34 29 32 17 31 26 22 26 38 28 10 18 7 15 14 11 21 33 33 34 39 36 37
27 27 23 20 13 15 14 10 7 13 9 14 10 8 4 7 2 19 23 27 31 33 34 23 20 19 24 34 27 28 35 22 27 6 7 9 11 7 12 7 35 32 35 35 33
25 25 20 15 12 13 12 8 13 16 9 8 9 8 10 7 5 11 20 26 25 29 30 30 20 20 32 28 28 23 28 31 20 4 9 7 11 11 20 21 28 29 30 29 33
22 21 16 10 12 13 10 1 11 6 11 3 7 4 3 13 7 7 15 19 22 15 6 24 24 32 26 28 22 35 31 22 18 11 9 8 14 20 18 10 6 14 35 33 36
20 17 11 7 11 12 8 14 5 6 4 3 11 6 9 6 9 3 4 7 8 20 12 14 18 17 23 29 22 11 29 23 17 12 7 12 7 8 11 12 20 8 7 32 31
17 13 5 6 10 12 6 3 7 4 10 9 7 5 10 9 2 10 15 13 21 18 22 17 10 20 18 29 34 26 10 21 35 29 7 22 18 3 15 9 8 9 9 4 27
15 10 4 4 8 6 10 10 11 3 4 9 7 3 9 13 4 13 23 15 21 15 32 30 22 15 23 25 26 35 32 23 20 21 28 14 20 14 18 22 25 19 17 11 11
14 8 2 1 5 14 6 10 9 8 4 4 8 17 9 7 11 20 18 14 23 27 16 32 24 11 12 14 17 28 19 31 19 23 19 16 19 20 14 17 23 28 20 20 15
13 8 2 3 1 5 13 7 5 2 6 0 5 8 14 13 10 9 12 13 13 20 28 35 37 31 10 13 14 17 24 19 25 19 19 17 24 24 19 12 16 22 17 18 19
12 7 4 4 5 10 12 7 4 4 7 7 6 5 5 5 9 17 20 6 14 27 17 26 29 23 24 29 22 22 20 20 19 22 16 16 25 23 24 16 7 22 20 19 18
11 7 10 3 8 13 11 6 6 6 4 5 7 7 9 8 11 9 15 18 15 14 13 16 28 32 27 26 31 25 26 20 25 19 21 12 23 25 33 20 16 22 27 24 22
13 15 10 19 11 10 10 11 10 9 6 6 6 4 6 9 7 12 12 5 14 11 14 14 18 30 22 17 27 32 17 19 18 23 23 28 22 35 24 31 32 32 33 32 29
15 13 12 14 12 9 12 20 15 11 10 9 7 7 6 8 8 8 10 14 15 18 20 19 14 25 37 21 23 27 32 18 16 19 24 26 33 33 37 41 18 31 26 28 36

GFSSW_500_spd_117.txt.gz
Wind_Speed
19 18 18 20 21 21 21 20 18 17 14 14 12 10 10 12 15 16 16 15 13 14 14 13 14 14 14 13 11 8 4 9 14 5 5 3 14 10 6 5 4 3 1 2 3
18 19 20 22 22 24 24 24 21 17 16 15 13 11 10 11 14 19 17 21 18 16 15 16 16 16 16 15 14 11 8 8 11 11 4 8 15 14 10 2 2 3 2 2 2
20 21 22 24 25 28 29 27 25 21 18 15 14 14 14 14 15 18 20 23 23 20 17 16 16 18 17 16 16 13 12 10 9 11 13 7 11 23 15 9 4 3 1 2 2
21 23 25 26 29 30 30 31 27 24 22 19 16 14 15 16 19 18 19 24 26 23 20 17 16 18 18 17 14 17 14 12 10 10 15 13 16 20 20 16 7 3 3 1 2
23 25 27 28 32 33 34 33 29 27 24 22 20 20 18 21 20 23 24 26 27 26 23 22 19 18 20 20 17 17 17 13 12 9 13 16 19 16 14 11 13 7 5 3 1
25 26 28 31 33 35 35 32 32 30 27 27 25 25 26 29 23 23 28 28 30 30 28 24 22 23 24 21 18 16 11 10 13 7 9 10 22 23 21 13 13 9 7 4 4
27 29 32 33 34 36 34 33 33 32 31 30 28 27 29 34 32 29 33 33 33 33 31 29 27 25 23 21 18 9 11 10 12 9 9 14 13 20 16 18 13 11 10 8 7
28 30 31 32 35 34 32 32 32 32 31 28 25 23 23 29 35 35 37 36 37 37 35 34 31 30 27 21 18 12 14 15 13 12 11 9 14 19 24 20 15 15 12 10 9
29 30 31 33 33 33 32 31 30 30 28 25 23 22 19 23 29 35 36 35 39 39 38 35 33 30 26 21 23 20 13 19 15 12 21 17 19 23 23 23 19 17 15 12 11
28 29 31 31 30 30 30 29 28 28 27 27 26 26 24 21 24 27 31 35 37 38 40 38 34 33 27 28 18 15 14 11 14 13 18 33 27 29 25 25 22 19 17 15 13
28 29 29 28 28 27 27 27 26 23 25 25 25 24 23 20 19 22 29 34 36 39 39 36 34 33 26 21 21 16 21 18 25 17 15 25 36 29 30 27 25 22 21 17 17
28 27 27 27 27 26 25 23 22 21 21 19 16 12 13 13 16 22 27 32 35 36 34 36 33 28 24 28 24 24 20 26 23 17 9 16 37 36 29 30 24 26 23 21 18
26 26 26 25 25 25 22 20 20 20 17 12 16 8 8 10 13 18 24 30 31 33 33 33 26 24 26 28 29 11 20 25 24 29 15 14 20 32 42 33 31 27 21 25 24
24 25 25 25 23 20 20 19 17 16 12 17 14 13 10 3 4 16 22 28 30 29 29 30 26 26 24 26 25 23 14 14 18 18 20 14 14 26 34 38 33 32 25 30 27
24 23 24 22 19 17 18 17 13 13 13 24 17 11 6 2 4 11 21 28 31 23 27 25 25 27 24 25 30 26 10 7 14 13 9 13 13 13 32 35 37 40 32 32 31
23 22 22 18 14 16 16 12 12 12 18 18 17 12 3 10 11 1 16 20 30 30 28 27 18 22 13 16 22 31 22 13 18 20 8 12 9 6 12 19 20 40 37 34 34
22 22 20 14 12 14 15 9 9 21 20 9 10 9 4 2 4 8 12 19 24 25 27 23 22 16 21 30 31 21 17 6 16 28 12 3 2 5 8 8 10 31 44 31 35
22 20 18 10 11 12 11 9 14 12 6 12 4 8 7 4 13 7 7 16 16 20 12 12 23 25 23 26 28 22 24 11 8 16 17 3 10 6 9 6 12 32 34 37 35
21 18 16 9 8 11 6 11 7 6 5 8 6 6 4 8 10 18 17 9 8 20 11 17 5 4 11 16 29 16 17 11 21 15 19 11 20 14 11 12 4 16 28 33 33
21 17 14 10 6 9 12 8 13 2 8 10 4 4 5 12 4 7 12 15 18 21 21 21 19 19 14 14 27 30 8 9 21 23 21 23 13 3 9 10 6 10 22 24 30
17 14 12 13 4 7 6 14 20 3 8 8 5 1 1 12 8 8 17 20 17 23 25 23 16 19 13 21 13 28 27 12 11 16 21 20 23 16 8 13 13 17 18 20 27
17 12 11 8 2 9 6 11 16 11 6 10 10 2 4 11 2 11 18 11 17 18 23 22 26 27 27 13 4 10 30 25 19 18 13 17 19 14 9 18 13 27 24 21 14
16 13 11 4 6 5 7 15 12 10 6 3 6 18 12 8 12 13 14 20 15 22 22 22 25 27 19 21 23 12 15 23 22 26 22 18 17 12 12 12 6 24 20 22 20
16 13 10 5 4 8 7 7 13 5 8 4 4 5 11 16 8 16 17 13 13 20 14 19 29 26 21 19 18 24 22 25 22 17 18 20 12 15 18 11 9 8 16 18 19
17 16 14 17 8 13 16 13 11 12 5 6 5 9 10 11 13 16 7 17 17 21 18 23 20 32 39 33 25 23 24 23 27 27 22 16 12 15 21 20 17 10 23 15 15
16 16 15 17 16 18 10 14 18 19 8 11 8 7 8 12 14 15 16 17 10 7 6 15 19 32 36 39 37 32 29 30 33 33 26 25 23 29 24 21 22 27 19 25 30
14 14 12 15 12 13 10 17 21 17 13 15 11 11 11 9 7 11 13 14 15 11 9 12 15 28 34 37 29 20 36 33 35 29 34 33 28 29 25 26 18 27 31 29 35

GFSSW_500_spd_120.txt.gz
Wind_Speed
12 13 14 15 16 18 19 18 17 15 10 8 8 6 7 7 11 16 18 17 15 14 13 13 12 12 14 15 10 8 7 18 17 7 6 2 17 1 3 2 4 8 8 9 9
13 14 15 17 17 19 21 20 19 18 14 11 8 8 8 10 12 17 15 21 19 17 15 16 16 14 15 16 15 12 10 6 10 7 0 5 12 10 6 7 6 9 8 8 8
14 16 17 18 19 22 23 23 22 20 16 13 11 10 9 12 15 16 16 21 22 22 19 17 15 14 14 15 17 15 13 10 6 7 3 6 9 6 7 8 3 8 7 7 8
16 18 20 21 23 25 26 25 23 22 18 16 13 12 12 12 17 17 18 21 25 24 22 19 18 17 17 18 17 18 15 10 10 10 10 8 12 12 14 9 5 7 7 6 7
18 19 22 24 25 26 24 25 23 22 21 19 17 17 17 19 21 22 22 25 26 27 25 23 21 22 21 19 19 17 17 11 10 9 11 11 10 24 11 14 7 8 8 9 7
20 22 24 25 25 24 25 26 25 24 23 21 21 21 21 25 26 26 28 28 29 30 29 24 24 28 25 22 21 17 12 14 12 11 10 13 13 17 12 17 8 7 7 11 6
21 23 23 24 24 25 26 27 26 26 24 25 24 23 23 26 29 29 33 32 33 34 31 29 31 29 28 22 20 18 14 12 13 12 13 7 15 19 16 10 11 5 5 8 11
21 22 23 24 26 25 24 26 26 25 26 25 23 22 22 22 24 30 37 36 36 36 35 37 35 35 30 23 21 20 16 14 12 12 9 6 11 18 17 18 14 11 9 8 8
22 22 23 25 24 24 25 26 26 25 25 23 22 23 24 22 17 23 30 34 36 38 38 40 38 36 32 27 19 20 19 20 17 13 13 11 13 15 21 15 14 11 12 9 9
22 22 23 23 24 24 24 25 25 22 22 21 23 25 23 22 21 20 23 28 33 40 42 41 38 36 32 23 20 27 19 15 16 23 20 25 16 21 22 27 24 16 14 12 11
24 22 23 23 23 24 24 24 19 20 19 21 23 21 19 18 22 23 24 27 33 37 39 39 37 34 23 24 29 10 13 22 16 11 11 20 29 24 26 27 25 20 18 16 13
24 21 22 23 23 23 23 20 19 18 18 20 17 22 21 19 18 21 23 28 32 35 39 39 32 22 25 27 27 29 16 11 22 23 12 8 36 35 27 30 25 24 22 18 18
22 21 22 23 23 21 21 19 18 19 16 13 17 15 15 9 10 16 21 23 28 32 35 31 26 25 28 25 21 27 20 20 19 18 26 20 5 39 34 32 30 24 24 23 19
21 20 22 23 21 20 18 19 19 18 11 14 9 7 5 5 3 8 18 23 29 28 28 29 28 25 31 25 22 23 18 14 14 14 11 20 15 25 35 33 30 27 22 22 21
20 20 22 21 19 17 17 17 15 15 11 13 15 13 10 5 9 8 14 17 24 30 29 22 23 25 30 24 22 26 29 10 7 11 3 11 12 12 34 41 36 31 30 25 26
20 22 21 19 16 15 12 12 13 9 11 10 10 10 10 14 11 10 6 10 21 26 27 27 27 31 25 19 14 22 25 24 4 6 11 9 8 9 16 40 38 40 33 28 24
21 22 20 17 13 12 11 9 10 12 8 10 8 10 3 6 11 13 7 9 12 22 26 29 28 24 22 22 21 20 17 17 8 6 12 16 9 6 13 24 36 36 35 32 26
20 21 17 14 13 11 12 5 13 8 4 2 4 7 12 16 26 18 12 9 5 13 23 25 29 24 25 28 23 19 13 15 10 2 8 15 8 12 8 14 30 44 42 38 36
19 20 16 14 12 11 9 8 7 3 2 4 3 4 9 14 26 29 22 19 16 16 21 25 23 20 9 13 16 23 17 21 17 17 14 13 22 17 15 11 21 29 39 45 47
20 19 15 12 11 10 8 5 4 4 3 2 4 2 7 15 15 22 21 25 19 20 17 21 24 26 21 11 17 19 21 20 23 16 13 14 19 20 3 10 13 20 35 47 43
19 19 16 12 13 12 7 8 5 4 5 5 10 8 9 9 16 15 12 18 21 22 21 19 20 17 17 13 14 17 19 10 11 9 4 12 12 17 23 15 6 4 28 40 44
19 17 15 12 13 13 12 7 5 8 6 10 13 9 9 14 11 5 13 13 23 18 22 14 22 22 22 20 14 14 24 20 20 12 11 12 6 5 5 9 8 10 24 32 39
16 16 13 13 14 13 10 10 5 5 4 5 5 11 11 16 16 10 12 18 13 13 13 20 24 27 28 24 21 17 25 31 27 23 19 18 9 5 4 3 0 7 19 22 30
17 18 17 15 15 16 13 13 8 7 2 5 5 8 9 18 18 16 13 18 18 14 14 19 27 31 30 27 23 25 23 29 34 30 27 26 18 13 7 1 4 14 11 18 19
19 12 9 16 14 14 14 10 13 12 4 4 6 9 11 12 16 14 14 17 14 18 15 19 29 37 32 35 32 28 29 26 30 30 27 25 28 20 15 17 9 10 3 15 20
18 13 12 14 14 15 13 14 17 19 11 10 7 9 7 8 12 16 11 14 16 10 15 17 27 32 37 37 32 29 32 29 26 27 28 29 29 30 28 28 25 14 15 17 18
18 16 17 17 16 16 19 21 21 18 15 13 11 12 6 9 7 10 16 19 15 11 11 14 21 28 35 41 46 41 34 30 28 28 32 31 32 33 28 20 21 22 24 23 24

GFSSW_500_spd_123.txt.gz
Wind_Speed
9 9 10 10 11 13 14 15 14 12 12 10 9 8 8 10 14 19 19 17 17 14 13 13 11 10 11 10 6 6 7 5 10 5 4 5 8 2 4 8 10 7 4 9 8
12 12 12 13 14 16 17 18 16 15 13 11 9 10 11 12 14 17 16 20 19 17 16 14 13 12 12 12 12 10 6 10 10 6 5 12 6 4 3 6 8 9 7 9 9
15 16 16 17 18 20 20 20 17 16 14 13 12 12 13 15 16 16 18 21 22 20 20 14 13 14 13 14 14 12 10 9 5 6 2 3 2 5 4 8 5 6 9 10 9
15 16 17 18 20 22 22 20 17 16 16 15 14 15 17 17 19 18 19 22 24 23 22 18 17 16 17 17 18 17 15 10 6 6 6 8 4 4 7 8 6 7 8 13 6
16 17 18 19 20 20 19 18 17 17 19 18 18 18 20 22 24 23 24 25 26 26 24 22 22 21 21 20 18 18 15 13 11 10 9 7 5 5 13 10 6 6 8 13 8
16 16 17 18 18 19 20 18 18 19 20 21 20 20 21 25 26 26 27 27 29 29 27 25 27 28 24 20 20 16 16 14 12 8 9 9 11 15 19 12 9 8 10 13 10
17 18 19 19 20 18 17 18 20 21 23 23 22 22 22 23 25 30 32 32 31 32 31 31 32 32 26 21 17 18 19 15 15 14 16 13 13 26 22 15 14 11 10 11 10
19 20 21 20 17 17 20 22 23 24 25 24 22 21 19 19 21 26 31 33 33 33 36 38 36 35 30 22 16 21 21 20 14 16 14 13 10 19 24 16 21 10 11 9 13
24 24 24 21 17 19 21 23 25 26 25 23 22 21 19 19 20 22 27 31 32 36 40 42 38 39 33 23 18 19 22 22 17 15 14 13 8 20 14 21 14 12 14 13 13
26 26 24 18 18 21 23 25 26 26 23 22 21 21 21 19 18 21 25 28 33 36 40 40 38 39 34 20 21 22 24 21 19 13 14 19 14 24 16 17 19 14 15 15 14
26 25 22 18 19 22 25 26 23 22 23 22 20 19 20 22 20 20 27 27 30 34 36 37 38 37 20 24 28 26 22 27 18 20 22 16 20 22 18 27 20 14 13 14 16
26 24 21 19 21 23 25 21 20 21 21 22 20 20 20 21 23 20 23 28 29 30 34 36 33 25 28 27 28 26 28 26 17 24 22 11 24 27 29 25 26 23 17 16 16
26 25 20 20 22 25 21 19 17 16 15 17 17 16 18 19 18 15 23 25 27 30 31 28 26 29 28 28 27 24 27 24 8 9 19 21 10 37 29 30 33 24 22 19 19
27 25 20 21 23 24 21 17 13 13 7 15 11 11 12 14 9 7 16 24 25 25 24 25 30 30 31 28 27 28 30 30 15 7 10 18 16 8 41 36 26 28 22 21 22
25 23 20 21 23 20 19 17 12 11 10 8 6 7 11 11 7 2 10 19 19 24 25 27 27 26 24 19 24 24 25 22 15 8 16 10 11 18 21 44 31 31 26 22 23
24 20 20 22 21 18 18 15 12 9 14 6 7 5 5 8 2 9 9 10 11 17 23 25 27 28 26 30 27 23 22 26 12 5 10 11 10 9 15 39 42 33 28 23 23
22 18 20 21 17 16 15 15 12 13 7 2 3 4 2 4 2 9 12 10 7 17 28 27 29 27 25 28 27 23 21 22 20 10 7 13 13 9 9 15 43 41 32 28 25
19 16 19 18 16 13 12 13 12 9 8 1 4 6 5 5 10 18 19 15 14 22 30 27 26 26 28 24 25 23 9 8 15 6 2 8 17 8 15 10 18 47 42 32 31
18 16 18 18 14 10 12 13 13 10 5 2 3 3 8 14 21 23 23 18 19 24 30 29 23 20 22 18 21 21 13 19 19 11 7 8 11 10 11 8 5 14 40 38 41
17 16 17 15 11 8 9 10 10 10 1 4 5 1 12 14 21 25 21 22 25 26 27 30 18 22 21 22 23 21 17 17 20 18 16 10 10 9 10 12 11 11 20 36 38
17 16 17 14 11 8 8 10 10 7 3 5 5 9 8 19 17 20 12 18 21 25 28 32 28 22 22 23 17 19 21 16 15 9 7 4 1 3 9 11 15 17 12 29 34
17 16 17 16 15 13 12 12 8 8 3 8 7 9 8 13 18 16 15 19 16 23 25 27 28 20 19 15 18 20 20 19 13 15 11 7 3 4 3 2 6 12 14 18 30
18 16 14 15 16 17 17 16 11 8 5 7 10 11 15 14 14 14 18 13 16 20 19 19 26 23 23 24 21 20 21 24 23 20 20 13 11 10 4 7 5 4 13 9 33
19 16 13 13 12 14 15 12 10 9 4 6 7 10 7 12 14 18 18 15 12 12 17 21 26 28 30 29 30 25 25 25 26 25 26 21 14 14 8 7 3 4 6 10 24
20 14 14 14 16 16 16 15 12 10 8 5 6 5 5 8 9 11 13 13 9 10 17 16 24 29 24 31 32 29 24 23 26 29 29 27 22 21 18 13 7 7 6 7 9
20 17 17 18 18 17 18 19 17 14 10 11 11 7 5 4 4 7 13 13 14 13 14 18 20 30 32 31 35 33 28 26 24 22 30 31 29 25 27 22 23 16 11 10 15
22 20 19 21 20 21 21 20 17 17 15 15 16 16 10 7 10 10 9 10 8 12 18 20 25 27 32 37 39 38 37 32 31 25 20 26 28 21 25 27 26 24 24 18 19